<?xml version="1.0" encoding="UTF-8" standalone="no" ?>
<gpx xmlns="http://www.topografix.com/GPX/1/1" xmlns:xsi="http://www.w3.org/2001/XMLSchema-instance" xsi:schemaLocation="http://www.topografix.com/GPX/1/1 http://www.topografix.com/GPX/1/1/gpx.xsd" version="1.1" creator="VisuGPX - https://www.visugpx.com">
  <metadata>
    <name>Stevenson - Mijavols - La Borie (La Salle-Prunet)</name>
    <desc><![CDATA[Etape 6 - ASVEL Ski Montagne le 24 Mai 2012]]></desc>
  </metadata>
  <trk>
    <name><![CDATA[ACTIVE LOG065320]]></name>
    <trkseg>
      <trkpt lat="44.31557" lon="3.69623">
        <ele>934.072</ele>
        <time>2012-05-24T06:53:40Z</time>
      </trkpt>
      <trkpt lat="44.31559" lon="3.69617">
        <ele>934.793</ele>
        <time>2012-05-24T06:53:46Z</time>
      </trkpt>
      <trkpt lat="44.3156" lon="3.69614">
        <ele>934.889</ele>
        <time>2012-05-24T06:53:49Z</time>
      </trkpt>
      <trkpt lat="44.31566" lon="3.69598">
        <ele>936.711</ele>
        <time>2012-05-24T06:54:04Z</time>
      </trkpt>
      <trkpt lat="44.31578" lon="3.69576">
        <ele>938.263</ele>
        <time>2012-05-24T06:54:25Z</time>
      </trkpt>
      <trkpt lat="44.31592" lon="3.69567">
        <ele>939.66</ele>
        <time>2012-05-24T06:54:41Z</time>
      </trkpt>
      <trkpt lat="44.31608" lon="3.69564">
        <ele>941.236</ele>
        <time>2012-05-24T06:54:58Z</time>
      </trkpt>
      <trkpt lat="44.31627" lon="3.69555">
        <ele>943.413</ele>
        <time>2012-05-24T06:55:18Z</time>
      </trkpt>
      <trkpt lat="44.31643" lon="3.69554">
        <ele>944.665</ele>
        <time>2012-05-24T06:55:36Z</time>
      </trkpt>
      <trkpt lat="44.31657" lon="3.69554">
        <ele>945.807</ele>
        <time>2012-05-24T06:55:54Z</time>
      </trkpt>
      <trkpt lat="44.31674" lon="3.69552">
        <ele>947.562</ele>
        <time>2012-05-24T06:56:13Z</time>
      </trkpt>
      <trkpt lat="44.31687" lon="3.69556">
        <ele>949.177</ele>
        <time>2012-05-24T06:56:28Z</time>
      </trkpt>
      <trkpt lat="44.31698" lon="3.69558">
        <ele>950.533</ele>
        <time>2012-05-24T06:56:40Z</time>
      </trkpt>
      <trkpt lat="44.31716" lon="3.6957">
        <ele>952.805</ele>
        <time>2012-05-24T06:57:00Z</time>
      </trkpt>
      <trkpt lat="44.31725" lon="3.69579">
        <ele>953.807</ele>
        <time>2012-05-24T06:57:12Z</time>
      </trkpt>
      <trkpt lat="44.31726" lon="3.69581">
        <ele>954.404</ele>
        <time>2012-05-24T06:57:14Z</time>
      </trkpt>
      <trkpt lat="44.31735" lon="3.69592">
        <ele>955.369</ele>
        <time>2012-05-24T06:57:27Z</time>
      </trkpt>
      <trkpt lat="44.31737" lon="3.69595">
        <ele>956.192</ele>
        <time>2012-05-24T06:57:30Z</time>
      </trkpt>
      <trkpt lat="44.31745" lon="3.69605">
        <ele>956.996</ele>
        <time>2012-05-24T06:57:41Z</time>
      </trkpt>
      <trkpt lat="44.31754" lon="3.69621">
        <ele>958.809</ele>
        <time>2012-05-24T06:57:58Z</time>
      </trkpt>
      <trkpt lat="44.31764" lon="3.69644">
        <ele>960.687</ele>
        <time>2012-05-24T06:58:18Z</time>
      </trkpt>
      <trkpt lat="44.31768" lon="3.69653">
        <ele>961.664</ele>
        <time>2012-05-24T06:58:35Z</time>
      </trkpt>
      <trkpt lat="44.31768" lon="3.69659">
        <ele>962.296</ele>
        <time>2012-05-24T06:58:40Z</time>
      </trkpt>
      <trkpt lat="44.3177" lon="3.69661">
        <ele>962.627</ele>
        <time>2012-05-24T06:58:43Z</time>
      </trkpt>
      <trkpt lat="44.31771" lon="3.69665">
        <ele>962.996</ele>
        <time>2012-05-24T06:58:57Z</time>
      </trkpt>
      <trkpt lat="44.31776" lon="3.69688">
        <ele>963.849</ele>
        <time>2012-05-24T06:59:15Z</time>
      </trkpt>
      <trkpt lat="44.3178" lon="3.697">
        <ele>964.361</ele>
        <time>2012-05-24T06:59:24Z</time>
      </trkpt>
      <trkpt lat="44.31786" lon="3.69718">
        <ele>965.047</ele>
        <time>2012-05-24T06:59:37Z</time>
      </trkpt>
      <trkpt lat="44.31793" lon="3.69728">
        <ele>965.501</ele>
        <time>2012-05-24T06:59:49Z</time>
      </trkpt>
      <trkpt lat="44.31801" lon="3.69723">
        <ele>966.511</ele>
        <time>2012-05-24T06:59:59Z</time>
      </trkpt>
      <trkpt lat="44.31817" lon="3.69712">
        <ele>968.697</ele>
        <time>2012-05-24T07:00:18Z</time>
      </trkpt>
      <trkpt lat="44.3183" lon="3.6971">
        <ele>969.14</ele>
        <time>2012-05-24T07:00:31Z</time>
      </trkpt>
      <trkpt lat="44.31845" lon="3.69713">
        <ele>970.335</ele>
        <time>2012-05-24T07:00:48Z</time>
      </trkpt>
      <trkpt lat="44.31865" lon="3.69717">
        <ele>971.651</ele>
        <time>2012-05-24T07:01:10Z</time>
      </trkpt>
      <trkpt lat="44.31872" lon="3.69724">
        <ele>973.388</ele>
        <time>2012-05-24T07:01:20Z</time>
      </trkpt>
      <trkpt lat="44.31873" lon="3.69728">
        <ele>973.961</ele>
        <time>2012-05-24T07:01:24Z</time>
      </trkpt>
      <trkpt lat="44.31871" lon="3.69735">
        <ele>974.897</ele>
        <time>2012-05-24T07:01:30Z</time>
      </trkpt>
      <trkpt lat="44.3186" lon="3.69768">
        <ele>977.028</ele>
        <time>2012-05-24T07:01:58Z</time>
      </trkpt>
      <trkpt lat="44.31859" lon="3.69797">
        <ele>978.848</ele>
        <time>2012-05-24T07:02:22Z</time>
      </trkpt>
      <trkpt lat="44.3186" lon="3.69804">
        <ele>979.59</ele>
        <time>2012-05-24T07:02:27Z</time>
      </trkpt>
      <trkpt lat="44.31867" lon="3.69835">
        <ele>981.727</ele>
        <time>2012-05-24T07:02:50Z</time>
      </trkpt>
      <trkpt lat="44.31872" lon="3.69868">
        <ele>983.235</ele>
        <time>2012-05-24T07:03:16Z</time>
      </trkpt>
      <trkpt lat="44.31877" lon="3.69906">
        <ele>985.016</ele>
        <time>2012-05-24T07:03:44Z</time>
      </trkpt>
      <trkpt lat="44.31881" lon="3.69932">
        <ele>985.985</ele>
        <time>2012-05-24T07:04:02Z</time>
      </trkpt>
      <trkpt lat="44.31887" lon="3.69962">
        <ele>987.672</ele>
        <time>2012-05-24T07:04:24Z</time>
      </trkpt>
      <trkpt lat="44.31899" lon="3.69986">
        <ele>988.907</ele>
        <time>2012-05-24T07:04:43Z</time>
      </trkpt>
      <trkpt lat="44.31909" lon="3.70007">
        <ele>989.812</ele>
        <time>2012-05-24T07:05:01Z</time>
      </trkpt>
      <trkpt lat="44.3192" lon="3.70024">
        <ele>990.12</ele>
        <time>2012-05-24T07:05:17Z</time>
      </trkpt>
      <trkpt lat="44.31923" lon="3.70031">
        <ele>990.371</ele>
        <time>2012-05-24T07:05:22Z</time>
      </trkpt>
      <trkpt lat="44.31932" lon="3.70053">
        <ele>991.837</ele>
        <time>2012-05-24T07:05:40Z</time>
      </trkpt>
      <trkpt lat="44.31933" lon="3.70071">
        <ele>992.486</ele>
        <time>2012-05-24T07:05:52Z</time>
      </trkpt>
      <trkpt lat="44.31946" lon="3.701">
        <ele>995.567</ele>
        <time>2012-05-24T07:06:16Z</time>
      </trkpt>
      <trkpt lat="44.31951" lon="3.70108">
        <ele>996.122</ele>
        <time>2012-05-24T07:06:24Z</time>
      </trkpt>
      <trkpt lat="44.31953" lon="3.7011">
        <ele>997.006</ele>
        <time>2012-05-24T07:06:27Z</time>
      </trkpt>
      <trkpt lat="44.31956" lon="3.70112">
        <ele>996.964</ele>
        <time>2012-05-24T07:06:30Z</time>
      </trkpt>
      <trkpt lat="44.31961" lon="3.70107">
        <ele>997.397</ele>
        <time>2012-05-24T07:06:36Z</time>
      </trkpt>
      <trkpt lat="44.31963" lon="3.70091">
        <ele>998.686</ele>
        <time>2012-05-24T07:06:51Z</time>
      </trkpt>
      <trkpt lat="44.31967" lon="3.70067">
        <ele>999.443</ele>
        <time>2012-05-24T07:07:08Z</time>
      </trkpt>
      <trkpt lat="44.31985" lon="3.70046">
        <ele>1001.371</ele>
        <time>2012-05-24T07:07:30Z</time>
      </trkpt>
      <trkpt lat="44.31997" lon="3.70035">
        <ele>1003.046</ele>
        <time>2012-05-24T07:07:44Z</time>
      </trkpt>
      <trkpt lat="44.31998" lon="3.70033">
        <ele>1003.288</ele>
        <time>2012-05-24T07:07:46Z</time>
      </trkpt>
      <trkpt lat="44.32" lon="3.70029">
        <ele>1003.529</ele>
        <time>2012-05-24T07:07:49Z</time>
      </trkpt>
      <trkpt lat="44.32" lon="3.70024">
        <ele>1003.582</ele>
        <time>2012-05-24T07:07:51Z</time>
      </trkpt>
      <trkpt lat="44.32017" lon="3.70009">
        <ele>1005.925</ele>
        <time>2012-05-24T07:08:12Z</time>
      </trkpt>
      <trkpt lat="44.32032" lon="3.69992">
        <ele>1007.596</ele>
        <time>2012-05-24T07:08:31Z</time>
      </trkpt>
      <trkpt lat="44.32034" lon="3.6999">
        <ele>1007.958</ele>
        <time>2012-05-24T07:08:33Z</time>
      </trkpt>
      <trkpt lat="44.32038" lon="3.69984">
        <ele>1008.26</ele>
        <time>2012-05-24T07:08:39Z</time>
      </trkpt>
      <trkpt lat="44.3204" lon="3.69981">
        <ele>1008.943</ele>
        <time>2012-05-24T07:08:42Z</time>
      </trkpt>
      <trkpt lat="44.32044" lon="3.69977">
        <ele>1009.138</ele>
        <time>2012-05-24T07:08:46Z</time>
      </trkpt>
      <trkpt lat="44.32047" lon="3.69971">
        <ele>1009.891</ele>
        <time>2012-05-24T07:08:52Z</time>
      </trkpt>
      <trkpt lat="44.32048" lon="3.69969">
        <ele>1010.294</ele>
        <time>2012-05-24T07:08:54Z</time>
      </trkpt>
      <trkpt lat="44.3205" lon="3.69963">
        <ele>1011.068</ele>
        <time>2012-05-24T07:08:58Z</time>
      </trkpt>
      <trkpt lat="44.32053" lon="3.69957">
        <ele>1011.053</ele>
        <time>2012-05-24T07:09:03Z</time>
      </trkpt>
      <trkpt lat="44.32056" lon="3.69952">
        <ele>1011.596</ele>
        <time>2012-05-24T07:09:07Z</time>
      </trkpt>
      <trkpt lat="44.32057" lon="3.6995">
        <ele>1011.499</ele>
        <time>2012-05-24T07:09:09Z</time>
      </trkpt>
      <trkpt lat="44.32058" lon="3.69947">
        <ele>1011.943</ele>
        <time>2012-05-24T07:09:11Z</time>
      </trkpt>
      <trkpt lat="44.32064" lon="3.69939">
        <ele>1012.773</ele>
        <time>2012-05-24T07:09:19Z</time>
      </trkpt>
      <trkpt lat="44.32081" lon="3.6992">
        <ele>1014.219</ele>
        <time>2012-05-24T07:09:41Z</time>
      </trkpt>
      <trkpt lat="44.32083" lon="3.69916">
        <ele>1014.351</ele>
        <time>2012-05-24T07:09:44Z</time>
      </trkpt>
      <trkpt lat="44.32087" lon="3.69911">
        <ele>1015.188</ele>
        <time>2012-05-24T07:09:50Z</time>
      </trkpt>
      <trkpt lat="44.32103" lon="3.69898">
        <ele>1017.09</ele>
        <time>2012-05-24T07:10:10Z</time>
      </trkpt>
      <trkpt lat="44.32116" lon="3.69886">
        <ele>1019.359</ele>
        <time>2012-05-24T07:10:28Z</time>
      </trkpt>
      <trkpt lat="44.32116" lon="3.69885">
        <ele>1019.363</ele>
        <time>2012-05-24T07:10:29Z</time>
      </trkpt>
      <trkpt lat="44.32131" lon="3.69875">
        <ele>1021.452</ele>
        <time>2012-05-24T07:10:46Z</time>
      </trkpt>
      <trkpt lat="44.32143" lon="3.69867">
        <ele>1023.412</ele>
        <time>2012-05-24T07:11:02Z</time>
      </trkpt>
      <trkpt lat="44.32157" lon="3.69859">
        <ele>1024.823</ele>
        <time>2012-05-24T07:11:20Z</time>
      </trkpt>
      <trkpt lat="44.32169" lon="3.69849">
        <ele>1026.604</ele>
        <time>2012-05-24T07:11:37Z</time>
      </trkpt>
      <trkpt lat="44.32179" lon="3.69841">
        <ele>1027.884</ele>
        <time>2012-05-24T07:11:49Z</time>
      </trkpt>
      <trkpt lat="44.32194" lon="3.69828">
        <ele>1030.442</ele>
        <time>2012-05-24T07:12:07Z</time>
      </trkpt>
      <trkpt lat="44.32197" lon="3.69824">
        <ele>1030.526</ele>
        <time>2012-05-24T07:12:11Z</time>
      </trkpt>
      <trkpt lat="44.32211" lon="3.69815">
        <ele>1032.127</ele>
        <time>2012-05-24T07:12:27Z</time>
      </trkpt>
      <trkpt lat="44.32217" lon="3.69808">
        <ele>1032.863</ele>
        <time>2012-05-24T07:12:36Z</time>
      </trkpt>
      <trkpt lat="44.32231" lon="3.6979">
        <ele>1035.013</ele>
        <time>2012-05-24T07:12:56Z</time>
      </trkpt>
      <trkpt lat="44.32236" lon="3.69775">
        <ele>1035.857</ele>
        <time>2012-05-24T07:13:08Z</time>
      </trkpt>
      <trkpt lat="44.32238" lon="3.69772">
        <ele>1036.307</ele>
        <time>2012-05-24T07:13:12Z</time>
      </trkpt>
      <trkpt lat="44.32244" lon="3.69746">
        <ele>1038.072</ele>
        <time>2012-05-24T07:13:28Z</time>
      </trkpt>
      <trkpt lat="44.32245" lon="3.69743">
        <ele>1037.95</ele>
        <time>2012-05-24T07:13:30Z</time>
      </trkpt>
      <trkpt lat="44.32252" lon="3.6972">
        <ele>1039.56</ele>
        <time>2012-05-24T07:13:49Z</time>
      </trkpt>
      <trkpt lat="44.32264" lon="3.69698">
        <ele>1040.704</ele>
        <time>2012-05-24T07:14:08Z</time>
      </trkpt>
      <trkpt lat="44.32267" lon="3.69692">
        <ele>1041.343</ele>
        <time>2012-05-24T07:14:14Z</time>
      </trkpt>
      <trkpt lat="44.32268" lon="3.69689">
        <ele>1041.996</ele>
        <time>2012-05-24T07:14:17Z</time>
      </trkpt>
      <trkpt lat="44.3227" lon="3.69686">
        <ele>1041.884</ele>
        <time>2012-05-24T07:14:20Z</time>
      </trkpt>
      <trkpt lat="44.32273" lon="3.69681">
        <ele>1042.054</ele>
        <time>2012-05-24T07:14:24Z</time>
      </trkpt>
      <trkpt lat="44.3228" lon="3.69673">
        <ele>1042.933</ele>
        <time>2012-05-24T07:14:32Z</time>
      </trkpt>
      <trkpt lat="44.32294" lon="3.69657">
        <ele>1044.443</ele>
        <time>2012-05-24T07:14:50Z</time>
      </trkpt>
      <trkpt lat="44.3231" lon="3.69646">
        <ele>1045.434</ele>
        <time>2012-05-24T07:15:08Z</time>
      </trkpt>
      <trkpt lat="44.32327" lon="3.69634">
        <ele>1047.108</ele>
        <time>2012-05-24T07:15:27Z</time>
      </trkpt>
      <trkpt lat="44.32339" lon="3.69626">
        <ele>1048.62</ele>
        <time>2012-05-24T07:15:42Z</time>
      </trkpt>
      <trkpt lat="44.32353" lon="3.69617">
        <ele>1049.249</ele>
        <time>2012-05-24T07:15:56Z</time>
      </trkpt>
      <trkpt lat="44.32354" lon="3.69612">
        <ele>1049.687</ele>
        <time>2012-05-24T07:16:00Z</time>
      </trkpt>
      <trkpt lat="44.32358" lon="3.696">
        <ele>1050.803</ele>
        <time>2012-05-24T07:16:10Z</time>
      </trkpt>
      <trkpt lat="44.3237" lon="3.69575">
        <ele>1052.276</ele>
        <time>2012-05-24T07:16:31Z</time>
      </trkpt>
      <trkpt lat="44.32372" lon="3.69571">
        <ele>1052.472</ele>
        <time>2012-05-24T07:16:35Z</time>
      </trkpt>
      <trkpt lat="44.32379" lon="3.69541">
        <ele>1052.388</ele>
        <time>2012-05-24T07:16:57Z</time>
      </trkpt>
      <trkpt lat="44.32388" lon="3.69513">
        <ele>1052.611</ele>
        <time>2012-05-24T07:17:17Z</time>
      </trkpt>
      <trkpt lat="44.32389" lon="3.69507">
        <ele>1052.99</ele>
        <time>2012-05-24T07:17:21Z</time>
      </trkpt>
      <trkpt lat="44.32389" lon="3.69505">
        <ele>1052.944</ele>
        <time>2012-05-24T07:17:23Z</time>
      </trkpt>
      <trkpt lat="44.32391" lon="3.69491">
        <ele>1052.922</ele>
        <time>2012-05-24T07:17:34Z</time>
      </trkpt>
      <trkpt lat="44.32386" lon="3.69465">
        <ele>1053.291</ele>
        <time>2012-05-24T07:17:54Z</time>
      </trkpt>
      <trkpt lat="44.32381" lon="3.69439">
        <ele>1053.797</ele>
        <time>2012-05-24T07:18:11Z</time>
      </trkpt>
      <trkpt lat="44.32375" lon="3.6941">
        <ele>1054.393</ele>
        <time>2012-05-24T07:18:31Z</time>
      </trkpt>
      <trkpt lat="44.32374" lon="3.694">
        <ele>1055.194</ele>
        <time>2012-05-24T07:18:39Z</time>
      </trkpt>
      <trkpt lat="44.32381" lon="3.69388">
        <ele>1055.833</ele>
        <time>2012-05-24T07:18:52Z</time>
      </trkpt>
      <trkpt lat="44.32383" lon="3.69386">
        <ele>1055.96</ele>
        <time>2012-05-24T07:18:55Z</time>
      </trkpt>
      <trkpt lat="44.32396" lon="3.69375">
        <ele>1056.296</ele>
        <time>2012-05-24T07:19:10Z</time>
      </trkpt>
      <trkpt lat="44.32399" lon="3.6937">
        <ele>1056.479</ele>
        <time>2012-05-24T07:19:14Z</time>
      </trkpt>
      <trkpt lat="44.32401" lon="3.69363">
        <ele>1056.605</ele>
        <time>2012-05-24T07:19:19Z</time>
      </trkpt>
      <trkpt lat="44.32405" lon="3.69358">
        <ele>1056.783</ele>
        <time>2012-05-24T07:19:24Z</time>
      </trkpt>
      <trkpt lat="44.32413" lon="3.69343">
        <ele>1056.721</ele>
        <time>2012-05-24T07:19:36Z</time>
      </trkpt>
      <trkpt lat="44.32418" lon="3.6933">
        <ele>1057.107</ele>
        <time>2012-05-24T07:19:46Z</time>
      </trkpt>
      <trkpt lat="44.32422" lon="3.6932">
        <ele>1057.407</ele>
        <time>2012-05-24T07:19:54Z</time>
      </trkpt>
      <trkpt lat="44.32423" lon="3.69316">
        <ele>1057.387</ele>
        <time>2012-05-24T07:19:57Z</time>
      </trkpt>
      <trkpt lat="44.32425" lon="3.69309">
        <ele>1057.745</ele>
        <time>2012-05-24T07:20:03Z</time>
      </trkpt>
      <trkpt lat="44.32426" lon="3.69305">
        <ele>1057.574</ele>
        <time>2012-05-24T07:20:06Z</time>
      </trkpt>
      <trkpt lat="44.3243" lon="3.69279">
        <ele>1058.163</ele>
        <time>2012-05-24T07:20:22Z</time>
      </trkpt>
      <trkpt lat="44.32432" lon="3.69259">
        <ele>1058.667</ele>
        <time>2012-05-24T07:20:36Z</time>
      </trkpt>
      <trkpt lat="44.32433" lon="3.69239">
        <ele>1059.326</ele>
        <time>2012-05-24T07:20:51Z</time>
      </trkpt>
      <trkpt lat="44.32436" lon="3.69226">
        <ele>1059.819</ele>
        <time>2012-05-24T07:21:00Z</time>
      </trkpt>
      <trkpt lat="44.32439" lon="3.69218">
        <ele>1060.304</ele>
        <time>2012-05-24T07:21:29Z</time>
      </trkpt>
      <trkpt lat="44.32447" lon="3.69208">
        <ele>1060.601</ele>
        <time>2012-05-24T07:21:47Z</time>
      </trkpt>
      <trkpt lat="44.32459" lon="3.6918">
        <ele>1062.153</ele>
        <time>2012-05-24T07:22:10Z</time>
      </trkpt>
      <trkpt lat="44.32465" lon="3.69157">
        <ele>1063.407</ele>
        <time>2012-05-24T07:22:28Z</time>
      </trkpt>
      <trkpt lat="44.32474" lon="3.6913">
        <ele>1064.853</ele>
        <time>2012-05-24T07:22:49Z</time>
      </trkpt>
      <trkpt lat="44.32481" lon="3.69103">
        <ele>1066.445</ele>
        <time>2012-05-24T07:23:10Z</time>
      </trkpt>
      <trkpt lat="44.32482" lon="3.69074">
        <ele>1068.003</ele>
        <time>2012-05-24T07:23:33Z</time>
      </trkpt>
      <trkpt lat="44.32478" lon="3.69042">
        <ele>1069.302</ele>
        <time>2012-05-24T07:23:55Z</time>
      </trkpt>
      <trkpt lat="44.32474" lon="3.69007">
        <ele>1070.866</ele>
        <time>2012-05-24T07:24:20Z</time>
      </trkpt>
      <trkpt lat="44.32469" lon="3.68969">
        <ele>1071.534</ele>
        <time>2012-05-24T07:24:46Z</time>
      </trkpt>
      <trkpt lat="44.32462" lon="3.68935">
        <ele>1073.137</ele>
        <time>2012-05-24T07:25:10Z</time>
      </trkpt>
      <trkpt lat="44.32457" lon="3.68908">
        <ele>1074.372</ele>
        <time>2012-05-24T07:25:32Z</time>
      </trkpt>
      <trkpt lat="44.32455" lon="3.68889">
        <ele>1074.301</ele>
        <time>2012-05-24T07:26:04Z</time>
      </trkpt>
      <trkpt lat="44.32456" lon="3.68881">
        <ele>1074.824</ele>
        <time>2012-05-24T07:26:20Z</time>
      </trkpt>
      <trkpt lat="44.32459" lon="3.68845">
        <ele>1075.807</ele>
        <time>2012-05-24T07:26:45Z</time>
      </trkpt>
      <trkpt lat="44.32461" lon="3.68817">
        <ele>1076.132</ele>
        <time>2012-05-24T07:27:05Z</time>
      </trkpt>
      <trkpt lat="44.32469" lon="3.68782">
        <ele>1076.984</ele>
        <time>2012-05-24T07:27:29Z</time>
      </trkpt>
      <trkpt lat="44.32475" lon="3.68749">
        <ele>1077.704</ele>
        <time>2012-05-24T07:27:51Z</time>
      </trkpt>
      <trkpt lat="44.32481" lon="3.68719">
        <ele>1078.317</ele>
        <time>2012-05-24T07:28:12Z</time>
      </trkpt>
      <trkpt lat="44.32489" lon="3.68688">
        <ele>1078.83</ele>
        <time>2012-05-24T07:28:32Z</time>
      </trkpt>
      <trkpt lat="44.32502" lon="3.68649">
        <ele>1079.088</ele>
        <time>2012-05-24T07:28:57Z</time>
      </trkpt>
      <trkpt lat="44.32517" lon="3.68617">
        <ele>1078.825</ele>
        <time>2012-05-24T07:29:20Z</time>
      </trkpt>
      <trkpt lat="44.32526" lon="3.68602">
        <ele>1079.332</ele>
        <time>2012-05-24T07:29:32Z</time>
      </trkpt>
      <trkpt lat="44.32534" lon="3.68599">
        <ele>1079.476</ele>
        <time>2012-05-24T07:29:58Z</time>
      </trkpt>
      <trkpt lat="44.32544" lon="3.68595">
        <ele>1079.877</ele>
        <time>2012-05-24T07:30:08Z</time>
      </trkpt>
      <trkpt lat="44.32552" lon="3.68596">
        <ele>1080.424</ele>
        <time>2012-05-24T07:31:25Z</time>
      </trkpt>
      <trkpt lat="44.32553" lon="3.68592">
        <ele>1079.838</ele>
        <time>2012-05-24T07:36:01Z</time>
      </trkpt>
      <trkpt lat="44.32545" lon="3.68592">
        <ele>1080.054</ele>
        <time>2012-05-24T07:36:09Z</time>
      </trkpt>
      <trkpt lat="44.32541" lon="3.68587">
        <ele>1080.648</ele>
        <time>2012-05-24T07:37:01Z</time>
      </trkpt>
      <trkpt lat="44.32542" lon="3.68579">
        <ele>1080.593</ele>
        <time>2012-05-24T07:37:06Z</time>
      </trkpt>
      <trkpt lat="44.3255" lon="3.68562">
        <ele>1080.45</ele>
        <time>2012-05-24T07:38:06Z</time>
      </trkpt>
      <trkpt lat="44.32551" lon="3.68546">
        <ele>1080.176</ele>
        <time>2012-05-24T07:38:25Z</time>
      </trkpt>
      <trkpt lat="44.32555" lon="3.68528">
        <ele>1080.104</ele>
        <time>2012-05-24T07:38:45Z</time>
      </trkpt>
      <trkpt lat="44.32559" lon="3.68515">
        <ele>1079.66</ele>
        <time>2012-05-24T07:39:04Z</time>
      </trkpt>
      <trkpt lat="44.32561" lon="3.685">
        <ele>1080.393</ele>
        <time>2012-05-24T07:39:54Z</time>
      </trkpt>
      <trkpt lat="44.32565" lon="3.68484">
        <ele>1080.096</ele>
        <time>2012-05-24T07:40:12Z</time>
      </trkpt>
      <trkpt lat="44.32572" lon="3.68456">
        <ele>1079.586</ele>
        <time>2012-05-24T07:40:33Z</time>
      </trkpt>
      <trkpt lat="44.32573" lon="3.68449">
        <ele>1080.292</ele>
        <time>2012-05-24T07:40:38Z</time>
      </trkpt>
      <trkpt lat="44.32576" lon="3.68437">
        <ele>1079.799</ele>
        <time>2012-05-24T07:40:47Z</time>
      </trkpt>
      <trkpt lat="44.32575" lon="3.68427">
        <ele>1079.714</ele>
        <time>2012-05-24T07:40:54Z</time>
      </trkpt>
      <trkpt lat="44.32582" lon="3.68404">
        <ele>1079.785</ele>
        <time>2012-05-24T07:41:10Z</time>
      </trkpt>
      <trkpt lat="44.32587" lon="3.68383">
        <ele>1079.044</ele>
        <time>2012-05-24T07:41:25Z</time>
      </trkpt>
      <trkpt lat="44.3259" lon="3.68374">
        <ele>1078.981</ele>
        <time>2012-05-24T07:41:31Z</time>
      </trkpt>
      <trkpt lat="44.32593" lon="3.68365">
        <ele>1079.231</ele>
        <time>2012-05-24T07:41:37Z</time>
      </trkpt>
      <trkpt lat="44.32604" lon="3.68338">
        <ele>1078.952</ele>
        <time>2012-05-24T07:41:56Z</time>
      </trkpt>
      <trkpt lat="44.32607" lon="3.6833">
        <ele>1078.751</ele>
        <time>2012-05-24T07:42:02Z</time>
      </trkpt>
      <trkpt lat="44.32609" lon="3.68321">
        <ele>1078.562</ele>
        <time>2012-05-24T07:42:08Z</time>
      </trkpt>
      <trkpt lat="44.32614" lon="3.683">
        <ele>1078.14</ele>
        <time>2012-05-24T07:42:23Z</time>
      </trkpt>
      <trkpt lat="44.32621" lon="3.68273">
        <ele>1077.328</ele>
        <time>2012-05-24T07:42:42Z</time>
      </trkpt>
      <trkpt lat="44.32622" lon="3.6826">
        <ele>1077.115</ele>
        <time>2012-05-24T07:42:50Z</time>
      </trkpt>
      <trkpt lat="44.32624" lon="3.68229">
        <ele>1076.308</ele>
        <time>2012-05-24T07:43:09Z</time>
      </trkpt>
      <trkpt lat="44.32625" lon="3.68197">
        <ele>1075.784</ele>
        <time>2012-05-24T07:43:29Z</time>
      </trkpt>
      <trkpt lat="44.32626" lon="3.68167">
        <ele>1075.422</ele>
        <time>2012-05-24T07:43:49Z</time>
      </trkpt>
      <trkpt lat="44.32626" lon="3.68144">
        <ele>1075.152</ele>
        <time>2012-05-24T07:44:03Z</time>
      </trkpt>
      <trkpt lat="44.32628" lon="3.68124">
        <ele>1074.493</ele>
        <time>2012-05-24T07:44:17Z</time>
      </trkpt>
      <trkpt lat="44.32626" lon="3.681">
        <ele>1074.428</ele>
        <time>2012-05-24T07:44:31Z</time>
      </trkpt>
      <trkpt lat="44.32625" lon="3.68092">
        <ele>1074.385</ele>
        <time>2012-05-24T07:44:37Z</time>
      </trkpt>
      <trkpt lat="44.32625" lon="3.68087">
        <ele>1074.229</ele>
        <time>2012-05-24T07:44:40Z</time>
      </trkpt>
      <trkpt lat="44.32625" lon="3.6807">
        <ele>1073.818</ele>
        <time>2012-05-24T07:44:52Z</time>
      </trkpt>
      <trkpt lat="44.32624" lon="3.68065">
        <ele>1074.24</ele>
        <time>2012-05-24T07:44:56Z</time>
      </trkpt>
      <trkpt lat="44.32623" lon="3.68043">
        <ele>1073.931</ele>
        <time>2012-05-24T07:45:12Z</time>
      </trkpt>
      <trkpt lat="44.32624" lon="3.68023">
        <ele>1073.202</ele>
        <time>2012-05-24T07:45:22Z</time>
      </trkpt>
      <trkpt lat="44.32624" lon="3.68004">
        <ele>1073.385</ele>
        <time>2012-05-24T07:45:33Z</time>
      </trkpt>
      <trkpt lat="44.32623" lon="3.67976">
        <ele>1072.285</ele>
        <time>2012-05-24T07:45:50Z</time>
      </trkpt>
      <trkpt lat="44.32621" lon="3.67958">
        <ele>1072.58</ele>
        <time>2012-05-24T07:46:02Z</time>
      </trkpt>
      <trkpt lat="44.32621" lon="3.67939">
        <ele>1072.173</ele>
        <time>2012-05-24T07:46:14Z</time>
      </trkpt>
      <trkpt lat="44.32617" lon="3.67919">
        <ele>1071.896</ele>
        <time>2012-05-24T07:46:27Z</time>
      </trkpt>
      <trkpt lat="44.32615" lon="3.67906">
        <ele>1071.219</ele>
        <time>2012-05-24T07:46:36Z</time>
      </trkpt>
      <trkpt lat="44.32617" lon="3.67895">
        <ele>1071.466</ele>
        <time>2012-05-24T07:46:42Z</time>
      </trkpt>
      <trkpt lat="44.3262" lon="3.67876">
        <ele>1070.954</ele>
        <time>2012-05-24T07:46:53Z</time>
      </trkpt>
      <trkpt lat="44.32621" lon="3.67871">
        <ele>1070.569</ele>
        <time>2012-05-24T07:46:56Z</time>
      </trkpt>
      <trkpt lat="44.32623" lon="3.67859">
        <ele>1070.537</ele>
        <time>2012-05-24T07:47:03Z</time>
      </trkpt>
      <trkpt lat="44.32625" lon="3.67847">
        <ele>1070.082</ele>
        <time>2012-05-24T07:47:10Z</time>
      </trkpt>
      <trkpt lat="44.32626" lon="3.67844">
        <ele>1069.604</ele>
        <time>2012-05-24T07:47:12Z</time>
      </trkpt>
      <trkpt lat="44.32629" lon="3.67829">
        <ele>1069.39</ele>
        <time>2012-05-24T07:47:21Z</time>
      </trkpt>
      <trkpt lat="44.32629" lon="3.6782">
        <ele>1069.079</ele>
        <time>2012-05-24T07:47:26Z</time>
      </trkpt>
      <trkpt lat="44.32631" lon="3.67814">
        <ele>1069.298</ele>
        <time>2012-05-24T07:47:30Z</time>
      </trkpt>
      <trkpt lat="44.32636" lon="3.67806">
        <ele>1068.945</ele>
        <time>2012-05-24T07:47:37Z</time>
      </trkpt>
      <trkpt lat="44.32641" lon="3.6778">
        <ele>1068.559</ele>
        <time>2012-05-24T07:47:53Z</time>
      </trkpt>
      <trkpt lat="44.32642" lon="3.67778">
        <ele>1068.72</ele>
        <time>2012-05-24T07:47:55Z</time>
      </trkpt>
      <trkpt lat="44.32644" lon="3.67766">
        <ele>1068.594</ele>
        <time>2012-05-24T07:48:03Z</time>
      </trkpt>
      <trkpt lat="44.32648" lon="3.67759">
        <ele>1068.226</ele>
        <time>2012-05-24T07:48:08Z</time>
      </trkpt>
      <trkpt lat="44.32647" lon="3.67751">
        <ele>1068.164</ele>
        <time>2012-05-24T07:48:14Z</time>
      </trkpt>
      <trkpt lat="44.32652" lon="3.67727">
        <ele>1067.807</ele>
        <time>2012-05-24T07:48:28Z</time>
      </trkpt>
      <trkpt lat="44.32654" lon="3.67712">
        <ele>1067.125</ele>
        <time>2012-05-24T07:48:39Z</time>
      </trkpt>
      <trkpt lat="44.32658" lon="3.67683">
        <ele>1066.907</ele>
        <time>2012-05-24T07:48:57Z</time>
      </trkpt>
      <trkpt lat="44.32659" lon="3.67656">
        <ele>1066.356</ele>
        <time>2012-05-24T07:49:15Z</time>
      </trkpt>
      <trkpt lat="44.32659" lon="3.67636">
        <ele>1065.832</ele>
        <time>2012-05-24T07:49:27Z</time>
      </trkpt>
      <trkpt lat="44.32661" lon="3.67604">
        <ele>1065.873</ele>
        <time>2012-05-24T07:49:48Z</time>
      </trkpt>
      <trkpt lat="44.32661" lon="3.67592">
        <ele>1065.151</ele>
        <time>2012-05-24T07:49:55Z</time>
      </trkpt>
      <trkpt lat="44.32661" lon="3.67563">
        <ele>1065.329</ele>
        <time>2012-05-24T07:50:12Z</time>
      </trkpt>
      <trkpt lat="44.3266" lon="3.6756">
        <ele>1065.083</ele>
        <time>2012-05-24T07:50:14Z</time>
      </trkpt>
      <trkpt lat="44.32661" lon="3.67556">
        <ele>1065.032</ele>
        <time>2012-05-24T07:50:16Z</time>
      </trkpt>
      <trkpt lat="44.3266" lon="3.67546">
        <ele>1064.349</ele>
        <time>2012-05-24T07:50:22Z</time>
      </trkpt>
      <trkpt lat="44.32655" lon="3.67515">
        <ele>1063.964</ele>
        <time>2012-05-24T07:50:43Z</time>
      </trkpt>
      <trkpt lat="44.3265" lon="3.67482">
        <ele>1063.236</ele>
        <time>2012-05-24T07:51:03Z</time>
      </trkpt>
      <trkpt lat="44.32638" lon="3.67445">
        <ele>1062.38</ele>
        <time>2012-05-24T07:51:28Z</time>
      </trkpt>
      <trkpt lat="44.32631" lon="3.67428">
        <ele>1062.295</ele>
        <time>2012-05-24T07:51:42Z</time>
      </trkpt>
      <trkpt lat="44.32624" lon="3.67416">
        <ele>1061.718</ele>
        <time>2012-05-24T07:51:51Z</time>
      </trkpt>
      <trkpt lat="44.32623" lon="3.6741">
        <ele>1061.653</ele>
        <time>2012-05-24T07:51:55Z</time>
      </trkpt>
      <trkpt lat="44.32609" lon="3.67384">
        <ele>1061.114</ele>
        <time>2012-05-24T07:52:14Z</time>
      </trkpt>
      <trkpt lat="44.326" lon="3.67373">
        <ele>1060.324</ele>
        <time>2012-05-24T07:52:25Z</time>
      </trkpt>
      <trkpt lat="44.3259" lon="3.67354">
        <ele>1059.571</ele>
        <time>2012-05-24T07:52:44Z</time>
      </trkpt>
      <trkpt lat="44.32588" lon="3.67351">
        <ele>1060.117</ele>
        <time>2012-05-24T07:52:47Z</time>
      </trkpt>
      <trkpt lat="44.32565" lon="3.67328">
        <ele>1059.166</ele>
        <time>2012-05-24T07:53:11Z</time>
      </trkpt>
      <trkpt lat="44.32546" lon="3.67307">
        <ele>1058.547</ele>
        <time>2012-05-24T07:53:30Z</time>
      </trkpt>
      <trkpt lat="44.32524" lon="3.67273">
        <ele>1057.856</ele>
        <time>2012-05-24T07:53:56Z</time>
      </trkpt>
      <trkpt lat="44.3251" lon="3.67237">
        <ele>1056.879</ele>
        <time>2012-05-24T07:54:20Z</time>
      </trkpt>
      <trkpt lat="44.32493" lon="3.67202">
        <ele>1056.521</ele>
        <time>2012-05-24T07:54:44Z</time>
      </trkpt>
      <trkpt lat="44.32483" lon="3.67158">
        <ele>1055.349</ele>
        <time>2012-05-24T07:55:10Z</time>
      </trkpt>
      <trkpt lat="44.3249" lon="3.67117">
        <ele>1054.651</ele>
        <time>2012-05-24T07:55:34Z</time>
      </trkpt>
      <trkpt lat="44.32496" lon="3.67085">
        <ele>1053.972</ele>
        <time>2012-05-24T07:55:54Z</time>
      </trkpt>
      <trkpt lat="44.32497" lon="3.67055">
        <ele>1053.584</ele>
        <time>2012-05-24T07:56:19Z</time>
      </trkpt>
      <trkpt lat="44.3248" lon="3.6703">
        <ele>1052.857</ele>
        <time>2012-05-24T07:56:38Z</time>
      </trkpt>
      <trkpt lat="44.32478" lon="3.67027">
        <ele>1052.094</ele>
        <time>2012-05-24T07:56:40Z</time>
      </trkpt>
      <trkpt lat="44.32468" lon="3.6699">
        <ele>1051.932</ele>
        <time>2012-05-24T07:57:02Z</time>
      </trkpt>
      <trkpt lat="44.32464" lon="3.66969">
        <ele>1051.469</ele>
        <time>2012-05-24T07:57:14Z</time>
      </trkpt>
      <trkpt lat="44.32462" lon="3.66967">
        <ele>1050.956</ele>
        <time>2012-05-24T07:57:16Z</time>
      </trkpt>
      <trkpt lat="44.32459" lon="3.66954">
        <ele>1052.281</ele>
        <time>2012-05-24T07:57:39Z</time>
      </trkpt>
      <trkpt lat="44.32463" lon="3.66947">
        <ele>1051.059</ele>
        <time>2012-05-24T07:57:45Z</time>
      </trkpt>
      <trkpt lat="44.32466" lon="3.66922">
        <ele>1051.038</ele>
        <time>2012-05-24T07:58:00Z</time>
      </trkpt>
      <trkpt lat="44.3247" lon="3.6689">
        <ele>1050.819</ele>
        <time>2012-05-24T07:58:19Z</time>
      </trkpt>
      <trkpt lat="44.32478" lon="3.66853">
        <ele>1049.665</ele>
        <time>2012-05-24T07:58:40Z</time>
      </trkpt>
      <trkpt lat="44.32482" lon="3.66813">
        <ele>1049.113</ele>
        <time>2012-05-24T07:59:02Z</time>
      </trkpt>
      <trkpt lat="44.32482" lon="3.66783">
        <ele>1049.106</ele>
        <time>2012-05-24T07:59:19Z</time>
      </trkpt>
      <trkpt lat="44.32483" lon="3.66739">
        <ele>1048.4</ele>
        <time>2012-05-24T07:59:42Z</time>
      </trkpt>
      <trkpt lat="44.32487" lon="3.66711">
        <ele>1047.473</ele>
        <time>2012-05-24T07:59:58Z</time>
      </trkpt>
      <trkpt lat="44.32488" lon="3.66707">
        <ele>1047.378</ele>
        <time>2012-05-24T08:00:01Z</time>
      </trkpt>
      <trkpt lat="44.32495" lon="3.66685">
        <ele>1046.888</ele>
        <time>2012-05-24T08:00:15Z</time>
      </trkpt>
      <trkpt lat="44.32497" lon="3.66682">
        <ele>1047.158</ele>
        <time>2012-05-24T08:00:18Z</time>
      </trkpt>
      <trkpt lat="44.325" lon="3.6668">
        <ele>1047.371</ele>
        <time>2012-05-24T08:00:20Z</time>
      </trkpt>
      <trkpt lat="44.32503" lon="3.66668">
        <ele>1046.923</ele>
        <time>2012-05-24T08:00:30Z</time>
      </trkpt>
      <trkpt lat="44.32506" lon="3.66662">
        <ele>1046.656</ele>
        <time>2012-05-24T08:00:34Z</time>
      </trkpt>
      <trkpt lat="44.32508" lon="3.66657">
        <ele>1046.097</ele>
        <time>2012-05-24T08:00:38Z</time>
      </trkpt>
      <trkpt lat="44.32509" lon="3.66652">
        <ele>1046.705</ele>
        <time>2012-05-24T08:00:41Z</time>
      </trkpt>
      <trkpt lat="44.32523" lon="3.66623">
        <ele>1046.15</ele>
        <time>2012-05-24T08:00:56Z</time>
      </trkpt>
      <trkpt lat="44.32524" lon="3.66617">
        <ele>1046.156</ele>
        <time>2012-05-24T08:01:00Z</time>
      </trkpt>
      <trkpt lat="44.32527" lon="3.66609">
        <ele>1046.009</ele>
        <time>2012-05-24T08:01:06Z</time>
      </trkpt>
      <trkpt lat="44.32534" lon="3.666">
        <ele>1045.852</ele>
        <time>2012-05-24T08:01:14Z</time>
      </trkpt>
      <trkpt lat="44.32535" lon="3.66596">
        <ele>1045.58</ele>
        <time>2012-05-24T08:01:16Z</time>
      </trkpt>
      <trkpt lat="44.32537" lon="3.66591">
        <ele>1045.607</ele>
        <time>2012-05-24T08:01:19Z</time>
      </trkpt>
      <trkpt lat="44.32548" lon="3.66573">
        <ele>1045.376</ele>
        <time>2012-05-24T08:01:33Z</time>
      </trkpt>
      <trkpt lat="44.32556" lon="3.66562">
        <ele>1044.865</ele>
        <time>2012-05-24T08:01:46Z</time>
      </trkpt>
      <trkpt lat="44.32563" lon="3.66548">
        <ele>1044.952</ele>
        <time>2012-05-24T08:02:00Z</time>
      </trkpt>
      <trkpt lat="44.32564" lon="3.66544">
        <ele>1044.44</ele>
        <time>2012-05-24T08:02:03Z</time>
      </trkpt>
      <trkpt lat="44.32581" lon="3.66514">
        <ele>1044.756</ele>
        <time>2012-05-24T08:02:20Z</time>
      </trkpt>
      <trkpt lat="44.32585" lon="3.66506">
        <ele>1044.39</ele>
        <time>2012-05-24T08:02:24Z</time>
      </trkpt>
      <trkpt lat="44.32591" lon="3.66496">
        <ele>1044.275</ele>
        <time>2012-05-24T08:02:32Z</time>
      </trkpt>
      <trkpt lat="44.32598" lon="3.66482">
        <ele>1044.174</ele>
        <time>2012-05-24T08:02:47Z</time>
      </trkpt>
      <trkpt lat="44.32613" lon="3.66458">
        <ele>1043.775</ele>
        <time>2012-05-24T08:03:06Z</time>
      </trkpt>
      <trkpt lat="44.32625" lon="3.66439">
        <ele>1042.869</ele>
        <time>2012-05-24T08:03:23Z</time>
      </trkpt>
      <trkpt lat="44.32634" lon="3.66429">
        <ele>1043.013</ele>
        <time>2012-05-24T08:03:35Z</time>
      </trkpt>
      <trkpt lat="44.32635" lon="3.66427">
        <ele>1043.155</ele>
        <time>2012-05-24T08:03:37Z</time>
      </trkpt>
      <trkpt lat="44.32638" lon="3.66421">
        <ele>1042.856</ele>
        <time>2012-05-24T08:03:43Z</time>
      </trkpt>
      <trkpt lat="44.32649" lon="3.66409">
        <ele>1042.448</ele>
        <time>2012-05-24T08:03:57Z</time>
      </trkpt>
      <trkpt lat="44.32654" lon="3.66391">
        <ele>1042.401</ele>
        <time>2012-05-24T08:04:10Z</time>
      </trkpt>
      <trkpt lat="44.32655" lon="3.66386">
        <ele>1042.271</ele>
        <time>2012-05-24T08:04:14Z</time>
      </trkpt>
      <trkpt lat="44.3266" lon="3.66377">
        <ele>1041.716</ele>
        <time>2012-05-24T08:04:21Z</time>
      </trkpt>
      <trkpt lat="44.32666" lon="3.66372">
        <ele>1041.84</ele>
        <time>2012-05-24T08:04:29Z</time>
      </trkpt>
      <trkpt lat="44.32673" lon="3.6636">
        <ele>1041.49</ele>
        <time>2012-05-24T08:04:42Z</time>
      </trkpt>
      <trkpt lat="44.32685" lon="3.66344">
        <ele>1041.464</ele>
        <time>2012-05-24T08:04:50Z</time>
      </trkpt>
      <trkpt lat="44.32699" lon="3.66334">
        <ele>1041.272</ele>
        <time>2012-05-24T08:05:07Z</time>
      </trkpt>
      <trkpt lat="44.32711" lon="3.66333">
        <ele>1040.556</ele>
        <time>2012-05-24T08:05:20Z</time>
      </trkpt>
      <trkpt lat="44.32721" lon="3.66329">
        <ele>1040.134</ele>
        <time>2012-05-24T08:05:33Z</time>
      </trkpt>
      <trkpt lat="44.32727" lon="3.66331">
        <ele>1039.856</ele>
        <time>2012-05-24T08:05:37Z</time>
      </trkpt>
      <trkpt lat="44.32732" lon="3.66335">
        <ele>1039.692</ele>
        <time>2012-05-24T08:05:41Z</time>
      </trkpt>
      <trkpt lat="44.32734" lon="3.66335">
        <ele>1039.31</ele>
        <time>2012-05-24T08:05:43Z</time>
      </trkpt>
      <trkpt lat="44.32743" lon="3.66336">
        <ele>1039.487</ele>
        <time>2012-05-24T08:05:50Z</time>
      </trkpt>
      <trkpt lat="44.32751" lon="3.66335">
        <ele>1039.092</ele>
        <time>2012-05-24T08:05:58Z</time>
      </trkpt>
      <trkpt lat="44.32754" lon="3.66333">
        <ele>1038.995</ele>
        <time>2012-05-24T08:06:01Z</time>
      </trkpt>
      <trkpt lat="44.32759" lon="3.66331">
        <ele>1039.263</ele>
        <time>2012-05-24T08:06:05Z</time>
      </trkpt>
      <trkpt lat="44.32778" lon="3.66327">
        <ele>1038.343</ele>
        <time>2012-05-24T08:06:20Z</time>
      </trkpt>
      <trkpt lat="44.32789" lon="3.66315">
        <ele>1038.458</ele>
        <time>2012-05-24T08:06:28Z</time>
      </trkpt>
      <trkpt lat="44.32795" lon="3.66309">
        <ele>1037.9</ele>
        <time>2012-05-24T08:06:33Z</time>
      </trkpt>
      <trkpt lat="44.32798" lon="3.66307">
        <ele>1038.139</ele>
        <time>2012-05-24T08:06:35Z</time>
      </trkpt>
      <trkpt lat="44.32803" lon="3.663">
        <ele>1038.002</ele>
        <time>2012-05-24T08:06:41Z</time>
      </trkpt>
      <trkpt lat="44.32805" lon="3.66294">
        <ele>1038.333</ele>
        <time>2012-05-24T08:06:45Z</time>
      </trkpt>
      <trkpt lat="44.32807" lon="3.66287">
        <ele>1037.477</ele>
        <time>2012-05-24T08:06:50Z</time>
      </trkpt>
      <trkpt lat="44.32808" lon="3.66277">
        <ele>1037.461</ele>
        <time>2012-05-24T08:06:56Z</time>
      </trkpt>
      <trkpt lat="44.32809" lon="3.66271">
        <ele>1037.215</ele>
        <time>2012-05-24T08:07:00Z</time>
      </trkpt>
      <trkpt lat="44.32811" lon="3.66251">
        <ele>1036.754</ele>
        <time>2012-05-24T08:07:15Z</time>
      </trkpt>
      <trkpt lat="44.32812" lon="3.66248">
        <ele>1036.558</ele>
        <time>2012-05-24T08:07:17Z</time>
      </trkpt>
      <trkpt lat="44.32815" lon="3.66228">
        <ele>1036.401</ele>
        <time>2012-05-24T08:07:29Z</time>
      </trkpt>
      <trkpt lat="44.3282" lon="3.66219">
        <ele>1036.36</ele>
        <time>2012-05-24T08:12:54Z</time>
      </trkpt>
      <trkpt lat="44.32818" lon="3.66214">
        <ele>1036.259</ele>
        <time>2012-05-24T08:13:35Z</time>
      </trkpt>
      <trkpt lat="44.32818" lon="3.6621">
        <ele>1036.339</ele>
        <time>2012-05-24T08:13:39Z</time>
      </trkpt>
      <trkpt lat="44.32808" lon="3.66182">
        <ele>1035.823</ele>
        <time>2012-05-24T08:14:01Z</time>
      </trkpt>
      <trkpt lat="44.32807" lon="3.66176">
        <ele>1035.642</ele>
        <time>2012-05-24T08:14:05Z</time>
      </trkpt>
      <trkpt lat="44.32806" lon="3.66171">
        <ele>1035.599</ele>
        <time>2012-05-24T08:14:09Z</time>
      </trkpt>
      <trkpt lat="44.32807" lon="3.66169">
        <ele>1035.83</ele>
        <time>2012-05-24T08:14:11Z</time>
      </trkpt>
      <trkpt lat="44.32806" lon="3.66161">
        <ele>1035.744</ele>
        <time>2012-05-24T08:14:15Z</time>
      </trkpt>
      <trkpt lat="44.32807" lon="3.66158">
        <ele>1035.903</ele>
        <time>2012-05-24T08:14:17Z</time>
      </trkpt>
      <trkpt lat="44.32808" lon="3.66139">
        <ele>1036.286</ele>
        <time>2012-05-24T08:14:29Z</time>
      </trkpt>
      <trkpt lat="44.32807" lon="3.66124">
        <ele>1037.133</ele>
        <time>2012-05-24T08:14:38Z</time>
      </trkpt>
      <trkpt lat="44.32808" lon="3.66114">
        <ele>1037.233</ele>
        <time>2012-05-24T08:14:44Z</time>
      </trkpt>
      <trkpt lat="44.32808" lon="3.6611">
        <ele>1036.977</ele>
        <time>2012-05-24T08:14:47Z</time>
      </trkpt>
      <trkpt lat="44.32808" lon="3.66107">
        <ele>1037.135</ele>
        <time>2012-05-24T08:14:49Z</time>
      </trkpt>
      <trkpt lat="44.32808" lon="3.66097">
        <ele>1037.764</ele>
        <time>2012-05-24T08:14:56Z</time>
      </trkpt>
      <trkpt lat="44.32814" lon="3.66082">
        <ele>1038.031</ele>
        <time>2012-05-24T08:15:05Z</time>
      </trkpt>
      <trkpt lat="44.32818" lon="3.66078">
        <ele>1037.384</ele>
        <time>2012-05-24T08:15:09Z</time>
      </trkpt>
      <trkpt lat="44.3284" lon="3.66051">
        <ele>1037.188</ele>
        <time>2012-05-24T08:15:32Z</time>
      </trkpt>
      <trkpt lat="44.32842" lon="3.66049">
        <ele>1036.617</ele>
        <time>2012-05-24T08:15:34Z</time>
      </trkpt>
      <trkpt lat="44.32854" lon="3.66033">
        <ele>1036.658</ele>
        <time>2012-05-24T08:15:49Z</time>
      </trkpt>
      <trkpt lat="44.32863" lon="3.66003">
        <ele>1036.076</ele>
        <time>2012-05-24T08:16:08Z</time>
      </trkpt>
      <trkpt lat="44.32865" lon="3.65995">
        <ele>1036.186</ele>
        <time>2012-05-24T08:16:13Z</time>
      </trkpt>
      <trkpt lat="44.32876" lon="3.65965">
        <ele>1035.415</ele>
        <time>2012-05-24T08:16:33Z</time>
      </trkpt>
      <trkpt lat="44.32886" lon="3.6594">
        <ele>1034.925</ele>
        <time>2012-05-24T08:16:49Z</time>
      </trkpt>
      <trkpt lat="44.32889" lon="3.65931">
        <ele>1035.082</ele>
        <time>2012-05-24T08:16:54Z</time>
      </trkpt>
      <trkpt lat="44.32891" lon="3.65918">
        <ele>1034.879</ele>
        <time>2012-05-24T08:17:02Z</time>
      </trkpt>
      <trkpt lat="44.32893" lon="3.65912">
        <ele>1034.346</ele>
        <time>2012-05-24T08:17:06Z</time>
      </trkpt>
      <trkpt lat="44.32901" lon="3.65888">
        <ele>1034.224</ele>
        <time>2012-05-24T08:17:22Z</time>
      </trkpt>
      <trkpt lat="44.32902" lon="3.65876">
        <ele>1034.032</ele>
        <time>2012-05-24T08:17:29Z</time>
      </trkpt>
      <trkpt lat="44.32898" lon="3.65842">
        <ele>1033.19</ele>
        <time>2012-05-24T08:17:48Z</time>
      </trkpt>
      <trkpt lat="44.32899" lon="3.65812">
        <ele>1032.778</ele>
        <time>2012-05-24T08:18:06Z</time>
      </trkpt>
      <trkpt lat="44.32901" lon="3.65807">
        <ele>1033.153</ele>
        <time>2012-05-24T08:18:09Z</time>
      </trkpt>
      <trkpt lat="44.32903" lon="3.65805">
        <ele>1033.094</ele>
        <time>2012-05-24T08:18:11Z</time>
      </trkpt>
      <trkpt lat="44.32921" lon="3.65777">
        <ele>1031.791</ele>
        <time>2012-05-24T08:18:33Z</time>
      </trkpt>
      <trkpt lat="44.32922" lon="3.65753">
        <ele>1031.195</ele>
        <time>2012-05-24T08:18:46Z</time>
      </trkpt>
      <trkpt lat="44.32922" lon="3.65748">
        <ele>1030.828</ele>
        <time>2012-05-24T08:18:49Z</time>
      </trkpt>
      <trkpt lat="44.32923" lon="3.65742">
        <ele>1030.666</ele>
        <time>2012-05-24T08:18:53Z</time>
      </trkpt>
      <trkpt lat="44.32924" lon="3.65737">
        <ele>1030.708</ele>
        <time>2012-05-24T08:18:56Z</time>
      </trkpt>
      <trkpt lat="44.32926" lon="3.65732">
        <ele>1030.788</ele>
        <time>2012-05-24T08:18:59Z</time>
      </trkpt>
      <trkpt lat="44.32931" lon="3.65721">
        <ele>1030.538</ele>
        <time>2012-05-24T08:19:06Z</time>
      </trkpt>
      <trkpt lat="44.32935" lon="3.65706">
        <ele>1030.734</ele>
        <time>2012-05-24T08:19:16Z</time>
      </trkpt>
      <trkpt lat="44.32934" lon="3.65678">
        <ele>1029.834</ele>
        <time>2012-05-24T08:19:32Z</time>
      </trkpt>
      <trkpt lat="44.32931" lon="3.65671">
        <ele>1029.481</ele>
        <time>2012-05-24T08:20:51Z</time>
      </trkpt>
      <trkpt lat="44.32928" lon="3.6565">
        <ele>1029.257</ele>
        <time>2012-05-24T08:21:06Z</time>
      </trkpt>
      <trkpt lat="44.3292" lon="3.65621">
        <ele>1028.88</ele>
        <time>2012-05-24T08:21:27Z</time>
      </trkpt>
      <trkpt lat="44.32917" lon="3.65613">
        <ele>1028.611</ele>
        <time>2012-05-24T08:21:34Z</time>
      </trkpt>
      <trkpt lat="44.32913" lon="3.65603">
        <ele>1028.785</ele>
        <time>2012-05-24T08:21:41Z</time>
      </trkpt>
      <trkpt lat="44.32906" lon="3.65589">
        <ele>1028.276</ele>
        <time>2012-05-24T08:21:53Z</time>
      </trkpt>
      <trkpt lat="44.32903" lon="3.65583">
        <ele>1028.053</ele>
        <time>2012-05-24T08:21:58Z</time>
      </trkpt>
      <trkpt lat="44.32901" lon="3.65576">
        <ele>1027.909</ele>
        <time>2012-05-24T08:22:02Z</time>
      </trkpt>
      <trkpt lat="44.32899" lon="3.65571">
        <ele>1027.854</ele>
        <time>2012-05-24T08:22:05Z</time>
      </trkpt>
      <trkpt lat="44.32889" lon="3.65559">
        <ele>1027.602</ele>
        <time>2012-05-24T08:22:15Z</time>
      </trkpt>
      <trkpt lat="44.32875" lon="3.65545">
        <ele>1027.06</ele>
        <time>2012-05-24T08:22:28Z</time>
      </trkpt>
      <trkpt lat="44.32872" lon="3.65535">
        <ele>1026.49</ele>
        <time>2012-05-24T08:22:34Z</time>
      </trkpt>
      <trkpt lat="44.32872" lon="3.65527">
        <ele>1025.906</ele>
        <time>2012-05-24T08:22:54Z</time>
      </trkpt>
      <trkpt lat="44.32868" lon="3.65516">
        <ele>1026.007</ele>
        <time>2012-05-24T08:23:01Z</time>
      </trkpt>
      <trkpt lat="44.32862" lon="3.6548">
        <ele>1023.768</ele>
        <time>2012-05-24T08:23:23Z</time>
      </trkpt>
      <trkpt lat="44.32852" lon="3.65441">
        <ele>1021.933</ele>
        <time>2012-05-24T08:23:47Z</time>
      </trkpt>
      <trkpt lat="44.3284" lon="3.65409">
        <ele>1020.493</ele>
        <time>2012-05-24T08:24:07Z</time>
      </trkpt>
      <trkpt lat="44.3284" lon="3.654">
        <ele>1019.193</ele>
        <time>2012-05-24T08:24:25Z</time>
      </trkpt>
      <trkpt lat="44.32838" lon="3.65398">
        <ele>1019.308</ele>
        <time>2012-05-24T08:24:28Z</time>
      </trkpt>
      <trkpt lat="44.32836" lon="3.65393">
        <ele>1019.269</ele>
        <time>2012-05-24T08:24:32Z</time>
      </trkpt>
      <trkpt lat="44.32834" lon="3.65373">
        <ele>1018.321</ele>
        <time>2012-05-24T08:24:47Z</time>
      </trkpt>
      <trkpt lat="44.32834" lon="3.65357">
        <ele>1016.912</ele>
        <time>2012-05-24T08:24:56Z</time>
      </trkpt>
      <trkpt lat="44.32838" lon="3.65349">
        <ele>1016.782</ele>
        <time>2012-05-24T08:25:01Z</time>
      </trkpt>
      <trkpt lat="44.32846" lon="3.65335">
        <ele>1016.008</ele>
        <time>2012-05-24T08:25:12Z</time>
      </trkpt>
      <trkpt lat="44.32856" lon="3.65324">
        <ele>1015.119</ele>
        <time>2012-05-24T08:25:22Z</time>
      </trkpt>
      <trkpt lat="44.32869" lon="3.65314">
        <ele>1014.124</ele>
        <time>2012-05-24T08:25:34Z</time>
      </trkpt>
      <trkpt lat="44.32888" lon="3.653">
        <ele>1012.693</ele>
        <time>2012-05-24T08:25:50Z</time>
      </trkpt>
      <trkpt lat="44.3289" lon="3.65297">
        <ele>1012.435</ele>
        <time>2012-05-24T08:25:53Z</time>
      </trkpt>
      <trkpt lat="44.32908" lon="3.65279">
        <ele>1011.408</ele>
        <time>2012-05-24T08:26:09Z</time>
      </trkpt>
      <trkpt lat="44.3292" lon="3.65267">
        <ele>1010.44</ele>
        <time>2012-05-24T08:26:21Z</time>
      </trkpt>
      <trkpt lat="44.32934" lon="3.65258">
        <ele>1009.971</ele>
        <time>2012-05-24T08:26:34Z</time>
      </trkpt>
      <trkpt lat="44.32947" lon="3.65245">
        <ele>1008.637</ele>
        <time>2012-05-24T08:26:46Z</time>
      </trkpt>
      <trkpt lat="44.32953" lon="3.65235">
        <ele>1007.713</ele>
        <time>2012-05-24T08:26:54Z</time>
      </trkpt>
      <trkpt lat="44.32954" lon="3.65222">
        <ele>1007.185</ele>
        <time>2012-05-24T08:27:36Z</time>
      </trkpt>
      <trkpt lat="44.32957" lon="3.65215">
        <ele>1007.334</ele>
        <time>2012-05-24T08:27:41Z</time>
      </trkpt>
      <trkpt lat="44.32976" lon="3.6519">
        <ele>1004.765</ele>
        <time>2012-05-24T08:28:03Z</time>
      </trkpt>
      <trkpt lat="44.32987" lon="3.65172">
        <ele>1003.407</ele>
        <time>2012-05-24T08:28:17Z</time>
      </trkpt>
      <trkpt lat="44.3299" lon="3.65164">
        <ele>1003.702</ele>
        <time>2012-05-24T08:28:23Z</time>
      </trkpt>
      <trkpt lat="44.32995" lon="3.65133">
        <ele>1002.767</ele>
        <time>2012-05-24T08:28:38Z</time>
      </trkpt>
      <trkpt lat="44.32996" lon="3.6513">
        <ele>1002.52</ele>
        <time>2012-05-24T08:28:40Z</time>
      </trkpt>
      <trkpt lat="44.32995" lon="3.65122">
        <ele>1002.123</ele>
        <time>2012-05-24T08:28:45Z</time>
      </trkpt>
      <trkpt lat="44.32994" lon="3.6511">
        <ele>1001.395</ele>
        <time>2012-05-24T08:28:52Z</time>
      </trkpt>
      <trkpt lat="44.32993" lon="3.65099">
        <ele>1001.003</ele>
        <time>2012-05-24T08:28:58Z</time>
      </trkpt>
      <trkpt lat="44.3299" lon="3.65078">
        <ele>999.684</ele>
        <time>2012-05-24T08:29:11Z</time>
      </trkpt>
      <trkpt lat="44.32989" lon="3.65061">
        <ele>999.177</ele>
        <time>2012-05-24T08:29:25Z</time>
      </trkpt>
      <trkpt lat="44.32986" lon="3.65054">
        <ele>998.412</ele>
        <time>2012-05-24T08:29:31Z</time>
      </trkpt>
      <trkpt lat="44.32982" lon="3.65047">
        <ele>998.168</ele>
        <time>2012-05-24T08:29:36Z</time>
      </trkpt>
      <trkpt lat="44.32979" lon="3.65044">
        <ele>997.765</ele>
        <time>2012-05-24T08:29:39Z</time>
      </trkpt>
      <trkpt lat="44.32978" lon="3.65042">
        <ele>997.353</ele>
        <time>2012-05-24T08:29:43Z</time>
      </trkpt>
      <trkpt lat="44.32973" lon="3.65042">
        <ele>996.787</ele>
        <time>2012-05-24T08:29:47Z</time>
      </trkpt>
      <trkpt lat="44.32967" lon="3.65041">
        <ele>996.647</ele>
        <time>2012-05-24T08:29:52Z</time>
      </trkpt>
      <trkpt lat="44.32965" lon="3.6504">
        <ele>995.954</ele>
        <time>2012-05-24T08:29:54Z</time>
      </trkpt>
      <trkpt lat="44.32954" lon="3.65022">
        <ele>994.979</ele>
        <time>2012-05-24T08:30:07Z</time>
      </trkpt>
      <trkpt lat="44.32944" lon="3.65018">
        <ele>993.69</ele>
        <time>2012-05-24T08:30:14Z</time>
      </trkpt>
      <trkpt lat="44.32936" lon="3.65011">
        <ele>993.411</ele>
        <time>2012-05-24T08:30:22Z</time>
      </trkpt>
      <trkpt lat="44.3293" lon="3.64997">
        <ele>992.049</ele>
        <time>2012-05-24T08:30:31Z</time>
      </trkpt>
      <trkpt lat="44.32921" lon="3.6499">
        <ele>991.101</ele>
        <time>2012-05-24T08:30:39Z</time>
      </trkpt>
      <trkpt lat="44.32914" lon="3.64989">
        <ele>990.855</ele>
        <time>2012-05-24T08:30:44Z</time>
      </trkpt>
      <trkpt lat="44.32911" lon="3.64985">
        <ele>990.402</ele>
        <time>2012-05-24T08:30:47Z</time>
      </trkpt>
      <trkpt lat="44.32907" lon="3.64981">
        <ele>990.278</ele>
        <time>2012-05-24T08:30:51Z</time>
      </trkpt>
      <trkpt lat="44.32897" lon="3.64962">
        <ele>989.075</ele>
        <time>2012-05-24T08:31:04Z</time>
      </trkpt>
      <trkpt lat="44.32894" lon="3.64962">
        <ele>988.964</ele>
        <time>2012-05-24T08:31:05Z</time>
      </trkpt>
      <trkpt lat="44.32889" lon="3.64956">
        <ele>988.476</ele>
        <time>2012-05-24T08:31:11Z</time>
      </trkpt>
      <trkpt lat="44.32883" lon="3.64945">
        <ele>987.944</ele>
        <time>2012-05-24T08:31:18Z</time>
      </trkpt>
      <trkpt lat="44.32878" lon="3.64939">
        <ele>987.157</ele>
        <time>2012-05-24T08:31:23Z</time>
      </trkpt>
      <trkpt lat="44.32884" lon="3.64923">
        <ele>987.21</ele>
        <time>2012-05-24T08:31:26Z</time>
      </trkpt>
      <trkpt lat="44.32882" lon="3.64919">
        <ele>986.978</ele>
        <time>2012-05-24T08:31:29Z</time>
      </trkpt>
      <trkpt lat="44.32872" lon="3.64903">
        <ele>985.895</ele>
        <time>2012-05-24T08:31:42Z</time>
      </trkpt>
      <trkpt lat="44.32868" lon="3.64896">
        <ele>985.278</ele>
        <time>2012-05-24T08:31:56Z</time>
      </trkpt>
      <trkpt lat="44.32869" lon="3.64881">
        <ele>984.715</ele>
        <time>2012-05-24T08:32:22Z</time>
      </trkpt>
      <trkpt lat="44.32868" lon="3.64878">
        <ele>984.528</ele>
        <time>2012-05-24T08:32:24Z</time>
      </trkpt>
      <trkpt lat="44.32868" lon="3.64847">
        <ele>983.459</ele>
        <time>2012-05-24T08:32:40Z</time>
      </trkpt>
      <trkpt lat="44.32868" lon="3.64811">
        <ele>981.672</ele>
        <time>2012-05-24T08:33:01Z</time>
      </trkpt>
      <trkpt lat="44.3287" lon="3.6478">
        <ele>980.273</ele>
        <time>2012-05-24T08:33:18Z</time>
      </trkpt>
      <trkpt lat="44.32875" lon="3.64762">
        <ele>979.314</ele>
        <time>2012-05-24T08:33:29Z</time>
      </trkpt>
      <trkpt lat="44.3288" lon="3.6474">
        <ele>978.367</ele>
        <time>2012-05-24T08:33:42Z</time>
      </trkpt>
      <trkpt lat="44.3289" lon="3.64719">
        <ele>977.803</ele>
        <time>2012-05-24T08:33:56Z</time>
      </trkpt>
      <trkpt lat="44.32905" lon="3.64696">
        <ele>976.109</ele>
        <time>2012-05-24T08:34:13Z</time>
      </trkpt>
      <trkpt lat="44.32915" lon="3.64681">
        <ele>974.996</ele>
        <time>2012-05-24T08:34:24Z</time>
      </trkpt>
      <trkpt lat="44.32935" lon="3.6466">
        <ele>974.072</ele>
        <time>2012-05-24T08:34:43Z</time>
      </trkpt>
      <trkpt lat="44.32954" lon="3.64631">
        <ele>972.671</ele>
        <time>2012-05-24T08:35:06Z</time>
      </trkpt>
      <trkpt lat="44.32956" lon="3.64629">
        <ele>972.221</ele>
        <time>2012-05-24T08:35:08Z</time>
      </trkpt>
      <trkpt lat="44.32957" lon="3.64626">
        <ele>972.436</ele>
        <time>2012-05-24T08:35:10Z</time>
      </trkpt>
      <trkpt lat="44.32975" lon="3.646">
        <ele>971.23</ele>
        <time>2012-05-24T08:35:31Z</time>
      </trkpt>
      <trkpt lat="44.32983" lon="3.6457">
        <ele>970.785</ele>
        <time>2012-05-24T08:35:48Z</time>
      </trkpt>
      <trkpt lat="44.32985" lon="3.64555">
        <ele>970.074</ele>
        <time>2012-05-24T08:35:57Z</time>
      </trkpt>
      <trkpt lat="44.32989" lon="3.64515">
        <ele>967.378</ele>
        <time>2012-05-24T08:36:20Z</time>
      </trkpt>
      <trkpt lat="44.32987" lon="3.64478">
        <ele>966.216</ele>
        <time>2012-05-24T08:36:40Z</time>
      </trkpt>
      <trkpt lat="44.32987" lon="3.64474">
        <ele>965.6</ele>
        <time>2012-05-24T08:36:42Z</time>
      </trkpt>
      <trkpt lat="44.32984" lon="3.64468">
        <ele>965.204</ele>
        <time>2012-05-24T08:36:46Z</time>
      </trkpt>
      <trkpt lat="44.32981" lon="3.64429">
        <ele>963.839</ele>
        <time>2012-05-24T08:37:07Z</time>
      </trkpt>
      <trkpt lat="44.32976" lon="3.6439">
        <ele>961.947</ele>
        <time>2012-05-24T08:37:29Z</time>
      </trkpt>
      <trkpt lat="44.32974" lon="3.64377">
        <ele>961.333</ele>
        <time>2012-05-24T08:37:36Z</time>
      </trkpt>
      <trkpt lat="44.32962" lon="3.64335">
        <ele>958.86</ele>
        <time>2012-05-24T08:38:01Z</time>
      </trkpt>
      <trkpt lat="44.32946" lon="3.64292">
        <ele>956.788</ele>
        <time>2012-05-24T08:38:29Z</time>
      </trkpt>
      <trkpt lat="44.3294" lon="3.64282">
        <ele>956.544</ele>
        <time>2012-05-24T08:38:37Z</time>
      </trkpt>
      <trkpt lat="44.32939" lon="3.64279">
        <ele>956.38</ele>
        <time>2012-05-24T08:38:39Z</time>
      </trkpt>
      <trkpt lat="44.32936" lon="3.64274">
        <ele>956.008</ele>
        <time>2012-05-24T08:40:34Z</time>
      </trkpt>
      <trkpt lat="44.32928" lon="3.64245">
        <ele>953.935</ele>
        <time>2012-05-24T08:47:59Z</time>
      </trkpt>
      <trkpt lat="44.32925" lon="3.64237">
        <ele>953.437</ele>
        <time>2012-05-24T08:48:11Z</time>
      </trkpt>
      <trkpt lat="44.3291" lon="3.64211">
        <ele>952.096</ele>
        <time>2012-05-24T08:48:29Z</time>
      </trkpt>
      <trkpt lat="44.32909" lon="3.64204">
        <ele>951.86</ele>
        <time>2012-05-24T08:48:33Z</time>
      </trkpt>
      <trkpt lat="44.32907" lon="3.64201">
        <ele>951.768</ele>
        <time>2012-05-24T08:48:35Z</time>
      </trkpt>
      <trkpt lat="44.32906" lon="3.6419">
        <ele>951.043</ele>
        <time>2012-05-24T08:48:42Z</time>
      </trkpt>
      <trkpt lat="44.3291" lon="3.64161">
        <ele>949.818</ele>
        <time>2012-05-24T08:48:58Z</time>
      </trkpt>
      <trkpt lat="44.32911" lon="3.64136">
        <ele>948.724</ele>
        <time>2012-05-24T08:49:13Z</time>
      </trkpt>
      <trkpt lat="44.32915" lon="3.64104">
        <ele>946.88</ele>
        <time>2012-05-24T08:49:31Z</time>
      </trkpt>
      <trkpt lat="44.32914" lon="3.64089">
        <ele>946.507</ele>
        <time>2012-05-24T08:49:39Z</time>
      </trkpt>
      <trkpt lat="44.32915" lon="3.64085">
        <ele>946.02</ele>
        <time>2012-05-24T08:49:42Z</time>
      </trkpt>
      <trkpt lat="44.32915" lon="3.64068">
        <ele>945.092</ele>
        <time>2012-05-24T08:49:53Z</time>
      </trkpt>
      <trkpt lat="44.32916" lon="3.64034">
        <ele>943.28</ele>
        <time>2012-05-24T08:50:12Z</time>
      </trkpt>
      <trkpt lat="44.32917" lon="3.6401">
        <ele>941.744</ele>
        <time>2012-05-24T08:50:26Z</time>
      </trkpt>
      <trkpt lat="44.32919" lon="3.63988">
        <ele>940.748</ele>
        <time>2012-05-24T08:50:39Z</time>
      </trkpt>
      <trkpt lat="44.32919" lon="3.63982">
        <ele>940.408</ele>
        <time>2012-05-24T08:50:43Z</time>
      </trkpt>
      <trkpt lat="44.32919" lon="3.63979">
        <ele>939.959</ele>
        <time>2012-05-24T08:50:45Z</time>
      </trkpt>
      <trkpt lat="44.32917" lon="3.63948">
        <ele>938.292</ele>
        <time>2012-05-24T08:51:03Z</time>
      </trkpt>
      <trkpt lat="44.32916" lon="3.63941">
        <ele>938.338</ele>
        <time>2012-05-24T08:51:07Z</time>
      </trkpt>
      <trkpt lat="44.32915" lon="3.63927">
        <ele>936.852</ele>
        <time>2012-05-24T08:51:16Z</time>
      </trkpt>
      <trkpt lat="44.32916" lon="3.6392">
        <ele>936.973</ele>
        <time>2012-05-24T08:51:20Z</time>
      </trkpt>
      <trkpt lat="44.32917" lon="3.63912">
        <ele>936.715</ele>
        <time>2012-05-24T08:51:24Z</time>
      </trkpt>
      <trkpt lat="44.32917" lon="3.63905">
        <ele>936.087</ele>
        <time>2012-05-24T08:51:28Z</time>
      </trkpt>
      <trkpt lat="44.32917" lon="3.6389">
        <ele>935.158</ele>
        <time>2012-05-24T08:51:37Z</time>
      </trkpt>
      <trkpt lat="44.32917" lon="3.63884">
        <ele>934.658</ele>
        <time>2012-05-24T08:51:41Z</time>
      </trkpt>
      <trkpt lat="44.32917" lon="3.63878">
        <ele>934.219</ele>
        <time>2012-05-24T08:51:45Z</time>
      </trkpt>
      <trkpt lat="44.3292" lon="3.6386">
        <ele>932.841</ele>
        <time>2012-05-24T08:51:56Z</time>
      </trkpt>
      <trkpt lat="44.32921" lon="3.63832">
        <ele>932.01</ele>
        <time>2012-05-24T08:52:14Z</time>
      </trkpt>
      <trkpt lat="44.32922" lon="3.63821">
        <ele>931.162</ele>
        <time>2012-05-24T08:52:21Z</time>
      </trkpt>
      <trkpt lat="44.32927" lon="3.63801">
        <ele>930.63</ele>
        <time>2012-05-24T08:52:34Z</time>
      </trkpt>
      <trkpt lat="44.32934" lon="3.63777">
        <ele>929.716</ele>
        <time>2012-05-24T08:52:49Z</time>
      </trkpt>
      <trkpt lat="44.32941" lon="3.63751">
        <ele>928.035</ele>
        <time>2012-05-24T08:53:06Z</time>
      </trkpt>
      <trkpt lat="44.32955" lon="3.63727">
        <ele>926.695</ele>
        <time>2012-05-24T08:53:26Z</time>
      </trkpt>
      <trkpt lat="44.3297" lon="3.63697">
        <ele>924.26</ele>
        <time>2012-05-24T08:53:49Z</time>
      </trkpt>
      <trkpt lat="44.32973" lon="3.63689">
        <ele>923.96</ele>
        <time>2012-05-24T08:53:54Z</time>
      </trkpt>
      <trkpt lat="44.3298" lon="3.63663">
        <ele>922.882</ele>
        <time>2012-05-24T08:54:10Z</time>
      </trkpt>
      <trkpt lat="44.32973" lon="3.63631">
        <ele>921.396</ele>
        <time>2012-05-24T08:54:30Z</time>
      </trkpt>
      <trkpt lat="44.32964" lon="3.63621">
        <ele>920.732</ele>
        <time>2012-05-24T08:54:39Z</time>
      </trkpt>
      <trkpt lat="44.32956" lon="3.63619">
        <ele>920.142</ele>
        <time>2012-05-24T08:54:45Z</time>
      </trkpt>
      <trkpt lat="44.32936" lon="3.63614">
        <ele>919.245</ele>
        <time>2012-05-24T08:55:01Z</time>
      </trkpt>
      <trkpt lat="44.32934" lon="3.63613">
        <ele>918.391</ele>
        <time>2012-05-24T08:55:09Z</time>
      </trkpt>
      <trkpt lat="44.3293" lon="3.63608">
        <ele>918.511</ele>
        <time>2012-05-24T08:55:14Z</time>
      </trkpt>
      <trkpt lat="44.32928" lon="3.63606">
        <ele>918.09</ele>
        <time>2012-05-24T08:55:16Z</time>
      </trkpt>
      <trkpt lat="44.32922" lon="3.636">
        <ele>917.774</ele>
        <time>2012-05-24T08:55:21Z</time>
      </trkpt>
      <trkpt lat="44.32919" lon="3.63593">
        <ele>916.961</ele>
        <time>2012-05-24T08:55:26Z</time>
      </trkpt>
      <trkpt lat="44.32913" lon="3.63584">
        <ele>916.939</ele>
        <time>2012-05-24T08:55:30Z</time>
      </trkpt>
      <trkpt lat="44.32909" lon="3.63569">
        <ele>915.589</ele>
        <time>2012-05-24T08:55:40Z</time>
      </trkpt>
      <trkpt lat="44.32902" lon="3.6356">
        <ele>914.683</ele>
        <time>2012-05-24T08:55:47Z</time>
      </trkpt>
      <trkpt lat="44.32888" lon="3.6353">
        <ele>912.815</ele>
        <time>2012-05-24T08:56:07Z</time>
      </trkpt>
      <trkpt lat="44.32871" lon="3.63498">
        <ele>910.777</ele>
        <time>2012-05-24T08:56:31Z</time>
      </trkpt>
      <trkpt lat="44.32871" lon="3.63493">
        <ele>910.555</ele>
        <time>2012-05-24T08:56:34Z</time>
      </trkpt>
      <trkpt lat="44.32878" lon="3.63454">
        <ele>908.563</ele>
        <time>2012-05-24T08:56:58Z</time>
      </trkpt>
      <trkpt lat="44.32885" lon="3.63413">
        <ele>905.517</ele>
        <time>2012-05-24T08:57:22Z</time>
      </trkpt>
      <trkpt lat="44.32892" lon="3.63366">
        <ele>902.982</ele>
        <time>2012-05-24T08:57:51Z</time>
      </trkpt>
      <trkpt lat="44.32901" lon="3.63323">
        <ele>900.508</ele>
        <time>2012-05-24T08:58:19Z</time>
      </trkpt>
      <trkpt lat="44.32911" lon="3.63291">
        <ele>898.686</ele>
        <time>2012-05-24T08:58:41Z</time>
      </trkpt>
      <trkpt lat="44.32928" lon="3.63266">
        <ele>897.27</ele>
        <time>2012-05-24T08:59:02Z</time>
      </trkpt>
      <trkpt lat="44.32947" lon="3.63235">
        <ele>895.426</ele>
        <time>2012-05-24T08:59:27Z</time>
      </trkpt>
      <trkpt lat="44.3296" lon="3.63203">
        <ele>894.104</ele>
        <time>2012-05-24T08:59:49Z</time>
      </trkpt>
      <trkpt lat="44.32971" lon="3.63168">
        <ele>892.852</ele>
        <time>2012-05-24T09:00:11Z</time>
      </trkpt>
      <trkpt lat="44.32983" lon="3.6312">
        <ele>890.899</ele>
        <time>2012-05-24T09:00:41Z</time>
      </trkpt>
      <trkpt lat="44.32989" lon="3.63085">
        <ele>889.504</ele>
        <time>2012-05-24T09:01:01Z</time>
      </trkpt>
      <trkpt lat="44.32997" lon="3.63045">
        <ele>888.965</ele>
        <time>2012-05-24T09:01:24Z</time>
      </trkpt>
      <trkpt lat="44.33007" lon="3.63027">
        <ele>888.416</ele>
        <time>2012-05-24T09:01:37Z</time>
      </trkpt>
      <trkpt lat="44.3301" lon="3.63025">
        <ele>888.372</ele>
        <time>2012-05-24T09:01:40Z</time>
      </trkpt>
      <trkpt lat="44.33022" lon="3.63013">
        <ele>887.069</ele>
        <time>2012-05-24T09:01:53Z</time>
      </trkpt>
      <trkpt lat="44.33036" lon="3.63002">
        <ele>886.497</ele>
        <time>2012-05-24T09:02:07Z</time>
      </trkpt>
      <trkpt lat="44.33053" lon="3.62991">
        <ele>885.587</ele>
        <time>2012-05-24T09:02:23Z</time>
      </trkpt>
      <trkpt lat="44.33078" lon="3.62985">
        <ele>884.118</ele>
        <time>2012-05-24T09:02:43Z</time>
      </trkpt>
      <trkpt lat="44.33095" lon="3.62985">
        <ele>883.571</ele>
        <time>2012-05-24T09:02:55Z</time>
      </trkpt>
      <trkpt lat="44.33105" lon="3.62984">
        <ele>882.741</ele>
        <time>2012-05-24T09:03:03Z</time>
      </trkpt>
      <trkpt lat="44.33123" lon="3.62969">
        <ele>881.806</ele>
        <time>2012-05-24T09:03:20Z</time>
      </trkpt>
      <trkpt lat="44.33127" lon="3.62961">
        <ele>881.263</ele>
        <time>2012-05-24T09:03:25Z</time>
      </trkpt>
      <trkpt lat="44.33137" lon="3.62935">
        <ele>880.503</ele>
        <time>2012-05-24T09:03:41Z</time>
      </trkpt>
      <trkpt lat="44.33138" lon="3.62928">
        <ele>880.506</ele>
        <time>2012-05-24T09:03:46Z</time>
      </trkpt>
      <trkpt lat="44.33134" lon="3.62897">
        <ele>879.764</ele>
        <time>2012-05-24T09:04:05Z</time>
      </trkpt>
      <trkpt lat="44.33131" lon="3.6288">
        <ele>878.384</ele>
        <time>2012-05-24T09:04:15Z</time>
      </trkpt>
      <trkpt lat="44.33128" lon="3.62873">
        <ele>878.443</ele>
        <time>2012-05-24T09:04:19Z</time>
      </trkpt>
      <trkpt lat="44.33124" lon="3.62868">
        <ele>878.116</ele>
        <time>2012-05-24T09:04:23Z</time>
      </trkpt>
      <trkpt lat="44.33114" lon="3.62847">
        <ele>877.137</ele>
        <time>2012-05-24T09:04:36Z</time>
      </trkpt>
      <trkpt lat="44.3311" lon="3.62836">
        <ele>876.702</ele>
        <time>2012-05-24T09:04:43Z</time>
      </trkpt>
      <trkpt lat="44.33107" lon="3.62828">
        <ele>876.421</ele>
        <time>2012-05-24T09:04:48Z</time>
      </trkpt>
      <trkpt lat="44.33104" lon="3.62819">
        <ele>876.347</ele>
        <time>2012-05-24T09:04:54Z</time>
      </trkpt>
      <trkpt lat="44.33097" lon="3.62796">
        <ele>875.526</ele>
        <time>2012-05-24T09:05:09Z</time>
      </trkpt>
      <trkpt lat="44.33092" lon="3.62752">
        <ele>873.824</ele>
        <time>2012-05-24T09:05:34Z</time>
      </trkpt>
      <trkpt lat="44.33089" lon="3.62736">
        <ele>873.033</ele>
        <time>2012-05-24T09:05:44Z</time>
      </trkpt>
      <trkpt lat="44.33083" lon="3.62711">
        <ele>872.094</ele>
        <time>2012-05-24T09:06:00Z</time>
      </trkpt>
      <trkpt lat="44.33084" lon="3.62697">
        <ele>871.829</ele>
        <time>2012-05-24T09:06:09Z</time>
      </trkpt>
      <trkpt lat="44.33088" lon="3.62676">
        <ele>871.451</ele>
        <time>2012-05-24T09:06:21Z</time>
      </trkpt>
      <trkpt lat="44.33088" lon="3.62673">
        <ele>871.598</ele>
        <time>2012-05-24T09:06:23Z</time>
      </trkpt>
      <trkpt lat="44.33091" lon="3.62665">
        <ele>871.752</ele>
        <time>2012-05-24T09:06:29Z</time>
      </trkpt>
      <trkpt lat="44.33093" lon="3.6266">
        <ele>872.019</ele>
        <time>2012-05-24T09:06:33Z</time>
      </trkpt>
      <trkpt lat="44.33101" lon="3.62645">
        <ele>870.902</ele>
        <time>2012-05-24T09:06:43Z</time>
      </trkpt>
      <trkpt lat="44.33102" lon="3.62638">
        <ele>870.747</ele>
        <time>2012-05-24T09:06:47Z</time>
      </trkpt>
      <trkpt lat="44.33103" lon="3.62633">
        <ele>870.58</ele>
        <time>2012-05-24T09:06:50Z</time>
      </trkpt>
      <trkpt lat="44.33106" lon="3.62631">
        <ele>870.49</ele>
        <time>2012-05-24T09:06:53Z</time>
      </trkpt>
      <trkpt lat="44.33111" lon="3.62607">
        <ele>870.383</ele>
        <time>2012-05-24T09:07:06Z</time>
      </trkpt>
      <trkpt lat="44.33113" lon="3.62602">
        <ele>870.904</ele>
        <time>2012-05-24T09:07:09Z</time>
      </trkpt>
      <trkpt lat="44.33114" lon="3.62594">
        <ele>870.654</ele>
        <time>2012-05-24T09:07:14Z</time>
      </trkpt>
      <trkpt lat="44.33118" lon="3.62564">
        <ele>870.855</ele>
        <time>2012-05-24T09:07:32Z</time>
      </trkpt>
      <trkpt lat="44.33129" lon="3.62533">
        <ele>869.727</ele>
        <time>2012-05-24T09:07:52Z</time>
      </trkpt>
      <trkpt lat="44.33137" lon="3.62523">
        <ele>869.255</ele>
        <time>2012-05-24T09:08:21Z</time>
      </trkpt>
      <trkpt lat="44.33139" lon="3.62523">
        <ele>868.95</ele>
        <time>2012-05-24T09:09:11Z</time>
      </trkpt>
      <trkpt lat="44.33141" lon="3.62523">
        <ele>868.411</ele>
        <time>2012-05-24T09:09:32Z</time>
      </trkpt>
      <trkpt lat="44.33151" lon="3.62511">
        <ele>868.114</ele>
        <time>2012-05-24T09:09:44Z</time>
      </trkpt>
      <trkpt lat="44.33159" lon="3.62496">
        <ele>867.883</ele>
        <time>2012-05-24T09:09:56Z</time>
      </trkpt>
      <trkpt lat="44.33173" lon="3.62473">
        <ele>868.39</ele>
        <time>2012-05-24T09:10:14Z</time>
      </trkpt>
      <trkpt lat="44.33185" lon="3.62449">
        <ele>868.346</ele>
        <time>2012-05-24T09:10:30Z</time>
      </trkpt>
      <trkpt lat="44.33199" lon="3.62436">
        <ele>868.162</ele>
        <time>2012-05-24T09:10:44Z</time>
      </trkpt>
      <trkpt lat="44.33208" lon="3.62435">
        <ele>868.074</ele>
        <time>2012-05-24T09:10:52Z</time>
      </trkpt>
      <trkpt lat="44.33221" lon="3.6244">
        <ele>866.93</ele>
        <time>2012-05-24T09:11:04Z</time>
      </trkpt>
      <trkpt lat="44.33237" lon="3.6245">
        <ele>866.185</ele>
        <time>2012-05-24T09:11:18Z</time>
      </trkpt>
      <trkpt lat="44.33263" lon="3.62458">
        <ele>865.254</ele>
        <time>2012-05-24T09:11:37Z</time>
      </trkpt>
      <trkpt lat="44.33286" lon="3.62465">
        <ele>864.689</ele>
        <time>2012-05-24T09:11:55Z</time>
      </trkpt>
      <trkpt lat="44.33319" lon="3.62469">
        <ele>862.699</ele>
        <time>2012-05-24T09:12:26Z</time>
      </trkpt>
      <trkpt lat="44.3334" lon="3.62471">
        <ele>861.991</ele>
        <time>2012-05-24T09:12:45Z</time>
      </trkpt>
      <trkpt lat="44.33363" lon="3.62466">
        <ele>861.083</ele>
        <time>2012-05-24T09:13:06Z</time>
      </trkpt>
      <trkpt lat="44.33393" lon="3.62452">
        <ele>859.259</ele>
        <time>2012-05-24T09:13:33Z</time>
      </trkpt>
      <trkpt lat="44.33417" lon="3.62434">
        <ele>857.521</ele>
        <time>2012-05-24T09:13:56Z</time>
      </trkpt>
      <trkpt lat="44.33423" lon="3.62428">
        <ele>856.884</ele>
        <time>2012-05-24T09:14:03Z</time>
      </trkpt>
      <trkpt lat="44.33437" lon="3.62413">
        <ele>856.007</ele>
        <time>2012-05-24T09:14:19Z</time>
      </trkpt>
      <trkpt lat="44.33462" lon="3.6239">
        <ele>853.896</ele>
        <time>2012-05-24T09:14:43Z</time>
      </trkpt>
      <trkpt lat="44.33476" lon="3.6238">
        <ele>852.936</ele>
        <time>2012-05-24T09:14:57Z</time>
      </trkpt>
      <trkpt lat="44.33488" lon="3.62372">
        <ele>851.885</ele>
        <time>2012-05-24T09:15:11Z</time>
      </trkpt>
      <trkpt lat="44.3349" lon="3.62371">
        <ele>851.71</ele>
        <time>2012-05-24T09:15:13Z</time>
      </trkpt>
      <trkpt lat="44.33501" lon="3.62355">
        <ele>850.586</ele>
        <time>2012-05-24T09:15:29Z</time>
      </trkpt>
      <trkpt lat="44.33511" lon="3.62345">
        <ele>847.4</ele>
        <time>2012-05-24T09:34:14Z</time>
      </trkpt>
      <trkpt lat="44.33515" lon="3.62347">
        <ele>847.169</ele>
        <time>2012-05-24T09:34:18Z</time>
      </trkpt>
      <trkpt lat="44.33515" lon="3.62364">
        <ele>846.402</ele>
        <time>2012-05-24T09:34:28Z</time>
      </trkpt>
      <trkpt lat="44.33516" lon="3.62371">
        <ele>846.114</ele>
        <time>2012-05-24T09:34:32Z</time>
      </trkpt>
      <trkpt lat="44.3351" lon="3.62383">
        <ele>844.917</ele>
        <time>2012-05-24T09:34:42Z</time>
      </trkpt>
      <trkpt lat="44.33502" lon="3.6239">
        <ele>844.323</ele>
        <time>2012-05-24T09:34:48Z</time>
      </trkpt>
      <trkpt lat="44.33494" lon="3.62398">
        <ele>843.659</ele>
        <time>2012-05-24T09:34:57Z</time>
      </trkpt>
      <trkpt lat="44.33489" lon="3.62401">
        <ele>842.937</ele>
        <time>2012-05-24T09:35:01Z</time>
      </trkpt>
      <trkpt lat="44.33479" lon="3.62413">
        <ele>841.864</ele>
        <time>2012-05-24T09:35:12Z</time>
      </trkpt>
      <trkpt lat="44.33478" lon="3.62415">
        <ele>841.852</ele>
        <time>2012-05-24T09:35:14Z</time>
      </trkpt>
      <trkpt lat="44.33477" lon="3.62417">
        <ele>841.211</ele>
        <time>2012-05-24T09:35:16Z</time>
      </trkpt>
      <trkpt lat="44.33474" lon="3.6242">
        <ele>841.167</ele>
        <time>2012-05-24T09:35:19Z</time>
      </trkpt>
      <trkpt lat="44.3347" lon="3.62428">
        <ele>839.961</ele>
        <time>2012-05-24T09:35:25Z</time>
      </trkpt>
      <trkpt lat="44.33466" lon="3.62437">
        <ele>839.379</ele>
        <time>2012-05-24T09:35:31Z</time>
      </trkpt>
      <trkpt lat="44.33459" lon="3.62448">
        <ele>838.681</ele>
        <time>2012-05-24T09:35:40Z</time>
      </trkpt>
      <trkpt lat="44.33449" lon="3.62469">
        <ele>837.667</ele>
        <time>2012-05-24T09:35:55Z</time>
      </trkpt>
      <trkpt lat="44.33433" lon="3.62491">
        <ele>835.94</ele>
        <time>2012-05-24T09:36:13Z</time>
      </trkpt>
      <trkpt lat="44.33426" lon="3.625">
        <ele>835.073</ele>
        <time>2012-05-24T09:36:22Z</time>
      </trkpt>
      <trkpt lat="44.33415" lon="3.62508">
        <ele>834.598</ele>
        <time>2012-05-24T09:36:32Z</time>
      </trkpt>
      <trkpt lat="44.33409" lon="3.62512">
        <ele>834.043</ele>
        <time>2012-05-24T09:36:37Z</time>
      </trkpt>
      <trkpt lat="44.33407" lon="3.62515">
        <ele>833.568</ele>
        <time>2012-05-24T09:36:40Z</time>
      </trkpt>
      <trkpt lat="44.33403" lon="3.6252">
        <ele>833.092</ele>
        <time>2012-05-24T09:36:44Z</time>
      </trkpt>
      <trkpt lat="44.33384" lon="3.62537">
        <ele>831.678</ele>
        <time>2012-05-24T09:37:02Z</time>
      </trkpt>
      <trkpt lat="44.33364" lon="3.62548">
        <ele>830.202</ele>
        <time>2012-05-24T09:37:21Z</time>
      </trkpt>
      <trkpt lat="44.33343" lon="3.62553">
        <ele>827.913</ele>
        <time>2012-05-24T09:37:40Z</time>
      </trkpt>
      <trkpt lat="44.33329" lon="3.62554">
        <ele>826.542</ele>
        <time>2012-05-24T09:37:52Z</time>
      </trkpt>
      <trkpt lat="44.33306" lon="3.62554">
        <ele>824.519</ele>
        <time>2012-05-24T09:38:10Z</time>
      </trkpt>
      <trkpt lat="44.33279" lon="3.62552">
        <ele>822.533</ele>
        <time>2012-05-24T09:38:33Z</time>
      </trkpt>
      <trkpt lat="44.33253" lon="3.6254">
        <ele>820.654</ele>
        <time>2012-05-24T09:38:55Z</time>
      </trkpt>
      <trkpt lat="44.33233" lon="3.62537">
        <ele>819.551</ele>
        <time>2012-05-24T09:39:12Z</time>
      </trkpt>
      <trkpt lat="44.33219" lon="3.62552">
        <ele>819.041</ele>
        <time>2012-05-24T09:39:26Z</time>
      </trkpt>
      <trkpt lat="44.3321" lon="3.62571">
        <ele>818.281</ele>
        <time>2012-05-24T09:39:38Z</time>
      </trkpt>
      <trkpt lat="44.33189" lon="3.62599">
        <ele>817.12</ele>
        <time>2012-05-24T09:40:00Z</time>
      </trkpt>
      <trkpt lat="44.33185" lon="3.62605">
        <ele>816.163</ele>
        <time>2012-05-24T09:40:05Z</time>
      </trkpt>
      <trkpt lat="44.33185" lon="3.62613">
        <ele>815.723</ele>
        <time>2012-05-24T09:40:09Z</time>
      </trkpt>
      <trkpt lat="44.33187" lon="3.62627">
        <ele>814.778</ele>
        <time>2012-05-24T09:40:18Z</time>
      </trkpt>
      <trkpt lat="44.33194" lon="3.62647">
        <ele>813.072</ele>
        <time>2012-05-24T09:40:31Z</time>
      </trkpt>
      <trkpt lat="44.33197" lon="3.62654">
        <ele>812.711</ele>
        <time>2012-05-24T09:40:36Z</time>
      </trkpt>
      <trkpt lat="44.33197" lon="3.62678">
        <ele>811.326</ele>
        <time>2012-05-24T09:40:51Z</time>
      </trkpt>
      <trkpt lat="44.33196" lon="3.62683">
        <ele>811.046</ele>
        <time>2012-05-24T09:40:54Z</time>
      </trkpt>
      <trkpt lat="44.33196" lon="3.62686">
        <ele>811.166</ele>
        <time>2012-05-24T09:40:56Z</time>
      </trkpt>
      <trkpt lat="44.33196" lon="3.62699">
        <ele>810.261</ele>
        <time>2012-05-24T09:41:05Z</time>
      </trkpt>
      <trkpt lat="44.33196" lon="3.62707">
        <ele>810.342</ele>
        <time>2012-05-24T09:41:10Z</time>
      </trkpt>
      <trkpt lat="44.33195" lon="3.62714">
        <ele>809.905</ele>
        <time>2012-05-24T09:41:14Z</time>
      </trkpt>
      <trkpt lat="44.33195" lon="3.62724">
        <ele>809.009</ele>
        <time>2012-05-24T09:41:20Z</time>
      </trkpt>
      <trkpt lat="44.33194" lon="3.62731">
        <ele>809.154</ele>
        <time>2012-05-24T09:41:24Z</time>
      </trkpt>
      <trkpt lat="44.33201" lon="3.62741">
        <ele>808.016</ele>
        <time>2012-05-24T09:41:32Z</time>
      </trkpt>
      <trkpt lat="44.33205" lon="3.62747">
        <ele>807.149</ele>
        <time>2012-05-24T09:41:38Z</time>
      </trkpt>
      <trkpt lat="44.33217" lon="3.62759">
        <ele>804.736</ele>
        <time>2012-05-24T09:41:55Z</time>
      </trkpt>
      <trkpt lat="44.33235" lon="3.62773">
        <ele>802.357</ele>
        <time>2012-05-24T09:42:13Z</time>
      </trkpt>
      <trkpt lat="44.33244" lon="3.62787">
        <ele>800.856</ele>
        <time>2012-05-24T09:42:25Z</time>
      </trkpt>
      <trkpt lat="44.33254" lon="3.62803">
        <ele>799.63</ele>
        <time>2012-05-24T09:42:37Z</time>
      </trkpt>
      <trkpt lat="44.33266" lon="3.62823">
        <ele>798.033</ele>
        <time>2012-05-24T09:42:53Z</time>
      </trkpt>
      <trkpt lat="44.33274" lon="3.62833">
        <ele>797.151</ele>
        <time>2012-05-24T09:43:02Z</time>
      </trkpt>
      <trkpt lat="44.33287" lon="3.62854">
        <ele>796.278</ele>
        <time>2012-05-24T09:43:18Z</time>
      </trkpt>
      <trkpt lat="44.33298" lon="3.6288">
        <ele>794.434</ele>
        <time>2012-05-24T09:43:36Z</time>
      </trkpt>
      <trkpt lat="44.33303" lon="3.62891">
        <ele>793.4</ele>
        <time>2012-05-24T09:43:45Z</time>
      </trkpt>
      <trkpt lat="44.33312" lon="3.62906">
        <ele>792.384</ele>
        <time>2012-05-24T09:43:58Z</time>
      </trkpt>
      <trkpt lat="44.3333" lon="3.62928">
        <ele>789.792</ele>
        <time>2012-05-24T09:44:18Z</time>
      </trkpt>
      <trkpt lat="44.33343" lon="3.62943">
        <ele>788.141</ele>
        <time>2012-05-24T09:44:32Z</time>
      </trkpt>
      <trkpt lat="44.33352" lon="3.62951">
        <ele>786.695</ele>
        <time>2012-05-24T09:44:50Z</time>
      </trkpt>
      <trkpt lat="44.33365" lon="3.62966">
        <ele>785.516</ele>
        <time>2012-05-24T09:45:02Z</time>
      </trkpt>
      <trkpt lat="44.33365" lon="3.62972">
        <ele>785.387</ele>
        <time>2012-05-24T09:45:05Z</time>
      </trkpt>
      <trkpt lat="44.33367" lon="3.62979">
        <ele>784.934</ele>
        <time>2012-05-24T09:45:09Z</time>
      </trkpt>
      <trkpt lat="44.33367" lon="3.63">
        <ele>782.939</ele>
        <time>2012-05-24T09:45:23Z</time>
      </trkpt>
      <trkpt lat="44.33365" lon="3.63009">
        <ele>782.792</ele>
        <time>2012-05-24T09:45:28Z</time>
      </trkpt>
      <trkpt lat="44.33366" lon="3.63014">
        <ele>782.678</ele>
        <time>2012-05-24T09:45:31Z</time>
      </trkpt>
      <trkpt lat="44.33361" lon="3.63032">
        <ele>781.219</ele>
        <time>2012-05-24T09:45:43Z</time>
      </trkpt>
      <trkpt lat="44.33358" lon="3.63037">
        <ele>780.712</ele>
        <time>2012-05-24T09:45:47Z</time>
      </trkpt>
      <trkpt lat="44.33353" lon="3.6306">
        <ele>779.028</ele>
        <time>2012-05-24T09:46:03Z</time>
      </trkpt>
      <trkpt lat="44.33344" lon="3.63085">
        <ele>777.458</ele>
        <time>2012-05-24T09:46:18Z</time>
      </trkpt>
      <trkpt lat="44.33338" lon="3.63109">
        <ele>776.418</ele>
        <time>2012-05-24T09:46:32Z</time>
      </trkpt>
      <trkpt lat="44.33335" lon="3.63137">
        <ele>774.943</ele>
        <time>2012-05-24T09:46:48Z</time>
      </trkpt>
      <trkpt lat="44.33328" lon="3.63172">
        <ele>772.8</ele>
        <time>2012-05-24T09:47:10Z</time>
      </trkpt>
      <trkpt lat="44.33327" lon="3.63177">
        <ele>772.175</ele>
        <time>2012-05-24T09:47:14Z</time>
      </trkpt>
      <trkpt lat="44.33327" lon="3.6318">
        <ele>772.332</ele>
        <time>2012-05-24T09:47:16Z</time>
      </trkpt>
      <trkpt lat="44.33326" lon="3.63196">
        <ele>771.08</ele>
        <time>2012-05-24T09:47:25Z</time>
      </trkpt>
      <trkpt lat="44.33324" lon="3.632">
        <ele>770.986</ele>
        <time>2012-05-24T09:47:28Z</time>
      </trkpt>
      <trkpt lat="44.33322" lon="3.63206">
        <ele>770.387</ele>
        <time>2012-05-24T09:47:32Z</time>
      </trkpt>
      <trkpt lat="44.33319" lon="3.63215">
        <ele>769.958</ele>
        <time>2012-05-24T09:47:38Z</time>
      </trkpt>
      <trkpt lat="44.33307" lon="3.63224">
        <ele>769.615</ele>
        <time>2012-05-24T09:47:43Z</time>
      </trkpt>
      <trkpt lat="44.333" lon="3.63234">
        <ele>769.058</ele>
        <time>2012-05-24T09:47:49Z</time>
      </trkpt>
      <trkpt lat="44.33296" lon="3.63239">
        <ele>768.672</ele>
        <time>2012-05-24T09:47:53Z</time>
      </trkpt>
      <trkpt lat="44.33287" lon="3.63245">
        <ele>767.914</ele>
        <time>2012-05-24T09:48:02Z</time>
      </trkpt>
      <trkpt lat="44.33269" lon="3.63252">
        <ele>765.9</ele>
        <time>2012-05-24T09:48:16Z</time>
      </trkpt>
      <trkpt lat="44.33257" lon="3.63254">
        <ele>765.095</ele>
        <time>2012-05-24T09:48:27Z</time>
      </trkpt>
      <trkpt lat="44.33246" lon="3.63261">
        <ele>764.553</ele>
        <time>2012-05-24T09:48:38Z</time>
      </trkpt>
      <trkpt lat="44.33226" lon="3.63258">
        <ele>763.225</ele>
        <time>2012-05-24T09:48:54Z</time>
      </trkpt>
      <trkpt lat="44.33219" lon="3.63261">
        <ele>762.911</ele>
        <time>2012-05-24T09:49:01Z</time>
      </trkpt>
      <trkpt lat="44.33218" lon="3.63266">
        <ele>762.917</ele>
        <time>2012-05-24T09:49:04Z</time>
      </trkpt>
      <trkpt lat="44.33213" lon="3.63276">
        <ele>762.462</ele>
        <time>2012-05-24T09:49:08Z</time>
      </trkpt>
      <trkpt lat="44.33214" lon="3.63289">
        <ele>761.491</ele>
        <time>2012-05-24T09:49:15Z</time>
      </trkpt>
      <trkpt lat="44.33219" lon="3.63301">
        <ele>760.615</ele>
        <time>2012-05-24T09:49:24Z</time>
      </trkpt>
      <trkpt lat="44.33223" lon="3.63303">
        <ele>760.553</ele>
        <time>2012-05-24T09:49:27Z</time>
      </trkpt>
      <trkpt lat="44.33227" lon="3.63311">
        <ele>759.716</ele>
        <time>2012-05-24T09:49:34Z</time>
      </trkpt>
      <trkpt lat="44.33228" lon="3.63316">
        <ele>759.738</ele>
        <time>2012-05-24T09:49:37Z</time>
      </trkpt>
      <trkpt lat="44.33242" lon="3.63329">
        <ele>758.723</ele>
        <time>2012-05-24T09:49:49Z</time>
      </trkpt>
      <trkpt lat="44.33245" lon="3.63333">
        <ele>758.318</ele>
        <time>2012-05-24T09:49:52Z</time>
      </trkpt>
      <trkpt lat="44.33246" lon="3.63343">
        <ele>757.771</ele>
        <time>2012-05-24T09:49:59Z</time>
      </trkpt>
      <trkpt lat="44.33261" lon="3.63362">
        <ele>757.039</ele>
        <time>2012-05-24T09:50:12Z</time>
      </trkpt>
      <trkpt lat="44.33264" lon="3.63367">
        <ele>756.92</ele>
        <time>2012-05-24T09:50:16Z</time>
      </trkpt>
      <trkpt lat="44.33271" lon="3.63372">
        <ele>756.481</ele>
        <time>2012-05-24T09:50:21Z</time>
      </trkpt>
      <trkpt lat="44.33278" lon="3.63387">
        <ele>755.863</ele>
        <time>2012-05-24T09:50:31Z</time>
      </trkpt>
      <trkpt lat="44.33287" lon="3.634">
        <ele>755.279</ele>
        <time>2012-05-24T09:50:40Z</time>
      </trkpt>
      <trkpt lat="44.33294" lon="3.6341">
        <ele>755.181</ele>
        <time>2012-05-24T09:50:48Z</time>
      </trkpt>
      <trkpt lat="44.33296" lon="3.63413">
        <ele>755.105</ele>
        <time>2012-05-24T09:50:50Z</time>
      </trkpt>
      <trkpt lat="44.333" lon="3.63418">
        <ele>754.349</ele>
        <time>2012-05-24T09:50:54Z</time>
      </trkpt>
      <trkpt lat="44.33308" lon="3.63433">
        <ele>754.027</ele>
        <time>2012-05-24T09:51:03Z</time>
      </trkpt>
      <trkpt lat="44.33309" lon="3.6344">
        <ele>753.918</ele>
        <time>2012-05-24T09:51:07Z</time>
      </trkpt>
      <trkpt lat="44.33311" lon="3.63446">
        <ele>753.49</ele>
        <time>2012-05-24T09:51:10Z</time>
      </trkpt>
      <trkpt lat="44.33314" lon="3.6345">
        <ele>753.456</ele>
        <time>2012-05-24T09:51:13Z</time>
      </trkpt>
      <trkpt lat="44.33318" lon="3.63457">
        <ele>753.038</ele>
        <time>2012-05-24T09:51:18Z</time>
      </trkpt>
      <trkpt lat="44.33319" lon="3.6346">
        <ele>752.573</ele>
        <time>2012-05-24T09:51:20Z</time>
      </trkpt>
      <trkpt lat="44.33327" lon="3.63478">
        <ele>751.731</ele>
        <time>2012-05-24T09:51:33Z</time>
      </trkpt>
      <trkpt lat="44.33344" lon="3.63515">
        <ele>750.53</ele>
        <time>2012-05-24T09:51:58Z</time>
      </trkpt>
      <trkpt lat="44.33348" lon="3.63526">
        <ele>750.227</ele>
        <time>2012-05-24T09:52:05Z</time>
      </trkpt>
      <trkpt lat="44.33356" lon="3.63541">
        <ele>749.716</ele>
        <time>2012-05-24T09:52:14Z</time>
      </trkpt>
      <trkpt lat="44.33355" lon="3.63544">
        <ele>749.837</ele>
        <time>2012-05-24T09:52:16Z</time>
      </trkpt>
      <trkpt lat="44.33354" lon="3.63557">
        <ele>749.357</ele>
        <time>2012-05-24T09:52:23Z</time>
      </trkpt>
      <trkpt lat="44.33353" lon="3.63579">
        <ele>749.664</ele>
        <time>2012-05-24T09:52:32Z</time>
      </trkpt>
      <trkpt lat="44.33354" lon="3.63583">
        <ele>749.669</ele>
        <time>2012-05-24T09:52:34Z</time>
      </trkpt>
      <trkpt lat="44.33355" lon="3.63587">
        <ele>749.318</ele>
        <time>2012-05-24T09:52:37Z</time>
      </trkpt>
      <trkpt lat="44.33357" lon="3.63607">
        <ele>749.394</ele>
        <time>2012-05-24T09:52:50Z</time>
      </trkpt>
      <trkpt lat="44.33364" lon="3.63619">
        <ele>749.048</ele>
        <time>2012-05-24T09:52:58Z</time>
      </trkpt>
      <trkpt lat="44.33364" lon="3.6362">
        <ele>748.65</ele>
        <time>2012-05-24T09:53:00Z</time>
      </trkpt>
      <trkpt lat="44.33371" lon="3.63623">
        <ele>748.332</ele>
        <time>2012-05-24T09:53:17Z</time>
      </trkpt>
      <trkpt lat="44.33374" lon="3.63617">
        <ele>747.785</ele>
        <time>2012-05-24T09:53:50Z</time>
      </trkpt>
      <trkpt lat="44.33386" lon="3.63603">
        <ele>744.76</ele>
        <time>2012-05-24T09:54:04Z</time>
      </trkpt>
      <trkpt lat="44.33393" lon="3.63581">
        <ele>743.55</ele>
        <time>2012-05-24T09:54:17Z</time>
      </trkpt>
      <trkpt lat="44.33396" lon="3.63576">
        <ele>742.751</ele>
        <time>2012-05-24T09:54:21Z</time>
      </trkpt>
      <trkpt lat="44.33399" lon="3.63571">
        <ele>742.264</ele>
        <time>2012-05-24T09:54:26Z</time>
      </trkpt>
      <trkpt lat="44.33413" lon="3.63558">
        <ele>740.996</ele>
        <time>2012-05-24T09:54:43Z</time>
      </trkpt>
      <trkpt lat="44.33422" lon="3.63536">
        <ele>739.342</ele>
        <time>2012-05-24T09:54:58Z</time>
      </trkpt>
      <trkpt lat="44.33421" lon="3.6353">
        <ele>738.444</ele>
        <time>2012-05-24T09:55:02Z</time>
      </trkpt>
      <trkpt lat="44.33421" lon="3.63521">
        <ele>737.217</ele>
        <time>2012-05-24T09:55:08Z</time>
      </trkpt>
      <trkpt lat="44.33427" lon="3.63504">
        <ele>733.696</ele>
        <time>2012-05-24T09:55:22Z</time>
      </trkpt>
      <trkpt lat="44.33432" lon="3.635">
        <ele>732.618</ele>
        <time>2012-05-24T09:55:28Z</time>
      </trkpt>
      <trkpt lat="44.3345" lon="3.6349">
        <ele>729.874</ele>
        <time>2012-05-24T09:55:46Z</time>
      </trkpt>
      <trkpt lat="44.33452" lon="3.63489">
        <ele>729.607</ele>
        <time>2012-05-24T09:55:49Z</time>
      </trkpt>
      <trkpt lat="44.33457" lon="3.63484">
        <ele>729.255</ele>
        <time>2012-05-24T09:55:53Z</time>
      </trkpt>
      <trkpt lat="44.3346" lon="3.6348">
        <ele>728.609</ele>
        <time>2012-05-24T09:55:59Z</time>
      </trkpt>
      <trkpt lat="44.3346" lon="3.63476">
        <ele>728.378</ele>
        <time>2012-05-24T09:56:01Z</time>
      </trkpt>
      <trkpt lat="44.33462" lon="3.63468">
        <ele>727.569</ele>
        <time>2012-05-24T09:56:07Z</time>
      </trkpt>
      <trkpt lat="44.33462" lon="3.63444">
        <ele>725.587</ele>
        <time>2012-05-24T09:56:20Z</time>
      </trkpt>
      <trkpt lat="44.33466" lon="3.63424">
        <ele>723.786</ele>
        <time>2012-05-24T09:56:35Z</time>
      </trkpt>
      <trkpt lat="44.3347" lon="3.63402">
        <ele>721.641</ele>
        <time>2012-05-24T09:56:51Z</time>
      </trkpt>
      <trkpt lat="44.33471" lon="3.63384">
        <ele>720.225</ele>
        <time>2012-05-24T09:57:03Z</time>
      </trkpt>
      <trkpt lat="44.33473" lon="3.63378">
        <ele>718.851</ele>
        <time>2012-05-24T09:57:07Z</time>
      </trkpt>
      <trkpt lat="44.33476" lon="3.63375">
        <ele>718.968</ele>
        <time>2012-05-24T09:57:09Z</time>
      </trkpt>
      <trkpt lat="44.33476" lon="3.6337">
        <ele>718.182</ele>
        <time>2012-05-24T09:57:12Z</time>
      </trkpt>
      <trkpt lat="44.33478" lon="3.6336">
        <ele>717.063</ele>
        <time>2012-05-24T09:57:19Z</time>
      </trkpt>
      <trkpt lat="44.3349" lon="3.63347">
        <ele>715.234</ele>
        <time>2012-05-24T09:57:34Z</time>
      </trkpt>
      <trkpt lat="44.33498" lon="3.63334">
        <ele>713.376</ele>
        <time>2012-05-24T09:57:45Z</time>
      </trkpt>
      <trkpt lat="44.33509" lon="3.63318">
        <ele>711.683</ele>
        <time>2012-05-24T09:57:58Z</time>
      </trkpt>
      <trkpt lat="44.33512" lon="3.63315">
        <ele>711.832</ele>
        <time>2012-05-24T09:58:01Z</time>
      </trkpt>
      <trkpt lat="44.33526" lon="3.63293">
        <ele>709.08</ele>
        <time>2012-05-24T09:58:19Z</time>
      </trkpt>
      <trkpt lat="44.33528" lon="3.63292">
        <ele>709.118</ele>
        <time>2012-05-24T09:58:22Z</time>
      </trkpt>
      <trkpt lat="44.3354" lon="3.63285">
        <ele>707.767</ele>
        <time>2012-05-24T09:58:31Z</time>
      </trkpt>
      <trkpt lat="44.33549" lon="3.63279">
        <ele>706.079</ele>
        <time>2012-05-24T09:58:40Z</time>
      </trkpt>
      <trkpt lat="44.33552" lon="3.63275">
        <ele>705.958</ele>
        <time>2012-05-24T09:58:43Z</time>
      </trkpt>
      <trkpt lat="44.33558" lon="3.63271">
        <ele>705.205</ele>
        <time>2012-05-24T09:58:49Z</time>
      </trkpt>
      <trkpt lat="44.3356" lon="3.63267">
        <ele>704.84</ele>
        <time>2012-05-24T09:58:52Z</time>
      </trkpt>
      <trkpt lat="44.33573" lon="3.6325">
        <ele>702.894</ele>
        <time>2012-05-24T09:59:08Z</time>
      </trkpt>
      <trkpt lat="44.33582" lon="3.63237">
        <ele>700.517</ele>
        <time>2012-05-24T09:59:19Z</time>
      </trkpt>
      <trkpt lat="44.33591" lon="3.63229">
        <ele>699.314</ele>
        <time>2012-05-24T09:59:27Z</time>
      </trkpt>
      <trkpt lat="44.33599" lon="3.63226">
        <ele>698.096</ele>
        <time>2012-05-24T09:59:34Z</time>
      </trkpt>
      <trkpt lat="44.33605" lon="3.63225">
        <ele>697.484</ele>
        <time>2012-05-24T09:59:39Z</time>
      </trkpt>
      <trkpt lat="44.33611" lon="3.63222">
        <ele>697.093</ele>
        <time>2012-05-24T09:59:45Z</time>
      </trkpt>
      <trkpt lat="44.33616" lon="3.63217">
        <ele>696.134</ele>
        <time>2012-05-24T09:59:51Z</time>
      </trkpt>
      <trkpt lat="44.33629" lon="3.63199">
        <ele>693.21</ele>
        <time>2012-05-24T10:00:07Z</time>
      </trkpt>
      <trkpt lat="44.33636" lon="3.63187">
        <ele>691.617</ele>
        <time>2012-05-24T10:00:16Z</time>
      </trkpt>
      <trkpt lat="44.33641" lon="3.6318">
        <ele>690.291</ele>
        <time>2012-05-24T10:00:22Z</time>
      </trkpt>
      <trkpt lat="44.33643" lon="3.63176">
        <ele>690.142</ele>
        <time>2012-05-24T10:00:25Z</time>
      </trkpt>
      <trkpt lat="44.33651" lon="3.63171">
        <ele>688.664</ele>
        <time>2012-05-24T10:00:33Z</time>
      </trkpt>
      <trkpt lat="44.33666" lon="3.63164">
        <ele>686.773</ele>
        <time>2012-05-24T10:00:46Z</time>
      </trkpt>
      <trkpt lat="44.33671" lon="3.63161">
        <ele>686.421</ele>
        <time>2012-05-24T10:00:51Z</time>
      </trkpt>
      <trkpt lat="44.33685" lon="3.63145">
        <ele>683.987</ele>
        <time>2012-05-24T10:01:06Z</time>
      </trkpt>
      <trkpt lat="44.33691" lon="3.63137">
        <ele>683.282</ele>
        <time>2012-05-24T10:01:13Z</time>
      </trkpt>
      <trkpt lat="44.33699" lon="3.6312">
        <ele>681.637</ele>
        <time>2012-05-24T10:01:24Z</time>
      </trkpt>
      <trkpt lat="44.33701" lon="3.63115">
        <ele>680.932</ele>
        <time>2012-05-24T10:01:28Z</time>
      </trkpt>
      <trkpt lat="44.33702" lon="3.63112">
        <ele>681.083</ele>
        <time>2012-05-24T10:01:30Z</time>
      </trkpt>
      <trkpt lat="44.3371" lon="3.63105">
        <ele>679.244</ele>
        <time>2012-05-24T10:01:39Z</time>
      </trkpt>
      <trkpt lat="44.33729" lon="3.63082">
        <ele>676.044</ele>
        <time>2012-05-24T10:02:00Z</time>
      </trkpt>
      <trkpt lat="44.33744" lon="3.63074">
        <ele>674.845</ele>
        <time>2012-05-24T10:02:13Z</time>
      </trkpt>
      <trkpt lat="44.33748" lon="3.63071">
        <ele>674.879</ele>
        <time>2012-05-24T10:02:17Z</time>
      </trkpt>
      <trkpt lat="44.3375" lon="3.6307">
        <ele>673.99</ele>
        <time>2012-05-24T10:02:19Z</time>
      </trkpt>
      <trkpt lat="44.33756" lon="3.63068">
        <ele>673.344</ele>
        <time>2012-05-24T10:02:24Z</time>
      </trkpt>
      <trkpt lat="44.33759" lon="3.63065">
        <ele>673.226</ele>
        <time>2012-05-24T10:02:27Z</time>
      </trkpt>
      <trkpt lat="44.33781" lon="3.63054">
        <ele>670.076</ele>
        <time>2012-05-24T10:02:47Z</time>
      </trkpt>
      <trkpt lat="44.33783" lon="3.63054">
        <ele>669.992</ele>
        <time>2012-05-24T10:02:49Z</time>
      </trkpt>
      <trkpt lat="44.33787" lon="3.63052">
        <ele>669.836</ele>
        <time>2012-05-24T10:02:53Z</time>
      </trkpt>
      <trkpt lat="44.33804" lon="3.63041">
        <ele>667.878</ele>
        <time>2012-05-24T10:03:08Z</time>
      </trkpt>
      <trkpt lat="44.33819" lon="3.63039">
        <ele>667.064</ele>
        <time>2012-05-24T10:03:19Z</time>
      </trkpt>
      <trkpt lat="44.33822" lon="3.63037">
        <ele>667.243</ele>
        <time>2012-05-24T10:03:21Z</time>
      </trkpt>
      <trkpt lat="44.33833" lon="3.63039">
        <ele>666.187</ele>
        <time>2012-05-24T10:03:31Z</time>
      </trkpt>
      <trkpt lat="44.33847" lon="3.63037">
        <ele>666.146</ele>
        <time>2012-05-24T10:03:43Z</time>
      </trkpt>
      <trkpt lat="44.33861" lon="3.63037">
        <ele>665.245</ele>
        <time>2012-05-24T10:03:55Z</time>
      </trkpt>
      <trkpt lat="44.33869" lon="3.63038">
        <ele>665.072</ele>
        <time>2012-05-24T10:04:11Z</time>
      </trkpt>
      <trkpt lat="44.33879" lon="3.63044">
        <ele>664.303</ele>
        <time>2012-05-24T10:04:24Z</time>
      </trkpt>
      <trkpt lat="44.3389" lon="3.63034">
        <ele>663.547</ele>
        <time>2012-05-24T10:04:36Z</time>
      </trkpt>
      <trkpt lat="44.33901" lon="3.63014">
        <ele>662.801</ele>
        <time>2012-05-24T10:04:51Z</time>
      </trkpt>
      <trkpt lat="44.3392" lon="3.62998">
        <ele>661.14</ele>
        <time>2012-05-24T10:05:10Z</time>
      </trkpt>
      <trkpt lat="44.33935" lon="3.62993">
        <ele>659.401</ele>
        <time>2012-05-24T10:05:25Z</time>
      </trkpt>
      <trkpt lat="44.33946" lon="3.62988">
        <ele>658.303</ele>
        <time>2012-05-24T10:05:42Z</time>
      </trkpt>
      <trkpt lat="44.33951" lon="3.62987">
        <ele>657.886</ele>
        <time>2012-05-24T10:05:46Z</time>
      </trkpt>
      <trkpt lat="44.33968" lon="3.62986">
        <ele>655.362</ele>
        <time>2012-05-24T10:06:07Z</time>
      </trkpt>
      <trkpt lat="44.33981" lon="3.62986">
        <ele>653.743</ele>
        <time>2012-05-24T10:06:25Z</time>
      </trkpt>
      <trkpt lat="44.33994" lon="3.62993">
        <ele>652.295</ele>
        <time>2012-05-24T10:06:40Z</time>
      </trkpt>
      <trkpt lat="44.33999" lon="3.62995">
        <ele>652.456</ele>
        <time>2012-05-24T10:06:45Z</time>
      </trkpt>
      <trkpt lat="44.34007" lon="3.62994">
        <ele>650.718</ele>
        <time>2012-05-24T10:06:53Z</time>
      </trkpt>
      <trkpt lat="44.3402" lon="3.62988">
        <ele>649.782</ele>
        <time>2012-05-24T10:07:00Z</time>
      </trkpt>
      <trkpt lat="44.34023" lon="3.6299">
        <ele>649.562</ele>
        <time>2012-05-24T10:07:03Z</time>
      </trkpt>
      <trkpt lat="44.34032" lon="3.62999">
        <ele>648.286</ele>
        <time>2012-05-24T10:07:17Z</time>
      </trkpt>
      <trkpt lat="44.34046" lon="3.63002">
        <ele>646.858</ele>
        <time>2012-05-24T10:07:33Z</time>
      </trkpt>
      <trkpt lat="44.3406" lon="3.63">
        <ele>645.714</ele>
        <time>2012-05-24T10:07:48Z</time>
      </trkpt>
      <trkpt lat="44.34078" lon="3.62994">
        <ele>643.436</ele>
        <time>2012-05-24T10:08:05Z</time>
      </trkpt>
      <trkpt lat="44.34093" lon="3.62991">
        <ele>642.276</ele>
        <time>2012-05-24T10:08:16Z</time>
      </trkpt>
      <trkpt lat="44.34102" lon="3.62988">
        <ele>641.295</ele>
        <time>2012-05-24T10:08:24Z</time>
      </trkpt>
      <trkpt lat="44.34113" lon="3.62986">
        <ele>640.098</ele>
        <time>2012-05-24T10:08:35Z</time>
      </trkpt>
      <trkpt lat="44.3413" lon="3.62984">
        <ele>636.985</ele>
        <time>2012-05-24T10:08:51Z</time>
      </trkpt>
      <trkpt lat="44.34141" lon="3.62985">
        <ele>635.278</ele>
        <time>2012-05-24T10:09:01Z</time>
      </trkpt>
      <trkpt lat="44.34157" lon="3.62985">
        <ele>633.775</ele>
        <time>2012-05-24T10:09:13Z</time>
      </trkpt>
      <trkpt lat="44.34164" lon="3.62986">
        <ele>632.512</ele>
        <time>2012-05-24T10:09:19Z</time>
      </trkpt>
      <trkpt lat="44.34174" lon="3.62991">
        <ele>631.957</ele>
        <time>2012-05-24T10:09:28Z</time>
      </trkpt>
      <trkpt lat="44.34182" lon="3.62987">
        <ele>630.29</ele>
        <time>2012-05-24T10:09:37Z</time>
      </trkpt>
      <trkpt lat="44.34185" lon="3.62984">
        <ele>629.896</ele>
        <time>2012-05-24T10:09:40Z</time>
      </trkpt>
      <trkpt lat="44.34196" lon="3.62979">
        <ele>628.63</ele>
        <time>2012-05-24T10:09:51Z</time>
      </trkpt>
      <trkpt lat="44.34207" lon="3.62978">
        <ele>626.989</ele>
        <time>2012-05-24T10:10:01Z</time>
      </trkpt>
      <trkpt lat="44.34224" lon="3.6297">
        <ele>625.29</ele>
        <time>2012-05-24T10:10:13Z</time>
      </trkpt>
      <trkpt lat="44.34234" lon="3.6297">
        <ele>623.985</ele>
        <time>2012-05-24T10:10:24Z</time>
      </trkpt>
      <trkpt lat="44.34235" lon="3.62971">
        <ele>623.599</ele>
        <time>2012-05-24T10:10:26Z</time>
      </trkpt>
      <trkpt lat="44.34244" lon="3.62966">
        <ele>622.793</ele>
        <time>2012-05-24T10:10:33Z</time>
      </trkpt>
      <trkpt lat="44.34255" lon="3.6296">
        <ele>621.747</ele>
        <time>2012-05-24T10:10:42Z</time>
      </trkpt>
      <trkpt lat="44.3427" lon="3.62952">
        <ele>620.103</ele>
        <time>2012-05-24T10:10:57Z</time>
      </trkpt>
      <trkpt lat="44.3428" lon="3.62942">
        <ele>619.372</ele>
        <time>2012-05-24T10:11:08Z</time>
      </trkpt>
      <trkpt lat="44.34292" lon="3.62939">
        <ele>618.325</ele>
        <time>2012-05-24T10:11:18Z</time>
      </trkpt>
      <trkpt lat="44.34299" lon="3.62931">
        <ele>616.661</ele>
        <time>2012-05-24T10:11:26Z</time>
      </trkpt>
      <trkpt lat="44.34305" lon="3.62926">
        <ele>616.476</ele>
        <time>2012-05-24T10:11:32Z</time>
      </trkpt>
      <trkpt lat="44.3431" lon="3.62926">
        <ele>615.921</ele>
        <time>2012-05-24T10:11:35Z</time>
      </trkpt>
      <trkpt lat="44.34312" lon="3.62924">
        <ele>616.396</ele>
        <time>2012-05-24T10:11:37Z</time>
      </trkpt>
      <trkpt lat="44.34324" lon="3.62919">
        <ele>615.025</ele>
        <time>2012-05-24T10:11:47Z</time>
      </trkpt>
      <trkpt lat="44.34329" lon="3.62918">
        <ele>614.983</ele>
        <time>2012-05-24T10:11:51Z</time>
      </trkpt>
      <trkpt lat="44.3434" lon="3.62904">
        <ele>613.923</ele>
        <time>2012-05-24T10:12:06Z</time>
      </trkpt>
      <trkpt lat="44.34346" lon="3.62889">
        <ele>613.495</ele>
        <time>2012-05-24T10:12:22Z</time>
      </trkpt>
      <trkpt lat="44.34354" lon="3.62875">
        <ele>612.727</ele>
        <time>2012-05-24T10:12:38Z</time>
      </trkpt>
      <trkpt lat="44.34365" lon="3.62857">
        <ele>611.738</ele>
        <time>2012-05-24T10:12:53Z</time>
      </trkpt>
      <trkpt lat="44.34371" lon="3.62848">
        <ele>611.222</ele>
        <time>2012-05-24T10:13:07Z</time>
      </trkpt>
      <trkpt lat="44.34379" lon="3.62833">
        <ele>610.55</ele>
        <time>2012-05-24T10:13:19Z</time>
      </trkpt>
      <trkpt lat="44.34391" lon="3.62806">
        <ele>610.024</ele>
        <time>2012-05-24T10:13:38Z</time>
      </trkpt>
      <trkpt lat="44.34406" lon="3.62793">
        <ele>608.68</ele>
        <time>2012-05-24T10:13:54Z</time>
      </trkpt>
      <trkpt lat="44.34413" lon="3.6279">
        <ele>608.519</ele>
        <time>2012-05-24T10:14:00Z</time>
      </trkpt>
      <trkpt lat="44.34418" lon="3.62783">
        <ele>608.181</ele>
        <time>2012-05-24T10:14:07Z</time>
      </trkpt>
      <trkpt lat="44.34434" lon="3.62781">
        <ele>608.069</ele>
        <time>2012-05-24T10:14:21Z</time>
      </trkpt>
      <trkpt lat="44.34439" lon="3.62777">
        <ele>608.098</ele>
        <time>2012-05-24T10:14:26Z</time>
      </trkpt>
      <trkpt lat="44.34442" lon="3.62776">
        <ele>608.306</ele>
        <time>2012-05-24T10:14:29Z</time>
      </trkpt>
      <trkpt lat="44.34453" lon="3.6277">
        <ele>607.831</ele>
        <time>2012-05-24T10:14:39Z</time>
      </trkpt>
      <trkpt lat="44.34456" lon="3.62769">
        <ele>607.747</ele>
        <time>2012-05-24T10:14:42Z</time>
      </trkpt>
      <trkpt lat="44.3446" lon="3.62766">
        <ele>607.307</ele>
        <time>2012-05-24T10:14:46Z</time>
      </trkpt>
      <trkpt lat="44.34467" lon="3.62763">
        <ele>607.044</ele>
        <time>2012-05-24T10:14:53Z</time>
      </trkpt>
      <trkpt lat="44.34479" lon="3.62753">
        <ele>606.115</ele>
        <time>2012-05-24T10:15:06Z</time>
      </trkpt>
      <trkpt lat="44.34483" lon="3.62748">
        <ele>604.817</ele>
        <time>2012-05-24T10:15:11Z</time>
      </trkpt>
      <trkpt lat="44.34489" lon="3.62745">
        <ele>604.392</ele>
        <time>2012-05-24T10:15:16Z</time>
      </trkpt>
      <trkpt lat="44.34493" lon="3.62741">
        <ele>603.462</ele>
        <time>2012-05-24T10:15:21Z</time>
      </trkpt>
      <trkpt lat="44.34496" lon="3.62733">
        <ele>603.163</ele>
        <time>2012-05-24T10:15:25Z</time>
      </trkpt>
      <trkpt lat="44.34509" lon="3.62714">
        <ele>600.669</ele>
        <time>2012-05-24T10:15:42Z</time>
      </trkpt>
      <trkpt lat="44.34518" lon="3.62697">
        <ele>598.936</ele>
        <time>2012-05-24T10:15:56Z</time>
      </trkpt>
      <trkpt lat="44.34516" lon="3.62682">
        <ele>598.024</ele>
        <time>2012-05-24T10:16:08Z</time>
      </trkpt>
      <trkpt lat="44.34522" lon="3.62677">
        <ele>598.517</ele>
        <time>2012-05-24T10:17:10Z</time>
      </trkpt>
      <trkpt lat="44.34524" lon="3.62665">
        <ele>600.605</ele>
        <time>2012-05-24T10:19:28Z</time>
      </trkpt>
      <trkpt lat="44.34524" lon="3.62654">
        <ele>600.736</ele>
        <time>2012-05-24T10:19:42Z</time>
      </trkpt>
      <trkpt lat="44.34525" lon="3.6265">
        <ele>600.794</ele>
        <time>2012-05-24T10:20:09Z</time>
      </trkpt>
      <trkpt lat="44.34524" lon="3.62634">
        <ele>600.754</ele>
        <time>2012-05-24T10:20:26Z</time>
      </trkpt>
      <trkpt lat="44.34525" lon="3.62624">
        <ele>600.974</ele>
        <time>2012-05-24T10:20:32Z</time>
      </trkpt>
      <trkpt lat="44.34525" lon="3.62618">
        <ele>600.673</ele>
        <time>2012-05-24T10:20:36Z</time>
      </trkpt>
      <trkpt lat="44.34527" lon="3.62611">
        <ele>600.989</ele>
        <time>2012-05-24T10:20:40Z</time>
      </trkpt>
      <trkpt lat="44.3453" lon="3.62594">
        <ele>600.594</ele>
        <time>2012-05-24T10:20:51Z</time>
      </trkpt>
      <trkpt lat="44.34533" lon="3.6259">
        <ele>600.515</ele>
        <time>2012-05-24T10:20:55Z</time>
      </trkpt>
      <trkpt lat="44.34546" lon="3.62571">
        <ele>599.338</ele>
        <time>2012-05-24T10:21:09Z</time>
      </trkpt>
      <trkpt lat="44.34548" lon="3.62566">
        <ele>599.289</ele>
        <time>2012-05-24T10:21:12Z</time>
      </trkpt>
      <trkpt lat="44.34555" lon="3.62559">
        <ele>598.521</ele>
        <time>2012-05-24T10:21:19Z</time>
      </trkpt>
      <trkpt lat="44.34571" lon="3.62528">
        <ele>597.107</ele>
        <time>2012-05-24T10:21:41Z</time>
      </trkpt>
      <trkpt lat="44.34574" lon="3.6251">
        <ele>597.167</ele>
        <time>2012-05-24T10:21:53Z</time>
      </trkpt>
      <trkpt lat="44.34577" lon="3.62482">
        <ele>598.952</ele>
        <time>2012-05-24T10:22:13Z</time>
      </trkpt>
      <trkpt lat="44.34576" lon="3.62478">
        <ele>598.256</ele>
        <time>2012-05-24T10:25:42Z</time>
      </trkpt>
      <trkpt lat="44.34574" lon="3.62474">
        <ele>598.369</ele>
        <time>2012-05-24T10:25:46Z</time>
      </trkpt>
      <trkpt lat="44.34572" lon="3.62466">
        <ele>598.593</ele>
        <time>2012-05-24T10:25:51Z</time>
      </trkpt>
      <trkpt lat="44.34571" lon="3.6245">
        <ele>599.195</ele>
        <time>2012-05-24T10:26:01Z</time>
      </trkpt>
      <trkpt lat="44.34572" lon="3.62431">
        <ele>599.189</ele>
        <time>2012-05-24T10:26:13Z</time>
      </trkpt>
      <trkpt lat="44.34577" lon="3.62398">
        <ele>599.398</ele>
        <time>2012-05-24T10:26:33Z</time>
      </trkpt>
      <trkpt lat="44.34579" lon="3.62391">
        <ele>599.569</ele>
        <time>2012-05-24T10:26:37Z</time>
      </trkpt>
      <trkpt lat="44.34583" lon="3.62388">
        <ele>599.544</ele>
        <time>2012-05-24T10:26:41Z</time>
      </trkpt>
      <trkpt lat="44.34585" lon="3.62387">
        <ele>599.566</ele>
        <time>2012-05-24T10:26:43Z</time>
      </trkpt>
      <trkpt lat="44.34592" lon="3.62365">
        <ele>600.195</ele>
        <time>2012-05-24T10:26:57Z</time>
      </trkpt>
      <trkpt lat="44.34594" lon="3.62357">
        <ele>600.082</ele>
        <time>2012-05-24T10:27:02Z</time>
      </trkpt>
      <trkpt lat="44.34598" lon="3.62353">
        <ele>600.585</ele>
        <time>2012-05-24T10:27:06Z</time>
      </trkpt>
      <trkpt lat="44.34602" lon="3.62341">
        <ele>600.924</ele>
        <time>2012-05-24T10:27:21Z</time>
      </trkpt>
      <trkpt lat="44.34603" lon="3.6231">
        <ele>601.82</ele>
        <time>2012-05-24T10:28:29Z</time>
      </trkpt>
      <trkpt lat="44.34591" lon="3.62305">
        <ele>602.579</ele>
        <time>2012-05-24T10:28:41Z</time>
      </trkpt>
      <trkpt lat="44.34587" lon="3.62297">
        <ele>602.612</ele>
        <time>2012-05-24T10:28:47Z</time>
      </trkpt>
      <trkpt lat="44.34583" lon="3.62262">
        <ele>604.532</ele>
        <time>2012-05-24T10:29:09Z</time>
      </trkpt>
      <trkpt lat="44.34582" lon="3.62244">
        <ele>605.101</ele>
        <time>2012-05-24T10:29:20Z</time>
      </trkpt>
      <trkpt lat="44.34585" lon="3.62233">
        <ele>605.016</ele>
        <time>2012-05-24T10:29:35Z</time>
      </trkpt>
      <trkpt lat="44.34575" lon="3.6221">
        <ele>604.71</ele>
        <time>2012-05-24T10:29:53Z</time>
      </trkpt>
      <trkpt lat="44.34572" lon="3.62195">
        <ele>603.752</ele>
        <time>2012-05-24T10:30:07Z</time>
      </trkpt>
      <trkpt lat="44.34565" lon="3.62171">
        <ele>602.133</ele>
        <time>2012-05-24T10:30:22Z</time>
      </trkpt>
      <trkpt lat="44.34558" lon="3.62137">
        <ele>599.794</ele>
        <time>2012-05-24T10:30:42Z</time>
      </trkpt>
      <trkpt lat="44.34552" lon="3.62113">
        <ele>598.247</ele>
        <time>2012-05-24T10:30:58Z</time>
      </trkpt>
      <trkpt lat="44.34549" lon="3.62108">
        <ele>597.648</ele>
        <time>2012-05-24T10:31:02Z</time>
      </trkpt>
      <trkpt lat="44.34546" lon="3.62104">
        <ele>596.942</ele>
        <time>2012-05-24T10:31:06Z</time>
      </trkpt>
      <trkpt lat="44.34535" lon="3.62063">
        <ele>595.085</ele>
        <time>2012-05-24T10:31:33Z</time>
      </trkpt>
      <trkpt lat="44.34534" lon="3.62056">
        <ele>594.197</ele>
        <time>2012-05-24T10:31:37Z</time>
      </trkpt>
      <trkpt lat="44.3453" lon="3.62047">
        <ele>593.774</ele>
        <time>2012-05-24T10:31:43Z</time>
      </trkpt>
      <trkpt lat="44.34523" lon="3.62032">
        <ele>593.279</ele>
        <time>2012-05-24T10:31:54Z</time>
      </trkpt>
      <trkpt lat="44.34521" lon="3.62029">
        <ele>592.684</ele>
        <time>2012-05-24T10:31:56Z</time>
      </trkpt>
      <trkpt lat="44.34517" lon="3.62022">
        <ele>592.926</ele>
        <time>2012-05-24T10:32:01Z</time>
      </trkpt>
      <trkpt lat="44.34506" lon="3.61996">
        <ele>592.487</ele>
        <time>2012-05-24T10:32:18Z</time>
      </trkpt>
      <trkpt lat="44.34499" lon="3.61985">
        <ele>592.147</ele>
        <time>2012-05-24T10:32:26Z</time>
      </trkpt>
      <trkpt lat="44.3448" lon="3.61947">
        <ele>592.321</ele>
        <time>2012-05-24T10:32:52Z</time>
      </trkpt>
      <trkpt lat="44.34478" lon="3.61935">
        <ele>591.4</ele>
        <time>2012-05-24T10:35:17Z</time>
      </trkpt>
      <trkpt lat="44.34488" lon="3.61935">
        <ele>589.418</ele>
        <time>2012-05-24T10:35:32Z</time>
      </trkpt>
      <trkpt lat="44.34498" lon="3.61928">
        <ele>587.721</ele>
        <time>2012-05-24T10:35:47Z</time>
      </trkpt>
      <trkpt lat="44.34502" lon="3.61922">
        <ele>585.711</ele>
        <time>2012-05-24T10:35:55Z</time>
      </trkpt>
      <trkpt lat="44.34509" lon="3.61915">
        <ele>584.346</ele>
        <time>2012-05-24T10:36:07Z</time>
      </trkpt>
      <trkpt lat="44.34514" lon="3.61902">
        <ele>582.475</ele>
        <time>2012-05-24T10:36:17Z</time>
      </trkpt>
      <trkpt lat="44.34525" lon="3.61902">
        <ele>578.265</ele>
        <time>2012-05-24T10:36:33Z</time>
      </trkpt>
      <trkpt lat="44.3453" lon="3.61899">
        <ele>576.089</ele>
        <time>2012-05-24T10:36:43Z</time>
      </trkpt>
      <trkpt lat="44.34531" lon="3.61891">
        <ele>573.129</ele>
        <time>2012-05-24T10:47:30Z</time>
      </trkpt>
      <trkpt lat="44.34535" lon="3.6189">
        <ele>569.747</ele>
        <time>2012-05-24T10:57:26Z</time>
      </trkpt>
      <trkpt lat="44.34542" lon="3.61892">
        <ele>569.098</ele>
        <time>2012-05-24T11:12:19Z</time>
      </trkpt>
      <trkpt lat="44.34534" lon="3.61893">
        <ele>569.246</ele>
        <time>2012-05-24T11:13:27Z</time>
      </trkpt>
      <trkpt lat="44.34532" lon="3.61899">
        <ele>569.069</ele>
        <time>2012-05-24T11:18:48Z</time>
      </trkpt>
      <trkpt lat="44.34527" lon="3.61903">
        <ele>573.434</ele>
        <time>2012-05-24T12:01:10Z</time>
      </trkpt>
      <trkpt lat="44.34521" lon="3.619">
        <ele>575.746</ele>
        <time>2012-05-24T12:01:25Z</time>
      </trkpt>
      <trkpt lat="44.34514" lon="3.61906">
        <ele>578.967</ele>
        <time>2012-05-24T12:01:42Z</time>
      </trkpt>
      <trkpt lat="44.34511" lon="3.61915">
        <ele>581.194</ele>
        <time>2012-05-24T12:01:56Z</time>
      </trkpt>
      <trkpt lat="44.34502" lon="3.61925">
        <ele>582.682</ele>
        <time>2012-05-24T12:02:10Z</time>
      </trkpt>
      <trkpt lat="44.34487" lon="3.61936">
        <ele>585.443</ele>
        <time>2012-05-24T12:02:26Z</time>
      </trkpt>
      <trkpt lat="44.34476" lon="3.61931">
        <ele>587.529</ele>
        <time>2012-05-24T12:03:28Z</time>
      </trkpt>
      <trkpt lat="44.34466" lon="3.61911">
        <ele>586.852</ele>
        <time>2012-05-24T12:03:47Z</time>
      </trkpt>
      <trkpt lat="44.34466" lon="3.61909">
        <ele>587.238</ele>
        <time>2012-05-24T12:03:49Z</time>
      </trkpt>
      <trkpt lat="44.34458" lon="3.61892">
        <ele>586.435</ele>
        <time>2012-05-24T12:04:06Z</time>
      </trkpt>
      <trkpt lat="44.34449" lon="3.61877">
        <ele>586.169</ele>
        <time>2012-05-24T12:04:20Z</time>
      </trkpt>
      <trkpt lat="44.34444" lon="3.6187">
        <ele>585.86</ele>
        <time>2012-05-24T12:04:27Z</time>
      </trkpt>
      <trkpt lat="44.34438" lon="3.61867">
        <ele>585.651</ele>
        <time>2012-05-24T12:04:32Z</time>
      </trkpt>
      <trkpt lat="44.34434" lon="3.61861">
        <ele>585.348</ele>
        <time>2012-05-24T12:04:39Z</time>
      </trkpt>
      <trkpt lat="44.34426" lon="3.61843">
        <ele>584.612</ele>
        <time>2012-05-24T12:04:52Z</time>
      </trkpt>
      <trkpt lat="44.34425" lon="3.6184">
        <ele>584.507</ele>
        <time>2012-05-24T12:04:54Z</time>
      </trkpt>
      <trkpt lat="44.34417" lon="3.61817">
        <ele>584.019</ele>
        <time>2012-05-24T12:05:10Z</time>
      </trkpt>
      <trkpt lat="44.34415" lon="3.61807">
        <ele>583.66</ele>
        <time>2012-05-24T12:05:17Z</time>
      </trkpt>
      <trkpt lat="44.34403" lon="3.61784">
        <ele>582.066</ele>
        <time>2012-05-24T12:05:35Z</time>
      </trkpt>
      <trkpt lat="44.34394" lon="3.61755">
        <ele>579.807</ele>
        <time>2012-05-24T12:05:55Z</time>
      </trkpt>
      <trkpt lat="44.34392" lon="3.61741">
        <ele>579.896</ele>
        <time>2012-05-24T12:06:04Z</time>
      </trkpt>
      <trkpt lat="44.34402" lon="3.61709">
        <ele>578.87</ele>
        <time>2012-05-24T12:06:24Z</time>
      </trkpt>
      <trkpt lat="44.34398" lon="3.61673">
        <ele>578.801</ele>
        <time>2012-05-24T12:06:45Z</time>
      </trkpt>
      <trkpt lat="44.34393" lon="3.61664">
        <ele>578.587</ele>
        <time>2012-05-24T12:07:03Z</time>
      </trkpt>
      <trkpt lat="44.34391" lon="3.6165">
        <ele>578.701</ele>
        <time>2012-05-24T12:07:16Z</time>
      </trkpt>
      <trkpt lat="44.34388" lon="3.61637">
        <ele>578.672</ele>
        <time>2012-05-24T12:07:24Z</time>
      </trkpt>
      <trkpt lat="44.34384" lon="3.61628">
        <ele>578.35</ele>
        <time>2012-05-24T12:07:30Z</time>
      </trkpt>
      <trkpt lat="44.34382" lon="3.61622">
        <ele>578.762</ele>
        <time>2012-05-24T12:07:34Z</time>
      </trkpt>
      <trkpt lat="44.3438" lon="3.61619">
        <ele>578.628</ele>
        <time>2012-05-24T12:07:37Z</time>
      </trkpt>
      <trkpt lat="44.34375" lon="3.61608">
        <ele>578.714</ele>
        <time>2012-05-24T12:07:46Z</time>
      </trkpt>
      <trkpt lat="44.34374" lon="3.61606">
        <ele>578.444</ele>
        <time>2012-05-24T12:07:48Z</time>
      </trkpt>
      <trkpt lat="44.34372" lon="3.616">
        <ele>578.57</ele>
        <time>2012-05-24T12:07:52Z</time>
      </trkpt>
      <trkpt lat="44.34365" lon="3.61586">
        <ele>578.109</ele>
        <time>2012-05-24T12:08:02Z</time>
      </trkpt>
      <trkpt lat="44.34364" lon="3.61583">
        <ele>577.982</ele>
        <time>2012-05-24T12:08:04Z</time>
      </trkpt>
      <trkpt lat="44.34364" lon="3.61572">
        <ele>577.809</ele>
        <time>2012-05-24T12:08:11Z</time>
      </trkpt>
      <trkpt lat="44.34359" lon="3.61558">
        <ele>577.643</ele>
        <time>2012-05-24T12:08:19Z</time>
      </trkpt>
      <trkpt lat="44.34353" lon="3.61538">
        <ele>577.956</ele>
        <time>2012-05-24T12:08:34Z</time>
      </trkpt>
      <trkpt lat="44.34351" lon="3.61526">
        <ele>578.371</ele>
        <time>2012-05-24T12:08:44Z</time>
      </trkpt>
      <trkpt lat="44.34349" lon="3.61512">
        <ele>577.915</ele>
        <time>2012-05-24T12:08:51Z</time>
      </trkpt>
      <trkpt lat="44.34347" lon="3.61492">
        <ele>577.662</ele>
        <time>2012-05-24T12:08:59Z</time>
      </trkpt>
      <trkpt lat="44.34345" lon="3.61483">
        <ele>577.945</ele>
        <time>2012-05-24T12:09:05Z</time>
      </trkpt>
      <trkpt lat="44.34343" lon="3.61478">
        <ele>578.204</ele>
        <time>2012-05-24T12:09:08Z</time>
      </trkpt>
      <trkpt lat="44.34342" lon="3.61469">
        <ele>577.893</ele>
        <time>2012-05-24T12:09:13Z</time>
      </trkpt>
      <trkpt lat="44.34341" lon="3.61466">
        <ele>577.845</ele>
        <time>2012-05-24T12:09:15Z</time>
      </trkpt>
      <trkpt lat="44.3434" lon="3.61463">
        <ele>577.816</ele>
        <time>2012-05-24T12:09:17Z</time>
      </trkpt>
      <trkpt lat="44.34336" lon="3.61451">
        <ele>577.541</ele>
        <time>2012-05-24T12:09:26Z</time>
      </trkpt>
      <trkpt lat="44.34335" lon="3.6143">
        <ele>577.437</ele>
        <time>2012-05-24T12:09:36Z</time>
      </trkpt>
      <trkpt lat="44.34335" lon="3.61425">
        <ele>577.3</ele>
        <time>2012-05-24T12:09:39Z</time>
      </trkpt>
      <trkpt lat="44.34335" lon="3.61419">
        <ele>577.626</ele>
        <time>2012-05-24T12:09:42Z</time>
      </trkpt>
      <trkpt lat="44.34335" lon="3.61411">
        <ele>577.47</ele>
        <time>2012-05-24T12:09:47Z</time>
      </trkpt>
      <trkpt lat="44.3433" lon="3.61396">
        <ele>577.316</ele>
        <time>2012-05-24T12:10:01Z</time>
      </trkpt>
      <trkpt lat="44.34327" lon="3.61379">
        <ele>577.311</ele>
        <time>2012-05-24T12:10:17Z</time>
      </trkpt>
      <trkpt lat="44.34326" lon="3.61376">
        <ele>576.996</ele>
        <time>2012-05-24T12:10:20Z</time>
      </trkpt>
      <trkpt lat="44.34322" lon="3.61363">
        <ele>576.739</ele>
        <time>2012-05-24T12:10:29Z</time>
      </trkpt>
      <trkpt lat="44.34324" lon="3.61342">
        <ele>576.842</ele>
        <time>2012-05-24T12:10:42Z</time>
      </trkpt>
      <trkpt lat="44.34322" lon="3.61327">
        <ele>576.185</ele>
        <time>2012-05-24T12:10:54Z</time>
      </trkpt>
      <trkpt lat="44.34322" lon="3.61315">
        <ele>576.538</ele>
        <time>2012-05-24T12:11:03Z</time>
      </trkpt>
      <trkpt lat="44.34326" lon="3.61306">
        <ele>576.224</ele>
        <time>2012-05-24T12:11:07Z</time>
      </trkpt>
      <trkpt lat="44.34324" lon="3.61282">
        <ele>575.902</ele>
        <time>2012-05-24T12:11:23Z</time>
      </trkpt>
      <trkpt lat="44.34324" lon="3.61265">
        <ele>576.555</ele>
        <time>2012-05-24T12:11:30Z</time>
      </trkpt>
      <trkpt lat="44.34324" lon="3.61258">
        <ele>576.338</ele>
        <time>2012-05-24T12:11:35Z</time>
      </trkpt>
      <trkpt lat="44.34324" lon="3.61239">
        <ele>577.678</ele>
        <time>2012-05-24T12:11:49Z</time>
      </trkpt>
      <trkpt lat="44.34327" lon="3.61217">
        <ele>579.275</ele>
        <time>2012-05-24T12:12:00Z</time>
      </trkpt>
      <trkpt lat="44.34329" lon="3.61208">
        <ele>579.859</ele>
        <time>2012-05-24T12:12:05Z</time>
      </trkpt>
      <trkpt lat="44.34339" lon="3.61185">
        <ele>581.016</ele>
        <time>2012-05-24T12:12:21Z</time>
      </trkpt>
      <trkpt lat="44.34345" lon="3.61163">
        <ele>582.567</ele>
        <time>2012-05-24T12:12:35Z</time>
      </trkpt>
      <trkpt lat="44.34355" lon="3.61148">
        <ele>583.241</ele>
        <time>2012-05-24T12:12:47Z</time>
      </trkpt>
      <trkpt lat="44.34372" lon="3.61128">
        <ele>582.092</ele>
        <time>2012-05-24T12:13:04Z</time>
      </trkpt>
      <trkpt lat="44.34391" lon="3.61104">
        <ele>578.765</ele>
        <time>2012-05-24T12:13:25Z</time>
      </trkpt>
      <trkpt lat="44.34396" lon="3.61088">
        <ele>578.268</ele>
        <time>2012-05-24T12:13:37Z</time>
      </trkpt>
      <trkpt lat="44.34396" lon="3.61064">
        <ele>577.309</ele>
        <time>2012-05-24T12:13:55Z</time>
      </trkpt>
      <trkpt lat="44.34397" lon="3.61058">
        <ele>576.624</ele>
        <time>2012-05-24T12:13:59Z</time>
      </trkpt>
      <trkpt lat="44.34407" lon="3.6104">
        <ele>574.206</ele>
        <time>2012-05-24T12:14:17Z</time>
      </trkpt>
      <trkpt lat="44.34409" lon="3.61037">
        <ele>574.181</ele>
        <time>2012-05-24T12:14:20Z</time>
      </trkpt>
      <trkpt lat="44.34418" lon="3.61025">
        <ele>572.087</ele>
        <time>2012-05-24T12:14:33Z</time>
      </trkpt>
      <trkpt lat="44.34425" lon="3.61009">
        <ele>570.173</ele>
        <time>2012-05-24T12:14:49Z</time>
      </trkpt>
      <trkpt lat="44.34444" lon="3.61">
        <ele>569.099</ele>
        <time>2012-05-24T12:15:10Z</time>
      </trkpt>
      <trkpt lat="44.3445" lon="3.61002">
        <ele>568.219</ele>
        <time>2012-05-24T12:16:58Z</time>
      </trkpt>
      <trkpt lat="44.34455" lon="3.61012">
        <ele>567.993</ele>
        <time>2012-05-24T12:17:06Z</time>
      </trkpt>
      <trkpt lat="44.34478" lon="3.61034">
        <ele>567.587</ele>
        <time>2012-05-24T12:17:27Z</time>
      </trkpt>
      <trkpt lat="44.34497" lon="3.61053">
        <ele>567.844</ele>
        <time>2012-05-24T12:17:46Z</time>
      </trkpt>
      <trkpt lat="44.34506" lon="3.61066">
        <ele>567.791</ele>
        <time>2012-05-24T12:17:59Z</time>
      </trkpt>
      <trkpt lat="44.34512" lon="3.61073">
        <ele>567.127</ele>
        <time>2012-05-24T12:18:07Z</time>
      </trkpt>
      <trkpt lat="44.3452" lon="3.61066">
        <ele>567.063</ele>
        <time>2012-05-24T12:18:18Z</time>
      </trkpt>
      <trkpt lat="44.34521" lon="3.61065">
        <ele>566.566</ele>
        <time>2012-05-24T12:18:19Z</time>
      </trkpt>
      <trkpt lat="44.34528" lon="3.61054">
        <ele>566.388</ele>
        <time>2012-05-24T12:18:27Z</time>
      </trkpt>
      <trkpt lat="44.3453" lon="3.61049">
        <ele>566.577</ele>
        <time>2012-05-24T12:18:30Z</time>
      </trkpt>
      <trkpt lat="44.3453" lon="3.61045">
        <ele>566.518</ele>
        <time>2012-05-24T12:18:32Z</time>
      </trkpt>
      <trkpt lat="44.34532" lon="3.61039">
        <ele>566.147</ele>
        <time>2012-05-24T12:18:36Z</time>
      </trkpt>
      <trkpt lat="44.34542" lon="3.6102">
        <ele>566.4</ele>
        <time>2012-05-24T12:18:52Z</time>
      </trkpt>
      <trkpt lat="44.34541" lon="3.61017">
        <ele>565.846</ele>
        <time>2012-05-24T12:18:54Z</time>
      </trkpt>
      <trkpt lat="44.34543" lon="3.61013">
        <ele>565.924</ele>
        <time>2012-05-24T12:18:57Z</time>
      </trkpt>
      <trkpt lat="44.34547" lon="3.61003">
        <ele>565.822</ele>
        <time>2012-05-24T12:19:04Z</time>
      </trkpt>
      <trkpt lat="44.34555" lon="3.60995">
        <ele>564.808</ele>
        <time>2012-05-24T12:19:12Z</time>
      </trkpt>
      <trkpt lat="44.3456" lon="3.60981">
        <ele>564.639</ele>
        <time>2012-05-24T12:19:19Z</time>
      </trkpt>
      <trkpt lat="44.34561" lon="3.60977">
        <ele>564.647</ele>
        <time>2012-05-24T12:19:22Z</time>
      </trkpt>
      <trkpt lat="44.34567" lon="3.60964">
        <ele>564.297</ele>
        <time>2012-05-24T12:19:29Z</time>
      </trkpt>
      <trkpt lat="44.34567" lon="3.60959">
        <ele>564.235</ele>
        <time>2012-05-24T12:19:31Z</time>
      </trkpt>
      <trkpt lat="44.34568" lon="3.60956">
        <ele>563.946</ele>
        <time>2012-05-24T12:19:33Z</time>
      </trkpt>
      <trkpt lat="44.34569" lon="3.60949">
        <ele>564.144</ele>
        <time>2012-05-24T12:19:37Z</time>
      </trkpt>
      <trkpt lat="44.34569" lon="3.6094">
        <ele>563.851</ele>
        <time>2012-05-24T12:19:41Z</time>
      </trkpt>
      <trkpt lat="44.34572" lon="3.60928">
        <ele>563.613</ele>
        <time>2012-05-24T12:19:47Z</time>
      </trkpt>
      <trkpt lat="44.34575" lon="3.60909">
        <ele>563.561</ele>
        <time>2012-05-24T12:19:56Z</time>
      </trkpt>
      <trkpt lat="44.34577" lon="3.60894">
        <ele>563.202</ele>
        <time>2012-05-24T12:20:06Z</time>
      </trkpt>
      <trkpt lat="44.34584" lon="3.60883">
        <ele>563.209</ele>
        <time>2012-05-24T12:20:17Z</time>
      </trkpt>
      <trkpt lat="44.34584" lon="3.60871">
        <ele>563.225</ele>
        <time>2012-05-24T12:20:23Z</time>
      </trkpt>
      <trkpt lat="44.34592" lon="3.60861">
        <ele>563.571</ele>
        <time>2012-05-24T12:20:30Z</time>
      </trkpt>
      <trkpt lat="44.34594" lon="3.60851">
        <ele>563.613</ele>
        <time>2012-05-24T12:20:34Z</time>
      </trkpt>
      <trkpt lat="44.34597" lon="3.60849">
        <ele>563.841</ele>
        <time>2012-05-24T12:20:36Z</time>
      </trkpt>
      <trkpt lat="44.34601" lon="3.60838">
        <ele>563.712</ele>
        <time>2012-05-24T12:20:42Z</time>
      </trkpt>
      <trkpt lat="44.34603" lon="3.60833">
        <ele>564.189</ele>
        <time>2012-05-24T12:20:45Z</time>
      </trkpt>
      <trkpt lat="44.34611" lon="3.60816">
        <ele>563.682</ele>
        <time>2012-05-24T12:20:57Z</time>
      </trkpt>
      <trkpt lat="44.34616" lon="3.60806">
        <ele>564.306</ele>
        <time>2012-05-24T12:21:04Z</time>
      </trkpt>
      <trkpt lat="44.3462" lon="3.60799">
        <ele>563.89</ele>
        <time>2012-05-24T12:21:08Z</time>
      </trkpt>
      <trkpt lat="44.34628" lon="3.60785">
        <ele>563.181</ele>
        <time>2012-05-24T12:21:19Z</time>
      </trkpt>
      <trkpt lat="44.34635" lon="3.6077">
        <ele>562.959</ele>
        <time>2012-05-24T12:21:30Z</time>
      </trkpt>
      <trkpt lat="44.34644" lon="3.60754">
        <ele>562.953</ele>
        <time>2012-05-24T12:21:40Z</time>
      </trkpt>
      <trkpt lat="44.34646" lon="3.60747">
        <ele>562.747</ele>
        <time>2012-05-24T12:21:44Z</time>
      </trkpt>
      <trkpt lat="44.34647" lon="3.60738">
        <ele>562.455</ele>
        <time>2012-05-24T12:21:50Z</time>
      </trkpt>
      <trkpt lat="44.34647" lon="3.60722">
        <ele>562.429</ele>
        <time>2012-05-24T12:21:59Z</time>
      </trkpt>
      <trkpt lat="44.34647" lon="3.60719">
        <ele>562.453</ele>
        <time>2012-05-24T12:22:01Z</time>
      </trkpt>
      <trkpt lat="44.34645" lon="3.60715">
        <ele>562.456</ele>
        <time>2012-05-24T12:22:03Z</time>
      </trkpt>
      <trkpt lat="44.34644" lon="3.60708">
        <ele>562.354</ele>
        <time>2012-05-24T12:22:07Z</time>
      </trkpt>
      <trkpt lat="44.34644" lon="3.60695">
        <ele>562.123</ele>
        <time>2012-05-24T12:22:15Z</time>
      </trkpt>
      <trkpt lat="44.34647" lon="3.6067">
        <ele>561.634</ele>
        <time>2012-05-24T12:22:31Z</time>
      </trkpt>
      <trkpt lat="44.34647" lon="3.60665">
        <ele>561.854</ele>
        <time>2012-05-24T12:22:34Z</time>
      </trkpt>
      <trkpt lat="44.34649" lon="3.60654">
        <ele>562.594</ele>
        <time>2012-05-24T12:22:49Z</time>
      </trkpt>
      <trkpt lat="44.3465" lon="3.60652">
        <ele>561.966</ele>
        <time>2012-05-24T12:22:51Z</time>
      </trkpt>
      <trkpt lat="44.34656" lon="3.60641">
        <ele>562.267</ele>
        <time>2012-05-24T12:23:00Z</time>
      </trkpt>
      <trkpt lat="44.34664" lon="3.60624">
        <ele>562.331</ele>
        <time>2012-05-24T12:23:13Z</time>
      </trkpt>
      <trkpt lat="44.34664" lon="3.60611">
        <ele>562.83</ele>
        <time>2012-05-24T12:23:19Z</time>
      </trkpt>
      <trkpt lat="44.34664" lon="3.60608">
        <ele>562.946</ele>
        <time>2012-05-24T12:23:21Z</time>
      </trkpt>
      <trkpt lat="44.34659" lon="3.60586">
        <ele>563.667</ele>
        <time>2012-05-24T12:23:35Z</time>
      </trkpt>
      <trkpt lat="44.34658" lon="3.60579">
        <ele>563.141</ele>
        <time>2012-05-24T12:23:39Z</time>
      </trkpt>
      <trkpt lat="44.3466" lon="3.60568">
        <ele>563.277</ele>
        <time>2012-05-24T12:23:46Z</time>
      </trkpt>
      <trkpt lat="44.34654" lon="3.60542">
        <ele>563.463</ele>
        <time>2012-05-24T12:24:03Z</time>
      </trkpt>
      <trkpt lat="44.34654" lon="3.60539">
        <ele>563.741</ele>
        <time>2012-05-24T12:24:29Z</time>
      </trkpt>
      <trkpt lat="44.34652" lon="3.60533">
        <ele>564.595</ele>
        <time>2012-05-24T12:24:35Z</time>
      </trkpt>
      <trkpt lat="44.34649" lon="3.60518">
        <ele>566.227</ele>
        <time>2012-05-24T12:24:49Z</time>
      </trkpt>
      <trkpt lat="44.34649" lon="3.60514">
        <ele>566.521</ele>
        <time>2012-05-24T12:24:52Z</time>
      </trkpt>
      <trkpt lat="44.34648" lon="3.60511">
        <ele>566.774</ele>
        <time>2012-05-24T12:24:54Z</time>
      </trkpt>
      <trkpt lat="44.34644" lon="3.60505">
        <ele>566.759</ele>
        <time>2012-05-24T12:25:00Z</time>
      </trkpt>
      <trkpt lat="44.34641" lon="3.60502">
        <ele>566.787</ele>
        <time>2012-05-24T12:25:02Z</time>
      </trkpt>
      <trkpt lat="44.34639" lon="3.60498">
        <ele>566.631</ele>
        <time>2012-05-24T12:25:05Z</time>
      </trkpt>
      <trkpt lat="44.34631" lon="3.60473">
        <ele>566.509</ele>
        <time>2012-05-24T12:25:22Z</time>
      </trkpt>
      <trkpt lat="44.34625" lon="3.60456">
        <ele>568.161</ele>
        <time>2012-05-24T12:25:35Z</time>
      </trkpt>
      <trkpt lat="44.34625" lon="3.60454">
        <ele>568.37</ele>
        <time>2012-05-24T12:25:37Z</time>
      </trkpt>
      <trkpt lat="44.34623" lon="3.60449">
        <ele>568.712</ele>
        <time>2012-05-24T12:25:42Z</time>
      </trkpt>
      <trkpt lat="44.3462" lon="3.60443">
        <ele>569.084</ele>
        <time>2012-05-24T12:25:47Z</time>
      </trkpt>
      <trkpt lat="44.34613" lon="3.60423">
        <ele>570.331</ele>
        <time>2012-05-24T12:26:03Z</time>
      </trkpt>
      <trkpt lat="44.3461" lon="3.6041">
        <ele>571.482</ele>
        <time>2012-05-24T12:26:13Z</time>
      </trkpt>
      <trkpt lat="44.34594" lon="3.6038">
        <ele>572.29</ele>
        <time>2012-05-24T12:26:55Z</time>
      </trkpt>
      <trkpt lat="44.34589" lon="3.60372">
        <ele>571.433</ele>
        <time>2012-05-24T12:27:21Z</time>
      </trkpt>
      <trkpt lat="44.34586" lon="3.60368">
        <ele>570.979</ele>
        <time>2012-05-24T12:27:25Z</time>
      </trkpt>
      <trkpt lat="44.3458" lon="3.60363">
        <ele>569.416</ele>
        <time>2012-05-24T12:27:46Z</time>
      </trkpt>
      <trkpt lat="44.34573" lon="3.60356">
        <ele>568.629</ele>
        <time>2012-05-24T12:27:57Z</time>
      </trkpt>
      <trkpt lat="44.34572" lon="3.60353">
        <ele>568.207</ele>
        <time>2012-05-24T12:27:59Z</time>
      </trkpt>
      <trkpt lat="44.3457" lon="3.60349">
        <ele>566.711</ele>
        <time>2012-05-24T12:28:03Z</time>
      </trkpt>
      <trkpt lat="44.34565" lon="3.60343">
        <ele>566.26</ele>
        <time>2012-05-24T12:28:10Z</time>
      </trkpt>
      <trkpt lat="44.34562" lon="3.60327">
        <ele>563.424</ele>
        <time>2012-05-24T12:28:23Z</time>
      </trkpt>
      <trkpt lat="44.34557" lon="3.6031">
        <ele>559.972</ele>
        <time>2012-05-24T12:28:36Z</time>
      </trkpt>
      <trkpt lat="44.34556" lon="3.60308">
        <ele>559.212</ele>
        <time>2012-05-24T12:28:39Z</time>
      </trkpt>
      <trkpt lat="44.34548" lon="3.60296">
        <ele>556.537</ele>
        <time>2012-05-24T12:28:51Z</time>
      </trkpt>
      <trkpt lat="44.34541" lon="3.60274">
        <ele>555.875</ele>
        <time>2012-05-24T12:29:06Z</time>
      </trkpt>
      <trkpt lat="44.34535" lon="3.60256">
        <ele>555.638</ele>
        <time>2012-05-24T12:29:15Z</time>
      </trkpt>
      <trkpt lat="44.34531" lon="3.60247">
        <ele>555.516</ele>
        <time>2012-05-24T12:29:25Z</time>
      </trkpt>
      <trkpt lat="44.34529" lon="3.60238">
        <ele>555.829</ele>
        <time>2012-05-24T12:29:30Z</time>
      </trkpt>
      <trkpt lat="44.34522" lon="3.60217">
        <ele>555.417</ele>
        <time>2012-05-24T12:29:42Z</time>
      </trkpt>
      <trkpt lat="44.34522" lon="3.60211">
        <ele>555.882</ele>
        <time>2012-05-24T12:29:46Z</time>
      </trkpt>
      <trkpt lat="44.34522" lon="3.60207">
        <ele>555.97</ele>
        <time>2012-05-24T12:29:49Z</time>
      </trkpt>
      <trkpt lat="44.34521" lon="3.60203">
        <ele>555.792</ele>
        <time>2012-05-24T12:29:52Z</time>
      </trkpt>
      <trkpt lat="44.34517" lon="3.6019">
        <ele>556.007</ele>
        <time>2012-05-24T12:30:00Z</time>
      </trkpt>
      <trkpt lat="44.34514" lon="3.60164">
        <ele>556.164</ele>
        <time>2012-05-24T12:30:17Z</time>
      </trkpt>
      <trkpt lat="44.34506" lon="3.60128">
        <ele>556.614</ele>
        <time>2012-05-24T12:30:41Z</time>
      </trkpt>
      <trkpt lat="44.34502" lon="3.60112">
        <ele>557.212</ele>
        <time>2012-05-24T12:30:54Z</time>
      </trkpt>
      <trkpt lat="44.34499" lon="3.60103">
        <ele>556.526</ele>
        <time>2012-05-24T12:31:13Z</time>
      </trkpt>
      <trkpt lat="44.34499" lon="3.60098">
        <ele>556.726</ele>
        <time>2012-05-24T12:31:39Z</time>
      </trkpt>
      <trkpt lat="44.34497" lon="3.60091">
        <ele>556.354</ele>
        <time>2012-05-24T12:32:14Z</time>
      </trkpt>
      <trkpt lat="44.3449" lon="3.60058">
        <ele>557.714</ele>
        <time>2012-05-24T12:32:38Z</time>
      </trkpt>
      <trkpt lat="44.34488" lon="3.60042">
        <ele>557.472</ele>
        <time>2012-05-24T12:32:49Z</time>
      </trkpt>
      <trkpt lat="44.34486" lon="3.60031">
        <ele>557.445</ele>
        <time>2012-05-24T12:32:56Z</time>
      </trkpt>
      <trkpt lat="44.34482" lon="3.60018">
        <ele>557.213</ele>
        <time>2012-05-24T12:33:11Z</time>
      </trkpt>
      <trkpt lat="44.34479" lon="3.6">
        <ele>556.596</ele>
        <time>2012-05-24T12:33:28Z</time>
      </trkpt>
      <trkpt lat="44.34478" lon="3.59993">
        <ele>556.988</ele>
        <time>2012-05-24T12:33:33Z</time>
      </trkpt>
      <trkpt lat="44.3447" lon="3.59965">
        <ele>556.887</ele>
        <time>2012-05-24T12:33:49Z</time>
      </trkpt>
      <trkpt lat="44.34469" lon="3.59959">
        <ele>556.862</ele>
        <time>2012-05-24T12:33:52Z</time>
      </trkpt>
      <trkpt lat="44.34467" lon="3.59955">
        <ele>556.772</ele>
        <time>2012-05-24T12:33:54Z</time>
      </trkpt>
      <trkpt lat="44.34465" lon="3.59941">
        <ele>556.557</ele>
        <time>2012-05-24T12:34:03Z</time>
      </trkpt>
      <trkpt lat="44.34465" lon="3.59914">
        <ele>556.911</ele>
        <time>2012-05-24T12:34:20Z</time>
      </trkpt>
      <trkpt lat="44.34472" lon="3.59875">
        <ele>556.717</ele>
        <time>2012-05-24T12:34:44Z</time>
      </trkpt>
      <trkpt lat="44.3448" lon="3.59828">
        <ele>556.234</ele>
        <time>2012-05-24T12:35:13Z</time>
      </trkpt>
      <trkpt lat="44.34483" lon="3.59804">
        <ele>556.031</ele>
        <time>2012-05-24T12:35:27Z</time>
      </trkpt>
      <trkpt lat="44.34482" lon="3.59798">
        <ele>555.614</ele>
        <time>2012-05-24T12:35:31Z</time>
      </trkpt>
      <trkpt lat="44.34483" lon="3.59759">
        <ele>555.415</ele>
        <time>2012-05-24T12:35:54Z</time>
      </trkpt>
      <trkpt lat="44.34479" lon="3.59721">
        <ele>555.173</ele>
        <time>2012-05-24T12:36:18Z</time>
      </trkpt>
      <trkpt lat="44.34471" lon="3.59672">
        <ele>554.486</ele>
        <time>2012-05-24T12:36:47Z</time>
      </trkpt>
      <trkpt lat="44.34466" lon="3.59637">
        <ele>554.755</ele>
        <time>2012-05-24T12:37:08Z</time>
      </trkpt>
      <trkpt lat="44.34467" lon="3.59595">
        <ele>554.539</ele>
        <time>2012-05-24T12:37:32Z</time>
      </trkpt>
      <trkpt lat="44.34474" lon="3.59549">
        <ele>554.217</ele>
        <time>2012-05-24T12:37:59Z</time>
      </trkpt>
      <trkpt lat="44.34482" lon="3.5951">
        <ele>554.726</ele>
        <time>2012-05-24T12:38:22Z</time>
      </trkpt>
      <trkpt lat="44.34492" lon="3.59466">
        <ele>554.237</ele>
        <time>2012-05-24T12:38:49Z</time>
      </trkpt>
      <trkpt lat="44.345" lon="3.59437">
        <ele>553.693</ele>
        <time>2012-05-24T12:39:08Z</time>
      </trkpt>
      <trkpt lat="44.34507" lon="3.59412">
        <ele>553.554</ele>
        <time>2012-05-24T12:39:25Z</time>
      </trkpt>
      <trkpt lat="44.34514" lon="3.59384">
        <ele>552.799</ele>
        <time>2012-05-24T12:39:42Z</time>
      </trkpt>
      <trkpt lat="44.34523" lon="3.59349">
        <ele>552.919</ele>
        <time>2012-05-24T12:40:03Z</time>
      </trkpt>
      <trkpt lat="44.34533" lon="3.59315">
        <ele>552.739</ele>
        <time>2012-05-24T12:40:25Z</time>
      </trkpt>
      <trkpt lat="44.34552" lon="3.59265">
        <ele>552.202</ele>
        <time>2012-05-24T12:40:55Z</time>
      </trkpt>
      <trkpt lat="44.34563" lon="3.5923">
        <ele>551.971</ele>
        <time>2012-05-24T12:41:17Z</time>
      </trkpt>
      <trkpt lat="44.34567" lon="3.59211">
        <ele>551.616</ele>
        <time>2012-05-24T12:41:29Z</time>
      </trkpt>
      <trkpt lat="44.34575" lon="3.59197">
        <ele>551.735</ele>
        <time>2012-05-24T12:41:40Z</time>
      </trkpt>
      <trkpt lat="44.34583" lon="3.59186">
        <ele>551.657</ele>
        <time>2012-05-24T12:41:49Z</time>
      </trkpt>
      <trkpt lat="44.34588" lon="3.59184">
        <ele>552.212</ele>
        <time>2012-05-24T12:41:53Z</time>
      </trkpt>
      <trkpt lat="44.3459" lon="3.59181">
        <ele>551.642</ele>
        <time>2012-05-24T12:41:55Z</time>
      </trkpt>
      <trkpt lat="44.34593" lon="3.59179">
        <ele>551.751</ele>
        <time>2012-05-24T12:41:58Z</time>
      </trkpt>
      <trkpt lat="44.34595" lon="3.59178">
        <ele>551.344</ele>
        <time>2012-05-24T12:42:00Z</time>
      </trkpt>
      <trkpt lat="44.34609" lon="3.59159">
        <ele>551.809</ele>
        <time>2012-05-24T12:42:16Z</time>
      </trkpt>
      <trkpt lat="44.34627" lon="3.59141">
        <ele>552.919</ele>
        <time>2012-05-24T12:42:35Z</time>
      </trkpt>
      <trkpt lat="44.34636" lon="3.59136">
        <ele>554.441</ele>
        <time>2012-05-24T12:42:47Z</time>
      </trkpt>
      <trkpt lat="44.34651" lon="3.59139">
        <ele>555.766</ele>
        <time>2012-05-24T12:43:01Z</time>
      </trkpt>
      <trkpt lat="44.34648" lon="3.59125">
        <ele>556.394</ele>
        <time>2012-05-24T12:43:14Z</time>
      </trkpt>
      <trkpt lat="44.34647" lon="3.5912">
        <ele>556.301</ele>
        <time>2012-05-24T12:43:17Z</time>
      </trkpt>
      <trkpt lat="44.34647" lon="3.59118">
        <ele>556.548</ele>
        <time>2012-05-24T12:43:19Z</time>
      </trkpt>
      <trkpt lat="44.34645" lon="3.59108">
        <ele>558.013</ele>
        <time>2012-05-24T12:43:28Z</time>
      </trkpt>
      <trkpt lat="44.34638" lon="3.59095">
        <ele>558.753</ele>
        <time>2012-05-24T12:43:37Z</time>
      </trkpt>
      <trkpt lat="44.34634" lon="3.59081">
        <ele>560.779</ele>
        <time>2012-05-24T12:43:50Z</time>
      </trkpt>
      <trkpt lat="44.34629" lon="3.59067">
        <ele>561.998</ele>
        <time>2012-05-24T12:44:01Z</time>
      </trkpt>
      <trkpt lat="44.34624" lon="3.59051">
        <ele>563.387</ele>
        <time>2012-05-24T12:44:13Z</time>
      </trkpt>
      <trkpt lat="44.34621" lon="3.5904">
        <ele>564.164</ele>
        <time>2012-05-24T12:44:21Z</time>
      </trkpt>
      <trkpt lat="44.34615" lon="3.59027">
        <ele>565.29</ele>
        <time>2012-05-24T12:44:32Z</time>
      </trkpt>
      <trkpt lat="44.34613" lon="3.59014">
        <ele>567.061</ele>
        <time>2012-05-24T12:44:43Z</time>
      </trkpt>
      <trkpt lat="44.34609" lon="3.59">
        <ele>568.15</ele>
        <time>2012-05-24T12:44:56Z</time>
      </trkpt>
      <trkpt lat="44.34601" lon="3.58986">
        <ele>569.831</ele>
        <time>2012-05-24T12:45:09Z</time>
      </trkpt>
      <trkpt lat="44.34599" lon="3.58983">
        <ele>570.663</ele>
        <time>2012-05-24T12:45:11Z</time>
      </trkpt>
      <trkpt lat="44.34594" lon="3.58961">
        <ele>571.174</ele>
        <time>2012-05-24T12:45:26Z</time>
      </trkpt>
      <trkpt lat="44.34592" lon="3.58943">
        <ele>573.217</ele>
        <time>2012-05-24T12:45:42Z</time>
      </trkpt>
      <trkpt lat="44.34594" lon="3.58937">
        <ele>573.631</ele>
        <time>2012-05-24T12:45:46Z</time>
      </trkpt>
      <trkpt lat="44.34596" lon="3.58935">
        <ele>573.921</ele>
        <time>2012-05-24T12:45:48Z</time>
      </trkpt>
      <trkpt lat="44.34594" lon="3.58929">
        <ele>574.952</ele>
        <time>2012-05-24T12:45:57Z</time>
      </trkpt>
      <trkpt lat="44.34579" lon="3.58934">
        <ele>575.606</ele>
        <time>2012-05-24T12:46:10Z</time>
      </trkpt>
      <trkpt lat="44.34563" lon="3.58938">
        <ele>574.566</ele>
        <time>2012-05-24T12:46:24Z</time>
      </trkpt>
      <trkpt lat="44.3455" lon="3.58931">
        <ele>573.447</ele>
        <time>2012-05-24T12:46:36Z</time>
      </trkpt>
      <trkpt lat="44.34546" lon="3.58931">
        <ele>573.84</ele>
        <time>2012-05-24T12:46:40Z</time>
      </trkpt>
      <trkpt lat="44.34536" lon="3.58931">
        <ele>573.674</ele>
        <time>2012-05-24T12:46:49Z</time>
      </trkpt>
      <trkpt lat="44.34513" lon="3.58927">
        <ele>574.159</ele>
        <time>2012-05-24T12:47:08Z</time>
      </trkpt>
      <trkpt lat="44.34503" lon="3.58926">
        <ele>575.338</ele>
        <time>2012-05-24T12:47:18Z</time>
      </trkpt>
      <trkpt lat="44.34488" lon="3.58921">
        <ele>575.929</ele>
        <time>2012-05-24T12:47:32Z</time>
      </trkpt>
      <trkpt lat="44.34469" lon="3.58918">
        <ele>576.556</ele>
        <time>2012-05-24T12:47:46Z</time>
      </trkpt>
      <trkpt lat="44.3445" lon="3.58907">
        <ele>577.548</ele>
        <time>2012-05-24T12:48:01Z</time>
      </trkpt>
      <trkpt lat="44.34437" lon="3.589">
        <ele>578.289</ele>
        <time>2012-05-24T12:48:12Z</time>
      </trkpt>
      <trkpt lat="44.34435" lon="3.58899">
        <ele>578.565</ele>
        <time>2012-05-24T12:48:14Z</time>
      </trkpt>
      <trkpt lat="44.34427" lon="3.58897">
        <ele>578.374</ele>
        <time>2012-05-24T12:48:21Z</time>
      </trkpt>
      <trkpt lat="44.34414" lon="3.58891">
        <ele>578.564</ele>
        <time>2012-05-24T12:48:32Z</time>
      </trkpt>
      <trkpt lat="44.3441" lon="3.58891">
        <ele>578.846</ele>
        <time>2012-05-24T12:48:35Z</time>
      </trkpt>
      <trkpt lat="44.34403" lon="3.58885">
        <ele>579.566</ele>
        <time>2012-05-24T12:48:43Z</time>
      </trkpt>
      <trkpt lat="44.34399" lon="3.58884">
        <ele>579.458</ele>
        <time>2012-05-24T12:48:46Z</time>
      </trkpt>
      <trkpt lat="44.34395" lon="3.58874">
        <ele>580.253</ele>
        <time>2012-05-24T12:48:54Z</time>
      </trkpt>
      <trkpt lat="44.34385" lon="3.58865">
        <ele>580.985</ele>
        <time>2012-05-24T12:49:03Z</time>
      </trkpt>
      <trkpt lat="44.34376" lon="3.58861">
        <ele>581.213</ele>
        <time>2012-05-24T12:49:13Z</time>
      </trkpt>
      <trkpt lat="44.34372" lon="3.5886">
        <ele>581.844</ele>
        <time>2012-05-24T12:49:17Z</time>
      </trkpt>
      <trkpt lat="44.34356" lon="3.58858">
        <ele>581.975</ele>
        <time>2012-05-24T12:49:30Z</time>
      </trkpt>
      <trkpt lat="44.34349" lon="3.58856">
        <ele>581.736</ele>
        <time>2012-05-24T12:49:36Z</time>
      </trkpt>
      <trkpt lat="44.34332" lon="3.58864">
        <ele>580.569</ele>
        <time>2012-05-24T12:49:50Z</time>
      </trkpt>
      <trkpt lat="44.34306" lon="3.58882">
        <ele>579.391</ele>
        <time>2012-05-24T12:50:13Z</time>
      </trkpt>
      <trkpt lat="44.34289" lon="3.58887">
        <ele>578.893</ele>
        <time>2012-05-24T12:50:27Z</time>
      </trkpt>
      <trkpt lat="44.3428" lon="3.58889">
        <ele>578.239</ele>
        <time>2012-05-24T12:50:34Z</time>
      </trkpt>
      <trkpt lat="44.34276" lon="3.58892">
        <ele>577.997</ele>
        <time>2012-05-24T12:50:38Z</time>
      </trkpt>
      <trkpt lat="44.34265" lon="3.58897">
        <ele>577.107</ele>
        <time>2012-05-24T12:50:48Z</time>
      </trkpt>
      <trkpt lat="44.34262" lon="3.58897">
        <ele>577.338</ele>
        <time>2012-05-24T12:50:51Z</time>
      </trkpt>
      <trkpt lat="44.34247" lon="3.58898">
        <ele>577.445</ele>
        <time>2012-05-24T12:51:04Z</time>
      </trkpt>
      <trkpt lat="44.34231" lon="3.58897">
        <ele>577.082</ele>
        <time>2012-05-24T12:51:17Z</time>
      </trkpt>
      <trkpt lat="44.34218" lon="3.58891">
        <ele>577.277</ele>
        <time>2012-05-24T12:51:27Z</time>
      </trkpt>
      <trkpt lat="44.34216" lon="3.5889">
        <ele>577.271</ele>
        <time>2012-05-24T12:51:30Z</time>
      </trkpt>
      <trkpt lat="44.34214" lon="3.5889">
        <ele>577.158</ele>
        <time>2012-05-24T12:51:32Z</time>
      </trkpt>
      <trkpt lat="44.34193" lon="3.58897">
        <ele>577.007</ele>
        <time>2012-05-24T12:51:49Z</time>
      </trkpt>
      <trkpt lat="44.34187" lon="3.58905">
        <ele>577.271</ele>
        <time>2012-05-24T12:52:01Z</time>
      </trkpt>
      <trkpt lat="44.34171" lon="3.58912">
        <ele>578.381</ele>
        <time>2012-05-24T12:52:19Z</time>
      </trkpt>
      <trkpt lat="44.34172" lon="3.58919">
        <ele>577.549</ele>
        <time>2012-05-24T12:52:57Z</time>
      </trkpt>
      <trkpt lat="44.34169" lon="3.58922">
        <ele>576.958</ele>
        <time>2012-05-24T12:53:10Z</time>
      </trkpt>
      <trkpt lat="44.34157" lon="3.58934">
        <ele>578.782</ele>
        <time>2012-05-24T12:53:34Z</time>
      </trkpt>
      <trkpt lat="44.34151" lon="3.58944">
        <ele>578.761</ele>
        <time>2012-05-24T12:53:48Z</time>
      </trkpt>
      <trkpt lat="44.34146" lon="3.58948">
        <ele>578.953</ele>
        <time>2012-05-24T12:53:57Z</time>
      </trkpt>
      <trkpt lat="44.34143" lon="3.58953">
        <ele>579.26</ele>
        <time>2012-05-24T12:54:01Z</time>
      </trkpt>
      <trkpt lat="44.34137" lon="3.58961">
        <ele>580.126</ele>
        <time>2012-05-24T12:54:08Z</time>
      </trkpt>
      <trkpt lat="44.34117" lon="3.58977">
        <ele>581.442</ele>
        <time>2012-05-24T12:54:29Z</time>
      </trkpt>
      <trkpt lat="44.34113" lon="3.5898">
        <ele>581.484</ele>
        <time>2012-05-24T12:54:53Z</time>
      </trkpt>
      <trkpt lat="44.34097" lon="3.58988">
        <ele>582.335</ele>
        <time>2012-05-24T12:55:07Z</time>
      </trkpt>
      <trkpt lat="44.34077" lon="3.58988">
        <ele>582.283</ele>
        <time>2012-05-24T12:55:23Z</time>
      </trkpt>
      <trkpt lat="44.34058" lon="3.58984">
        <ele>580.54</ele>
        <time>2012-05-24T12:55:38Z</time>
      </trkpt>
      <trkpt lat="44.34049" lon="3.58981">
        <ele>579.933</ele>
        <time>2012-05-24T12:55:46Z</time>
      </trkpt>
      <trkpt lat="44.3403" lon="3.58971">
        <ele>576.693</ele>
        <time>2012-05-24T12:56:04Z</time>
      </trkpt>
      <trkpt lat="44.34021" lon="3.58967">
        <ele>575.341</ele>
        <time>2012-05-24T12:56:12Z</time>
      </trkpt>
      <trkpt lat="44.34017" lon="3.58957">
        <ele>574.082</ele>
        <time>2012-05-24T12:56:20Z</time>
      </trkpt>
      <trkpt lat="44.34009" lon="3.58949">
        <ele>573.219</ele>
        <time>2012-05-24T12:56:28Z</time>
      </trkpt>
      <trkpt lat="44.34008" lon="3.58946">
        <ele>572.921</ele>
        <time>2012-05-24T12:56:30Z</time>
      </trkpt>
      <trkpt lat="44.34006" lon="3.58945">
        <ele>571.704</ele>
        <time>2012-05-24T12:56:32Z</time>
      </trkpt>
      <trkpt lat="44.34003" lon="3.58938">
        <ele>571.365</ele>
        <time>2012-05-24T12:56:36Z</time>
      </trkpt>
      <trkpt lat="44.3399" lon="3.58921">
        <ele>568.405</ele>
        <time>2012-05-24T12:56:51Z</time>
      </trkpt>
      <trkpt lat="44.33975" lon="3.58899">
        <ele>565.834</ele>
        <time>2012-05-24T12:57:10Z</time>
      </trkpt>
      <trkpt lat="44.33971" lon="3.58898">
        <ele>565.403</ele>
        <time>2012-05-24T12:57:13Z</time>
      </trkpt>
      <trkpt lat="44.33949" lon="3.58867">
        <ele>562.283</ele>
        <time>2012-05-24T12:57:37Z</time>
      </trkpt>
      <trkpt lat="44.33929" lon="3.58841">
        <ele>560.195</ele>
        <time>2012-05-24T12:57:58Z</time>
      </trkpt>
      <trkpt lat="44.33916" lon="3.58826">
        <ele>558.68</ele>
        <time>2012-05-24T12:58:15Z</time>
      </trkpt>
      <trkpt lat="44.33916" lon="3.58821">
        <ele>558.583</ele>
        <time>2012-05-24T12:58:27Z</time>
      </trkpt>
      <trkpt lat="44.33912" lon="3.58818">
        <ele>557.733</ele>
        <time>2012-05-24T12:58:46Z</time>
      </trkpt>
      <trkpt lat="44.339" lon="3.58808">
        <ele>556.75</ele>
        <time>2012-05-24T13:00:08Z</time>
      </trkpt>
      <trkpt lat="44.33888" lon="3.58801">
        <ele>555.601</ele>
        <time>2012-05-24T13:00:24Z</time>
      </trkpt>
      <trkpt lat="44.33875" lon="3.58789">
        <ele>554.621</ele>
        <time>2012-05-24T13:00:35Z</time>
      </trkpt>
      <trkpt lat="44.33855" lon="3.58772">
        <ele>553.492</ele>
        <time>2012-05-24T13:00:53Z</time>
      </trkpt>
      <trkpt lat="44.3383" lon="3.58752">
        <ele>551.527</ele>
        <time>2012-05-24T13:01:16Z</time>
      </trkpt>
      <trkpt lat="44.33808" lon="3.58734">
        <ele>550.167</ele>
        <time>2012-05-24T13:01:36Z</time>
      </trkpt>
      <trkpt lat="44.33795" lon="3.58726">
        <ele>549.318</ele>
        <time>2012-05-24T13:01:53Z</time>
      </trkpt>
      <trkpt lat="44.33791" lon="3.58722">
        <ele>548.978</ele>
        <time>2012-05-24T13:02:04Z</time>
      </trkpt>
      <trkpt lat="44.33769" lon="3.58721">
        <ele>547.877</ele>
        <time>2012-05-24T13:02:22Z</time>
      </trkpt>
      <trkpt lat="44.33743" lon="3.58728">
        <ele>547.232</ele>
        <time>2012-05-24T13:02:42Z</time>
      </trkpt>
      <trkpt lat="44.33718" lon="3.58732">
        <ele>545.388</ele>
        <time>2012-05-24T13:03:00Z</time>
      </trkpt>
      <trkpt lat="44.33703" lon="3.58737">
        <ele>545.289</ele>
        <time>2012-05-24T13:03:15Z</time>
      </trkpt>
      <trkpt lat="44.33677" lon="3.58744">
        <ele>544.248</ele>
        <time>2012-05-24T13:03:38Z</time>
      </trkpt>
      <trkpt lat="44.3366" lon="3.58747">
        <ele>543.816</ele>
        <time>2012-05-24T13:03:54Z</time>
      </trkpt>
      <trkpt lat="44.33649" lon="3.58741">
        <ele>543.395</ele>
        <time>2012-05-24T13:04:09Z</time>
      </trkpt>
      <trkpt lat="44.33647" lon="3.5874">
        <ele>542.997</ele>
        <time>2012-05-24T13:04:11Z</time>
      </trkpt>
      <trkpt lat="44.33637" lon="3.58729">
        <ele>542.777</ele>
        <time>2012-05-24T13:04:24Z</time>
      </trkpt>
      <trkpt lat="44.33613" lon="3.58706">
        <ele>542.36</ele>
        <time>2012-05-24T13:04:49Z</time>
      </trkpt>
      <trkpt lat="44.33607" lon="3.58702">
        <ele>542.364</ele>
        <time>2012-05-24T13:05:06Z</time>
      </trkpt>
      <trkpt lat="44.33605" lon="3.58702">
        <ele>542.172</ele>
        <time>2012-05-24T13:05:31Z</time>
      </trkpt>
      <trkpt lat="44.33602" lon="3.58696">
        <ele>542.358</ele>
        <time>2012-05-24T13:05:38Z</time>
      </trkpt>
      <trkpt lat="44.336" lon="3.58665">
        <ele>543.815</ele>
        <time>2012-05-24T13:05:56Z</time>
      </trkpt>
      <trkpt lat="44.3361" lon="3.58632">
        <ele>545.298</ele>
        <time>2012-05-24T13:06:20Z</time>
      </trkpt>
      <trkpt lat="44.33615" lon="3.58619">
        <ele>545.198</ele>
        <time>2012-05-24T13:06:32Z</time>
      </trkpt>
      <trkpt lat="44.33615" lon="3.58615">
        <ele>545.079</ele>
        <time>2012-05-24T13:06:35Z</time>
      </trkpt>
      <trkpt lat="44.33593" lon="3.58592">
        <ele>545.124</ele>
        <time>2012-05-24T13:06:58Z</time>
      </trkpt>
      <trkpt lat="44.33582" lon="3.58595">
        <ele>544.401</ele>
        <time>2012-05-24T13:07:13Z</time>
      </trkpt>
      <trkpt lat="44.33579" lon="3.58598">
        <ele>544.194</ele>
        <time>2012-05-24T13:07:18Z</time>
      </trkpt>
      <trkpt lat="44.3357" lon="3.58606">
        <ele>544.194</ele>
        <time>2012-05-24T13:07:28Z</time>
      </trkpt>
      <trkpt lat="44.33548" lon="3.58608">
        <ele>544.869</ele>
        <time>2012-05-24T13:07:46Z</time>
      </trkpt>
      <trkpt lat="44.3352" lon="3.5861">
        <ele>545.199</ele>
        <time>2012-05-24T13:08:09Z</time>
      </trkpt>
      <trkpt lat="44.33503" lon="3.58612">
        <ele>545.442</ele>
        <time>2012-05-24T13:08:27Z</time>
      </trkpt>
      <trkpt lat="44.33492" lon="3.58614">
        <ele>545.613</ele>
        <time>2012-05-24T13:08:41Z</time>
      </trkpt>
      <trkpt lat="44.33472" lon="3.58617">
        <ele>545.775</ele>
        <time>2012-05-24T13:08:58Z</time>
      </trkpt>
      <trkpt lat="44.33451" lon="3.58624">
        <ele>545.676</ele>
        <time>2012-05-24T13:09:16Z</time>
      </trkpt>
      <trkpt lat="44.33438" lon="3.58634">
        <ele>545.691</ele>
        <time>2012-05-24T13:09:29Z</time>
      </trkpt>
      <trkpt lat="44.33418" lon="3.5864">
        <ele>545.843</ele>
        <time>2012-05-24T13:09:44Z</time>
      </trkpt>
      <trkpt lat="44.33402" lon="3.58652">
        <ele>545.995</ele>
        <time>2012-05-24T13:10:00Z</time>
      </trkpt>
      <trkpt lat="44.33399" lon="3.58656">
        <ele>545.717</ele>
        <time>2012-05-24T13:10:04Z</time>
      </trkpt>
      <trkpt lat="44.33395" lon="3.58662">
        <ele>546.155</ele>
        <time>2012-05-24T13:10:08Z</time>
      </trkpt>
      <trkpt lat="44.33389" lon="3.58662">
        <ele>546.261</ele>
        <time>2012-05-24T13:10:12Z</time>
      </trkpt>
      <trkpt lat="44.33382" lon="3.5867">
        <ele>545.775</ele>
        <time>2012-05-24T13:10:20Z</time>
      </trkpt>
      <trkpt lat="44.33374" lon="3.58681">
        <ele>546.282</ele>
        <time>2012-05-24T13:10:29Z</time>
      </trkpt>
      <trkpt lat="44.33364" lon="3.58692">
        <ele>546.084</ele>
        <time>2012-05-24T13:10:39Z</time>
      </trkpt>
      <trkpt lat="44.3335" lon="3.58706">
        <ele>545.862</ele>
        <time>2012-05-24T13:10:52Z</time>
      </trkpt>
      <trkpt lat="44.33348" lon="3.58708">
        <ele>545.831</ele>
        <time>2012-05-24T13:10:54Z</time>
      </trkpt>
      <trkpt lat="44.33341" lon="3.58717">
        <ele>545.74</ele>
        <time>2012-05-24T13:11:02Z</time>
      </trkpt>
      <trkpt lat="44.33336" lon="3.58721">
        <ele>545.934</ele>
        <time>2012-05-24T13:11:07Z</time>
      </trkpt>
      <trkpt lat="44.33332" lon="3.58728">
        <ele>545.91</ele>
        <time>2012-05-24T13:11:12Z</time>
      </trkpt>
      <trkpt lat="44.3333" lon="3.58729">
        <ele>546.217</ele>
        <time>2012-05-24T13:11:14Z</time>
      </trkpt>
      <trkpt lat="44.33328" lon="3.58744">
        <ele>546.098</ele>
        <time>2012-05-24T13:11:21Z</time>
      </trkpt>
      <trkpt lat="44.33325" lon="3.58754">
        <ele>546.521</ele>
        <time>2012-05-24T13:11:27Z</time>
      </trkpt>
      <trkpt lat="44.33323" lon="3.58761">
        <ele>546.52</ele>
        <time>2012-05-24T13:11:31Z</time>
      </trkpt>
      <trkpt lat="44.33318" lon="3.58764">
        <ele>546.158</ele>
        <time>2012-05-24T13:11:35Z</time>
      </trkpt>
      <trkpt lat="44.33301" lon="3.58794">
        <ele>545.801</ele>
        <time>2012-05-24T13:11:59Z</time>
      </trkpt>
      <trkpt lat="44.33298" lon="3.58804">
        <ele>545.878</ele>
        <time>2012-05-24T13:12:06Z</time>
      </trkpt>
      <trkpt lat="44.33295" lon="3.58807">
        <ele>545.761</ele>
        <time>2012-05-24T13:12:10Z</time>
      </trkpt>
      <trkpt lat="44.33293" lon="3.58815">
        <ele>545.707</ele>
        <time>2012-05-24T13:12:15Z</time>
      </trkpt>
      <trkpt lat="44.33277" lon="3.58848">
        <ele>545.51</ele>
        <time>2012-05-24T13:12:38Z</time>
      </trkpt>
      <trkpt lat="44.33272" lon="3.58859">
        <ele>545.522</ele>
        <time>2012-05-24T13:12:46Z</time>
      </trkpt>
      <trkpt lat="44.33262" lon="3.58886">
        <ele>545.646</ele>
        <time>2012-05-24T13:13:03Z</time>
      </trkpt>
      <trkpt lat="44.33256" lon="3.58906">
        <ele>545.321</ele>
        <time>2012-05-24T13:13:14Z</time>
      </trkpt>
      <trkpt lat="44.33253" lon="3.58914">
        <ele>545.103</ele>
        <time>2012-05-24T13:13:19Z</time>
      </trkpt>
      <trkpt lat="44.33251" lon="3.5892">
        <ele>545.337</ele>
        <time>2012-05-24T13:13:22Z</time>
      </trkpt>
      <trkpt lat="44.33248" lon="3.58928">
        <ele>545.337</ele>
        <time>2012-05-24T13:13:27Z</time>
      </trkpt>
      <trkpt lat="44.33239" lon="3.58957">
        <ele>545.643</ele>
        <time>2012-05-24T13:13:44Z</time>
      </trkpt>
      <trkpt lat="44.33224" lon="3.58982">
        <ele>545.823</ele>
        <time>2012-05-24T13:14:04Z</time>
      </trkpt>
      <trkpt lat="44.33216" lon="3.59">
        <ele>546.02</ele>
        <time>2012-05-24T13:14:16Z</time>
      </trkpt>
      <trkpt lat="44.33216" lon="3.59006">
        <ele>545.765</ele>
        <time>2012-05-24T13:14:19Z</time>
      </trkpt>
      <trkpt lat="44.33213" lon="3.59013">
        <ele>545.592</ele>
        <time>2012-05-24T13:14:23Z</time>
      </trkpt>
      <trkpt lat="44.33207" lon="3.59029">
        <ele>545.116</ele>
        <time>2012-05-24T13:14:35Z</time>
      </trkpt>
      <trkpt lat="44.33206" lon="3.59037">
        <ele>545.417</ele>
        <time>2012-05-24T13:14:40Z</time>
      </trkpt>
      <trkpt lat="44.33198" lon="3.59049">
        <ele>545.565</ele>
        <time>2012-05-24T13:14:49Z</time>
      </trkpt>
      <trkpt lat="44.33194" lon="3.59061">
        <ele>545.528</ele>
        <time>2012-05-24T13:14:56Z</time>
      </trkpt>
      <trkpt lat="44.33184" lon="3.59089">
        <ele>545.491</ele>
        <time>2012-05-24T13:15:12Z</time>
      </trkpt>
      <trkpt lat="44.33182" lon="3.59097">
        <ele>545.341</ele>
        <time>2012-05-24T13:15:16Z</time>
      </trkpt>
      <trkpt lat="44.33179" lon="3.59109">
        <ele>545.409</ele>
        <time>2012-05-24T13:15:23Z</time>
      </trkpt>
      <trkpt lat="44.33172" lon="3.59115">
        <ele>545.18</ele>
        <time>2012-05-24T13:15:30Z</time>
      </trkpt>
      <trkpt lat="44.33151" lon="3.59112">
        <ele>545.687</ele>
        <time>2012-05-24T13:15:42Z</time>
      </trkpt>
      <trkpt lat="44.3315" lon="3.59111">
        <ele>545.629</ele>
        <time>2012-05-24T13:15:43Z</time>
      </trkpt>
      <trkpt lat="44.33137" lon="3.59095">
        <ele>545.077</ele>
        <time>2012-05-24T13:16:00Z</time>
      </trkpt>
      <trkpt lat="44.33132" lon="3.59089">
        <ele>544.964</ele>
        <time>2012-05-24T13:16:07Z</time>
      </trkpt>
      <trkpt lat="44.33129" lon="3.59085">
        <ele>544.822</ele>
        <time>2012-05-24T13:16:11Z</time>
      </trkpt>
      <trkpt lat="44.33123" lon="3.59074">
        <ele>545.272</ele>
        <time>2012-05-24T13:16:26Z</time>
      </trkpt>
      <trkpt lat="44.33113" lon="3.5906">
        <ele>545.036</ele>
        <time>2012-05-24T13:16:48Z</time>
      </trkpt>
      <trkpt lat="44.33094" lon="3.59048">
        <ele>544.021</ele>
        <time>2012-05-24T13:17:06Z</time>
      </trkpt>
      <trkpt lat="44.33068" lon="3.59045">
        <ele>543.203</ele>
        <time>2012-05-24T13:17:29Z</time>
      </trkpt>
      <trkpt lat="44.33064" lon="3.59046">
        <ele>542.756</ele>
        <time>2012-05-24T13:17:33Z</time>
      </trkpt>
      <trkpt lat="44.33037" lon="3.59062">
        <ele>542.103</ele>
        <time>2012-05-24T13:17:56Z</time>
      </trkpt>
      <trkpt lat="44.3302" lon="3.59074">
        <ele>541.217</ele>
        <time>2012-05-24T13:18:14Z</time>
      </trkpt>
      <trkpt lat="44.33014" lon="3.59078">
        <ele>540.892</ele>
        <time>2012-05-24T13:18:32Z</time>
      </trkpt>
      <trkpt lat="44.32993" lon="3.59096">
        <ele>541.308</ele>
        <time>2012-05-24T13:18:51Z</time>
      </trkpt>
      <trkpt lat="44.32972" lon="3.59113">
        <ele>541.965</ele>
        <time>2012-05-24T13:19:10Z</time>
      </trkpt>
      <trkpt lat="44.32947" lon="3.59131">
        <ele>541.063</ele>
        <time>2012-05-24T13:19:30Z</time>
      </trkpt>
      <trkpt lat="44.32915" lon="3.59149">
        <ele>541.223</ele>
        <time>2012-05-24T13:19:55Z</time>
      </trkpt>
      <trkpt lat="44.32912" lon="3.59153">
        <ele>541.671</ele>
        <time>2012-05-24T13:19:58Z</time>
      </trkpt>
      <trkpt lat="44.32888" lon="3.59154">
        <ele>541.721</ele>
        <time>2012-05-24T13:20:16Z</time>
      </trkpt>
      <trkpt lat="44.3287" lon="3.59172">
        <ele>541.877</ele>
        <time>2012-05-24T13:20:34Z</time>
      </trkpt>
      <trkpt lat="44.32858" lon="3.59202">
        <ele>541.97</ele>
        <time>2012-05-24T13:20:55Z</time>
      </trkpt>
      <trkpt lat="44.32824" lon="3.59227">
        <ele>542.352</ele>
        <time>2012-05-24T13:21:25Z</time>
      </trkpt>
      <trkpt lat="44.32815" lon="3.59236">
        <ele>542.655</ele>
        <time>2012-05-24T13:21:34Z</time>
      </trkpt>
      <trkpt lat="44.32812" lon="3.59243">
        <ele>542.367</ele>
        <time>2012-05-24T13:21:38Z</time>
      </trkpt>
      <trkpt lat="44.32808" lon="3.5925">
        <ele>542.037</ele>
        <time>2012-05-24T13:21:43Z</time>
      </trkpt>
      <trkpt lat="44.32775" lon="3.59279">
        <ele>542.479</ele>
        <time>2012-05-24T13:22:12Z</time>
      </trkpt>
      <trkpt lat="44.32772" lon="3.59285">
        <ele>542.489</ele>
        <time>2012-05-24T13:22:16Z</time>
      </trkpt>
      <trkpt lat="44.32766" lon="3.59281">
        <ele>542.736</ele>
        <time>2012-05-24T13:23:30Z</time>
      </trkpt>
      <trkpt lat="44.32763" lon="3.59281">
        <ele>542.351</ele>
        <time>2012-05-24T13:23:33Z</time>
      </trkpt>
      <trkpt lat="44.32758" lon="3.5928">
        <ele>542.42</ele>
        <time>2012-05-24T13:23:37Z</time>
      </trkpt>
      <trkpt lat="44.32753" lon="3.59282">
        <ele>542.461</ele>
        <time>2012-05-24T13:23:41Z</time>
      </trkpt>
      <trkpt lat="44.32742" lon="3.59293">
        <ele>542.87</ele>
        <time>2012-05-24T13:23:51Z</time>
      </trkpt>
      <trkpt lat="44.32717" lon="3.59311">
        <ele>542.631</ele>
        <time>2012-05-24T13:24:12Z</time>
      </trkpt>
      <trkpt lat="44.32714" lon="3.59315">
        <ele>542.897</ele>
        <time>2012-05-24T13:24:15Z</time>
      </trkpt>
      <trkpt lat="44.3271" lon="3.59319">
        <ele>543.049</ele>
        <time>2012-05-24T13:24:19Z</time>
      </trkpt>
      <trkpt lat="44.32684" lon="3.59338">
        <ele>542.659</ele>
        <time>2012-05-24T13:24:42Z</time>
      </trkpt>
      <trkpt lat="44.3266" lon="3.59363">
        <ele>542.841</ele>
        <time>2012-05-24T13:25:06Z</time>
      </trkpt>
      <trkpt lat="44.32635" lon="3.59383">
        <ele>542.945</ele>
        <time>2012-05-24T13:25:31Z</time>
      </trkpt>
      <trkpt lat="44.32614" lon="3.59398">
        <ele>543.55</ele>
        <time>2012-05-24T13:25:51Z</time>
      </trkpt>
      <trkpt lat="44.32612" lon="3.594">
        <ele>543.116</ele>
        <time>2012-05-24T13:25:53Z</time>
      </trkpt>
      <trkpt lat="44.32602" lon="3.59403">
        <ele>543.547</ele>
        <time>2012-05-24T13:26:01Z</time>
      </trkpt>
      <trkpt lat="44.326" lon="3.59408">
        <ele>543.473</ele>
        <time>2012-05-24T13:26:04Z</time>
      </trkpt>
      <trkpt lat="44.32594" lon="3.59412">
        <ele>543.538</ele>
        <time>2012-05-24T13:26:10Z</time>
      </trkpt>
      <trkpt lat="44.32578" lon="3.5943">
        <ele>543.163</ele>
        <time>2012-05-24T13:26:29Z</time>
      </trkpt>
      <trkpt lat="44.32572" lon="3.59427">
        <ele>542.88</ele>
        <time>2012-05-24T13:29:48Z</time>
      </trkpt>
      <trkpt lat="44.32565" lon="3.59421">
        <ele>547.984</ele>
        <time>2012-05-24T13:49:27Z</time>
      </trkpt>
      <trkpt lat="44.32562" lon="3.59428">
        <ele>547.571</ele>
        <time>2012-05-24T13:49:31Z</time>
      </trkpt>
      <trkpt lat="44.32553" lon="3.59437">
        <ele>547.87</ele>
        <time>2012-05-24T13:49:41Z</time>
      </trkpt>
      <trkpt lat="44.32551" lon="3.59444">
        <ele>547.681</ele>
        <time>2012-05-24T13:49:47Z</time>
      </trkpt>
      <trkpt lat="44.32551" lon="3.59449">
        <ele>547.841</ele>
        <time>2012-05-24T13:49:53Z</time>
      </trkpt>
      <trkpt lat="44.32545" lon="3.59457">
        <ele>547.834</ele>
        <time>2012-05-24T13:50:03Z</time>
      </trkpt>
      <trkpt lat="44.3253" lon="3.59455">
        <ele>547.48</ele>
        <time>2012-05-24T13:50:14Z</time>
      </trkpt>
      <trkpt lat="44.32528" lon="3.59458">
        <ele>548.19</ele>
        <time>2012-05-24T13:50:16Z</time>
      </trkpt>
      <trkpt lat="44.32513" lon="3.59482">
        <ele>548.105</ele>
        <time>2012-05-24T13:50:33Z</time>
      </trkpt>
      <trkpt lat="44.32508" lon="3.59484">
        <ele>547.968</ele>
        <time>2012-05-24T13:50:37Z</time>
      </trkpt>
      <trkpt lat="44.32503" lon="3.59491">
        <ele>548.341</ele>
        <time>2012-05-24T13:50:42Z</time>
      </trkpt>
      <trkpt lat="44.32492" lon="3.595">
        <ele>547.994</ele>
        <time>2012-05-24T13:50:54Z</time>
      </trkpt>
      <trkpt lat="44.32488" lon="3.59498">
        <ele>548.012</ele>
        <time>2012-05-24T13:50:59Z</time>
      </trkpt>
      <trkpt lat="44.32478" lon="3.5951">
        <ele>547.913</ele>
        <time>2012-05-24T13:51:12Z</time>
      </trkpt>
      <trkpt lat="44.32469" lon="3.59515">
        <ele>547.462</ele>
        <time>2012-05-24T13:51:19Z</time>
      </trkpt>
      <trkpt lat="44.32461" lon="3.5952">
        <ele>547.361</ele>
        <time>2012-05-24T13:51:31Z</time>
      </trkpt>
      <trkpt lat="44.32457" lon="3.59515">
        <ele>547.675</ele>
        <time>2012-05-24T13:51:42Z</time>
      </trkpt>
      <trkpt lat="44.32434" lon="3.59535">
        <ele>547.753</ele>
        <time>2012-05-24T13:52:05Z</time>
      </trkpt>
      <trkpt lat="44.32409" lon="3.59557">
        <ele>547.911</ele>
        <time>2012-05-24T13:52:29Z</time>
      </trkpt>
      <trkpt lat="44.32385" lon="3.59577">
        <ele>547.76</ele>
        <time>2012-05-24T13:52:52Z</time>
      </trkpt>
      <trkpt lat="44.32362" lon="3.59596">
        <ele>547.895</ele>
        <time>2012-05-24T13:53:15Z</time>
      </trkpt>
      <trkpt lat="44.3234" lon="3.59611">
        <ele>547.966</ele>
        <time>2012-05-24T13:53:35Z</time>
      </trkpt>
      <trkpt lat="44.32323" lon="3.59618">
        <ele>547.82</ele>
        <time>2012-05-24T13:53:54Z</time>
      </trkpt>
      <trkpt lat="44.32295" lon="3.59627">
        <ele>548.05</ele>
        <time>2012-05-24T13:54:17Z</time>
      </trkpt>
      <trkpt lat="44.32277" lon="3.5963">
        <ele>548.238</ele>
        <time>2012-05-24T13:54:36Z</time>
      </trkpt>
      <trkpt lat="44.32274" lon="3.59634">
        <ele>548.327</ele>
        <time>2012-05-24T13:54:40Z</time>
      </trkpt>
      <trkpt lat="44.32251" lon="3.5964">
        <ele>548.297</ele>
        <time>2012-05-24T13:54:59Z</time>
      </trkpt>
      <trkpt lat="44.32224" lon="3.59646">
        <ele>548.572</ele>
        <time>2012-05-24T13:55:20Z</time>
      </trkpt>
      <trkpt lat="44.32202" lon="3.59648">
        <ele>548.375</ele>
        <time>2012-05-24T13:55:39Z</time>
      </trkpt>
      <trkpt lat="44.32188" lon="3.59651">
        <ele>548.518</ele>
        <time>2012-05-24T13:55:51Z</time>
      </trkpt>
      <trkpt lat="44.32185" lon="3.59651">
        <ele>548.671</ele>
        <time>2012-05-24T13:55:53Z</time>
      </trkpt>
      <trkpt lat="44.32166" lon="3.59655">
        <ele>548.867</ele>
        <time>2012-05-24T13:56:11Z</time>
      </trkpt>
      <trkpt lat="44.32149" lon="3.59658">
        <ele>548.895</ele>
        <time>2012-05-24T13:56:28Z</time>
      </trkpt>
      <trkpt lat="44.32144" lon="3.59659">
        <ele>548.898</ele>
        <time>2012-05-24T13:56:32Z</time>
      </trkpt>
      <trkpt lat="44.32124" lon="3.59666">
        <ele>549.177</ele>
        <time>2012-05-24T13:56:51Z</time>
      </trkpt>
      <trkpt lat="44.32122" lon="3.59667">
        <ele>548.631</ele>
        <time>2012-05-24T13:56:53Z</time>
      </trkpt>
      <trkpt lat="44.32118" lon="3.5967">
        <ele>549.502</ele>
        <time>2012-05-24T13:56:57Z</time>
      </trkpt>
      <trkpt lat="44.32115" lon="3.59672">
        <ele>549.107</ele>
        <time>2012-05-24T13:57:00Z</time>
      </trkpt>
      <trkpt lat="44.32099" lon="3.59681">
        <ele>549.138</ele>
        <time>2012-05-24T13:57:16Z</time>
      </trkpt>
      <trkpt lat="44.32098" lon="3.59684">
        <ele>549.298</ele>
        <time>2012-05-24T13:57:18Z</time>
      </trkpt>
      <trkpt lat="44.32086" lon="3.59693">
        <ele>549.036</ele>
        <time>2012-05-24T13:57:30Z</time>
      </trkpt>
      <trkpt lat="44.32074" lon="3.59696">
        <ele>549.283</ele>
        <time>2012-05-24T13:57:38Z</time>
      </trkpt>
      <trkpt lat="44.32065" lon="3.59695">
        <ele>548.705</ele>
        <time>2012-05-24T13:57:51Z</time>
      </trkpt>
      <trkpt lat="44.32041" lon="3.59711">
        <ele>549.328</ele>
        <time>2012-05-24T13:58:14Z</time>
      </trkpt>
      <trkpt lat="44.3202" lon="3.59723">
        <ele>548.778</ele>
        <time>2012-05-24T13:58:33Z</time>
      </trkpt>
      <trkpt lat="44.32008" lon="3.59732">
        <ele>548.842</ele>
        <time>2012-05-24T13:58:44Z</time>
      </trkpt>
      <trkpt lat="44.32004" lon="3.59735">
        <ele>548.691</ele>
        <time>2012-05-24T13:58:48Z</time>
      </trkpt>
      <trkpt lat="44.31986" lon="3.59747">
        <ele>548.861</ele>
        <time>2012-05-24T13:59:06Z</time>
      </trkpt>
      <trkpt lat="44.31962" lon="3.59753">
        <ele>549.521</ele>
        <time>2012-05-24T13:59:26Z</time>
      </trkpt>
      <trkpt lat="44.31936" lon="3.59758">
        <ele>549.392</ele>
        <time>2012-05-24T13:59:48Z</time>
      </trkpt>
      <trkpt lat="44.31912" lon="3.59763">
        <ele>549.65</ele>
        <time>2012-05-24T14:00:08Z</time>
      </trkpt>
      <trkpt lat="44.31905" lon="3.59766">
        <ele>550.284</ele>
        <time>2012-05-24T14:00:14Z</time>
      </trkpt>
      <trkpt lat="44.31881" lon="3.59778">
        <ele>550.252</ele>
        <time>2012-05-24T14:00:34Z</time>
      </trkpt>
      <trkpt lat="44.31873" lon="3.5978">
        <ele>550.334</ele>
        <time>2012-05-24T14:00:42Z</time>
      </trkpt>
      <trkpt lat="44.31851" lon="3.59785">
        <ele>550.217</ele>
        <time>2012-05-24T14:01:01Z</time>
      </trkpt>
      <trkpt lat="44.31822" lon="3.59791">
        <ele>550.346</ele>
        <time>2012-05-24T14:01:26Z</time>
      </trkpt>
      <trkpt lat="44.31789" lon="3.59796">
        <ele>550.623</ele>
        <time>2012-05-24T14:01:52Z</time>
      </trkpt>
      <trkpt lat="44.31773" lon="3.59795">
        <ele>550.226</ele>
        <time>2012-05-24T14:02:06Z</time>
      </trkpt>
      <trkpt lat="44.31741" lon="3.59799">
        <ele>550.108</ele>
        <time>2012-05-24T14:02:29Z</time>
      </trkpt>
      <trkpt lat="44.31712" lon="3.598">
        <ele>550.85</ele>
        <time>2012-05-24T14:02:52Z</time>
      </trkpt>
      <trkpt lat="44.31682" lon="3.59804">
        <ele>550.748</ele>
        <time>2012-05-24T14:03:16Z</time>
      </trkpt>
      <trkpt lat="44.3165" lon="3.59803">
        <ele>551.131</ele>
        <time>2012-05-24T14:03:41Z</time>
      </trkpt>
      <trkpt lat="44.31616" lon="3.59801">
        <ele>550.267</ele>
        <time>2012-05-24T14:04:08Z</time>
      </trkpt>
      <trkpt lat="44.31588" lon="3.59797">
        <ele>549.715</ele>
        <time>2012-05-24T14:04:32Z</time>
      </trkpt>
      <trkpt lat="44.31561" lon="3.59783">
        <ele>549.608</ele>
        <time>2012-05-24T14:04:57Z</time>
      </trkpt>
      <trkpt lat="44.31539" lon="3.59773">
        <ele>549.818</ele>
        <time>2012-05-24T14:05:16Z</time>
      </trkpt>
      <trkpt lat="44.3151" lon="3.59767">
        <ele>549.806</ele>
        <time>2012-05-24T14:05:42Z</time>
      </trkpt>
      <trkpt lat="44.31478" lon="3.5977">
        <ele>550.375</ele>
        <time>2012-05-24T14:06:08Z</time>
      </trkpt>
      <trkpt lat="44.31474" lon="3.59771">
        <ele>550.285</ele>
        <time>2012-05-24T14:06:11Z</time>
      </trkpt>
      <trkpt lat="44.31459" lon="3.59778">
        <ele>550.383</ele>
        <time>2012-05-24T14:06:26Z</time>
      </trkpt>
      <trkpt lat="44.31443" lon="3.59778">
        <ele>550.703</ele>
        <time>2012-05-24T14:06:39Z</time>
      </trkpt>
      <trkpt lat="44.31421" lon="3.59779">
        <ele>550.461</ele>
        <time>2012-05-24T14:06:57Z</time>
      </trkpt>
      <trkpt lat="44.31403" lon="3.5978">
        <ele>551.152</ele>
        <time>2012-05-24T14:07:14Z</time>
      </trkpt>
      <trkpt lat="44.31384" lon="3.59782">
        <ele>550.911</ele>
        <time>2012-05-24T14:07:30Z</time>
      </trkpt>
      <trkpt lat="44.31362" lon="3.59784">
        <ele>550.932</ele>
        <time>2012-05-24T14:07:48Z</time>
      </trkpt>
      <trkpt lat="44.31336" lon="3.59795">
        <ele>551.849</ele>
        <time>2012-05-24T14:08:11Z</time>
      </trkpt>
      <trkpt lat="44.31318" lon="3.59804">
        <ele>551.365</ele>
        <time>2012-05-24T14:08:27Z</time>
      </trkpt>
      <trkpt lat="44.3131" lon="3.59807">
        <ele>551.638</ele>
        <time>2012-05-24T14:08:34Z</time>
      </trkpt>
      <trkpt lat="44.31308" lon="3.59811">
        <ele>551.766</ele>
        <time>2012-05-24T14:09:22Z</time>
      </trkpt>
      <trkpt lat="44.31304" lon="3.59809">
        <ele>551.564</ele>
        <time>2012-05-24T14:09:26Z</time>
      </trkpt>
      <trkpt lat="44.31288" lon="3.59817">
        <ele>551.571</ele>
        <time>2012-05-24T14:09:39Z</time>
      </trkpt>
      <trkpt lat="44.31271" lon="3.59829">
        <ele>551.788</ele>
        <time>2012-05-24T14:09:57Z</time>
      </trkpt>
      <trkpt lat="44.31272" lon="3.59864">
        <ele>553.304</ele>
        <time>2012-05-24T14:10:21Z</time>
      </trkpt>
      <trkpt lat="44.31282" lon="3.5987">
        <ele>554.675</ele>
        <time>2012-05-24T14:10:39Z</time>
      </trkpt>
      <trkpt lat="44.31291" lon="3.59874">
        <ele>556.885</ele>
        <time>2012-05-24T14:11:08Z</time>
      </trkpt>
      <trkpt lat="44.31303" lon="3.5988">
        <ele>560.054</ele>
        <time>2012-05-24T14:11:26Z</time>
      </trkpt>
      <trkpt lat="44.31317" lon="3.59885">
        <ele>563.294</ele>
        <time>2012-05-24T14:11:45Z</time>
      </trkpt>
      <trkpt lat="44.31328" lon="3.59889">
        <ele>564.858</ele>
        <time>2012-05-24T14:11:59Z</time>
      </trkpt>
      <trkpt lat="44.31345" lon="3.59886">
        <ele>567.281</ele>
        <time>2012-05-24T14:12:23Z</time>
      </trkpt>
      <trkpt lat="44.31348" lon="3.59886">
        <ele>568.095</ele>
        <time>2012-05-24T14:12:28Z</time>
      </trkpt>
      <trkpt lat="44.31362" lon="3.59885">
        <ele>570.312</ele>
        <time>2012-05-24T14:12:47Z</time>
      </trkpt>
      <trkpt lat="44.3138" lon="3.59884">
        <ele>573.462</ele>
        <time>2012-05-24T14:13:09Z</time>
      </trkpt>
      <trkpt lat="44.314" lon="3.59885">
        <ele>576.797</ele>
        <time>2012-05-24T14:13:38Z</time>
      </trkpt>
      <trkpt lat="44.31419" lon="3.59886">
        <ele>576.696</ele>
        <time>2012-05-24T14:14:33Z</time>
      </trkpt>
      <trkpt lat="44.31439" lon="3.59902">
        <ele>574.7</ele>
        <time>2012-05-24T14:14:53Z</time>
      </trkpt>
      <trkpt lat="44.31448" lon="3.5991">
        <ele>573.363</ele>
        <time>2012-05-24T14:15:02Z</time>
      </trkpt>
      <trkpt lat="44.3146" lon="3.59919">
        <ele>571.826</ele>
        <time>2012-05-24T14:15:17Z</time>
      </trkpt>
      <trkpt lat="44.31464" lon="3.59923">
        <ele>571.311</ele>
        <time>2012-05-24T14:15:21Z</time>
      </trkpt>
      <trkpt lat="44.31467" lon="3.59925">
        <ele>571.071</ele>
        <time>2012-05-24T14:15:24Z</time>
      </trkpt>
      <trkpt lat="44.31479" lon="3.59935">
        <ele>569.623</ele>
        <time>2012-05-24T14:15:38Z</time>
      </trkpt>
      <trkpt lat="44.31483" lon="3.59934">
        <ele>569.246</ele>
        <time>2012-05-24T14:15:41Z</time>
      </trkpt>
      <trkpt lat="44.31484" lon="3.59936">
        <ele>568.808</ele>
        <time>2012-05-24T14:15:43Z</time>
      </trkpt>
      <trkpt lat="44.31491" lon="3.59941">
        <ele>567.674</ele>
        <time>2012-05-24T14:15:51Z</time>
      </trkpt>
      <trkpt lat="44.31503" lon="3.59948">
        <ele>565.657</ele>
        <time>2012-05-24T14:16:10Z</time>
      </trkpt>
      <trkpt lat="44.31506" lon="3.59948">
        <ele>565.117</ele>
        <time>2012-05-24T14:16:38Z</time>
      </trkpt>
      <trkpt lat="44.31519" lon="3.59951">
        <ele>563.326</ele>
        <time>2012-05-24T14:16:51Z</time>
      </trkpt>
      <trkpt lat="44.31522" lon="3.59953">
        <ele>562.756</ele>
        <time>2012-05-24T14:16:56Z</time>
      </trkpt>
      <trkpt lat="44.3153" lon="3.59955">
        <ele>560.858</ele>
        <time>2012-05-24T14:17:07Z</time>
      </trkpt>
      <trkpt lat="44.31532" lon="3.59957">
        <ele>560.509</ele>
        <time>2012-05-24T14:17:09Z</time>
      </trkpt>
      <trkpt lat="44.31544" lon="3.59983">
        <ele>559.084</ele>
        <time>2012-05-24T14:17:22Z</time>
      </trkpt>
      <trkpt lat="44.31546" lon="3.59985">
        <ele>558.945</ele>
        <time>2012-05-24T14:17:24Z</time>
      </trkpt>
      <trkpt lat="44.31549" lon="3.5999">
        <ele>557.333</ele>
        <time>2012-05-24T14:17:30Z</time>
      </trkpt>
      <trkpt lat="44.31556" lon="3.60004">
        <ele>554.122</ele>
        <time>2012-05-24T14:17:44Z</time>
      </trkpt>
      <trkpt lat="44.3156" lon="3.60007">
        <ele>553.807</ele>
        <time>2012-05-24T14:17:48Z</time>
      </trkpt>
      <trkpt lat="44.31562" lon="3.60015">
        <ele>553.286</ele>
        <time>2012-05-24T14:17:52Z</time>
      </trkpt>
      <trkpt lat="44.31565" lon="3.60037">
        <ele>553.587</ele>
        <time>2012-05-24T14:18:05Z</time>
      </trkpt>
      <trkpt lat="44.31566" lon="3.60039">
        <ele>553.727</ele>
        <time>2012-05-24T14:18:07Z</time>
      </trkpt>
      <trkpt lat="44.31567" lon="3.6006">
        <ele>553.889</ele>
        <time>2012-05-24T14:18:20Z</time>
      </trkpt>
      <trkpt lat="44.31564" lon="3.60071">
        <ele>554.006</ele>
        <time>2012-05-24T14:18:25Z</time>
      </trkpt>
      <trkpt lat="44.31562" lon="3.60091">
        <ele>554.518</ele>
        <time>2012-05-24T14:18:37Z</time>
      </trkpt>
      <trkpt lat="44.31553" lon="3.60123">
        <ele>554.896</ele>
        <time>2012-05-24T14:18:56Z</time>
      </trkpt>
      <trkpt lat="44.31549" lon="3.6014">
        <ele>554.575</ele>
        <time>2012-05-24T14:19:06Z</time>
      </trkpt>
      <trkpt lat="44.31546" lon="3.60162">
        <ele>554.641</ele>
        <time>2012-05-24T14:19:22Z</time>
      </trkpt>
      <trkpt lat="44.31538" lon="3.60182">
        <ele>554.751</ele>
        <time>2012-05-24T14:19:36Z</time>
      </trkpt>
      <trkpt lat="44.31527" lon="3.60206">
        <ele>555.357</ele>
        <time>2012-05-24T14:19:49Z</time>
      </trkpt>
      <trkpt lat="44.31524" lon="3.6022">
        <ele>555.878</ele>
        <time>2012-05-24T14:20:00Z</time>
      </trkpt>
      <trkpt lat="44.31525" lon="3.6023">
        <ele>556.327</ele>
        <time>2012-05-24T14:20:09Z</time>
      </trkpt>
      <trkpt lat="44.31523" lon="3.60239">
        <ele>556.522</ele>
        <time>2012-05-24T14:20:14Z</time>
      </trkpt>
      <trkpt lat="44.31521" lon="3.60249">
        <ele>556.663</ele>
        <time>2012-05-24T14:20:19Z</time>
      </trkpt>
      <trkpt lat="44.31519" lon="3.60267">
        <ele>556.851</ele>
        <time>2012-05-24T14:20:31Z</time>
      </trkpt>
      <trkpt lat="44.31518" lon="3.60271">
        <ele>556.778</ele>
        <time>2012-05-24T14:20:33Z</time>
      </trkpt>
      <trkpt lat="44.31519" lon="3.60284">
        <ele>557.455</ele>
        <time>2012-05-24T14:20:43Z</time>
      </trkpt>
      <trkpt lat="44.31516" lon="3.60307">
        <ele>557.527</ele>
        <time>2012-05-24T14:20:56Z</time>
      </trkpt>
      <trkpt lat="44.31514" lon="3.60331">
        <ele>557.62</ele>
        <time>2012-05-24T14:21:10Z</time>
      </trkpt>
      <trkpt lat="44.31517" lon="3.6036">
        <ele>558.442</ele>
        <time>2012-05-24T14:21:27Z</time>
      </trkpt>
      <trkpt lat="44.31517" lon="3.60362">
        <ele>557.572</ele>
        <time>2012-05-24T14:21:29Z</time>
      </trkpt>
      <trkpt lat="44.31519" lon="3.60379">
        <ele>557.85</ele>
        <time>2012-05-24T14:21:39Z</time>
      </trkpt>
      <trkpt lat="44.31521" lon="3.60383">
        <ele>558.114</ele>
        <time>2012-05-24T14:21:41Z</time>
      </trkpt>
      <trkpt lat="44.31521" lon="3.60402">
        <ele>558.026</ele>
        <time>2012-05-24T14:21:49Z</time>
      </trkpt>
      <trkpt lat="44.31522" lon="3.60406">
        <ele>558.141</ele>
        <time>2012-05-24T14:21:52Z</time>
      </trkpt>
      <trkpt lat="44.31527" lon="3.60419">
        <ele>558.333</ele>
        <time>2012-05-24T14:22:00Z</time>
      </trkpt>
      <trkpt lat="44.31532" lon="3.60447">
        <ele>558.645</ele>
        <time>2012-05-24T14:22:16Z</time>
      </trkpt>
      <trkpt lat="44.31536" lon="3.60464">
        <ele>559.35</ele>
        <time>2012-05-24T14:22:27Z</time>
      </trkpt>
      <trkpt lat="44.31544" lon="3.60478">
        <ele>559.563</ele>
        <time>2012-05-24T14:22:37Z</time>
      </trkpt>
      <trkpt lat="44.31548" lon="3.60484">
        <ele>559.615</ele>
        <time>2012-05-24T14:22:42Z</time>
      </trkpt>
      <trkpt lat="44.3155" lon="3.6049">
        <ele>559.571</ele>
        <time>2012-05-24T14:22:46Z</time>
      </trkpt>
      <trkpt lat="44.31553" lon="3.605">
        <ele>559.974</ele>
        <time>2012-05-24T14:22:52Z</time>
      </trkpt>
      <trkpt lat="44.31556" lon="3.60509">
        <ele>559.802</ele>
        <time>2012-05-24T14:22:58Z</time>
      </trkpt>
      <trkpt lat="44.31558" lon="3.60517">
        <ele>560.297</ele>
        <time>2012-05-24T14:23:02Z</time>
      </trkpt>
      <trkpt lat="44.3156" lon="3.6052">
        <ele>559.953</ele>
        <time>2012-05-24T14:23:05Z</time>
      </trkpt>
      <trkpt lat="44.3156" lon="3.60523">
        <ele>560.214</ele>
        <time>2012-05-24T14:23:07Z</time>
      </trkpt>
      <trkpt lat="44.31563" lon="3.6053">
        <ele>560.291</ele>
        <time>2012-05-24T14:23:12Z</time>
      </trkpt>
      <trkpt lat="44.31567" lon="3.60536">
        <ele>560.014</ele>
        <time>2012-05-24T14:23:18Z</time>
      </trkpt>
      <trkpt lat="44.31572" lon="3.60555">
        <ele>560.424</ele>
        <time>2012-05-24T14:23:30Z</time>
      </trkpt>
      <trkpt lat="44.31566" lon="3.60577">
        <ele>560.286</ele>
        <time>2012-05-24T14:23:43Z</time>
      </trkpt>
      <trkpt lat="44.31565" lon="3.60578">
        <ele>560.245</ele>
        <time>2012-05-24T14:23:45Z</time>
      </trkpt>
      <trkpt lat="44.31561" lon="3.60587">
        <ele>560.444</ele>
        <time>2012-05-24T14:23:52Z</time>
      </trkpt>
      <trkpt lat="44.31555" lon="3.60594">
        <ele>560.28</ele>
        <time>2012-05-24T14:23:58Z</time>
      </trkpt>
      <trkpt lat="44.31545" lon="3.60616">
        <ele>560.891</ele>
        <time>2012-05-24T14:24:15Z</time>
      </trkpt>
      <trkpt lat="44.31544" lon="3.60623">
        <ele>560.759</ele>
        <time>2012-05-24T14:24:18Z</time>
      </trkpt>
      <trkpt lat="44.31545" lon="3.60628">
        <ele>561.433</ele>
        <time>2012-05-24T14:24:21Z</time>
      </trkpt>
      <trkpt lat="44.3156" lon="3.60642">
        <ele>561.53</ele>
        <time>2012-05-24T14:24:38Z</time>
      </trkpt>
      <trkpt lat="44.31579" lon="3.60634">
        <ele>562.455</ele>
        <time>2012-05-24T14:25:00Z</time>
      </trkpt>
      <trkpt lat="44.31593" lon="3.60626">
        <ele>563.115</ele>
        <time>2012-05-24T14:25:13Z</time>
      </trkpt>
      <trkpt lat="44.3162" lon="3.60627">
        <ele>565.104</ele>
        <time>2012-05-24T14:25:36Z</time>
      </trkpt>
      <trkpt lat="44.31641" lon="3.60641">
        <ele>565.803</ele>
        <time>2012-05-24T14:25:56Z</time>
      </trkpt>
      <trkpt lat="44.31657" lon="3.60658">
        <ele>565.775</ele>
        <time>2012-05-24T14:26:12Z</time>
      </trkpt>
      <trkpt lat="44.31664" lon="3.60664">
        <ele>566.065</ele>
        <time>2012-05-24T14:26:20Z</time>
      </trkpt>
      <trkpt lat="44.3166" lon="3.60661">
        <ele>565.681</ele>
        <time>2012-05-24T14:26:35Z</time>
      </trkpt>
      <trkpt lat="44.31664" lon="3.60666">
        <ele>566.535</ele>
        <time>2012-05-24T14:27:27Z</time>
      </trkpt>
      <trkpt lat="44.31683" lon="3.60683">
        <ele>566.515</ele>
        <time>2012-05-24T14:27:43Z</time>
      </trkpt>
      <trkpt lat="44.31702" lon="3.60703">
        <ele>566.998</ele>
        <time>2012-05-24T14:28:01Z</time>
      </trkpt>
      <trkpt lat="44.31713" lon="3.60713">
        <ele>567.705</ele>
        <time>2012-05-24T14:28:14Z</time>
      </trkpt>
      <trkpt lat="44.31728" lon="3.60726">
        <ele>567.657</ele>
        <time>2012-05-24T14:28:28Z</time>
      </trkpt>
      <trkpt lat="44.31735" lon="3.60737">
        <ele>568.587</ele>
        <time>2012-05-24T14:28:37Z</time>
      </trkpt>
      <trkpt lat="44.3174" lon="3.6074">
        <ele>568.87</ele>
        <time>2012-05-24T14:28:42Z</time>
      </trkpt>
      <trkpt lat="44.31743" lon="3.60745">
        <ele>568.891</ele>
        <time>2012-05-24T14:28:47Z</time>
      </trkpt>
      <trkpt lat="44.31745" lon="3.60748">
        <ele>569.158</ele>
        <time>2012-05-24T14:28:50Z</time>
      </trkpt>
      <trkpt lat="44.31747" lon="3.6075">
        <ele>569.292</ele>
        <time>2012-05-24T14:28:52Z</time>
      </trkpt>
      <trkpt lat="44.31749" lon="3.60752">
        <ele>569.314</ele>
        <time>2012-05-24T14:28:54Z</time>
      </trkpt>
      <trkpt lat="44.31757" lon="3.60763">
        <ele>570.627</ele>
        <time>2012-05-24T14:29:04Z</time>
      </trkpt>
      <trkpt lat="44.31771" lon="3.60784">
        <ele>572.888</ele>
        <time>2012-05-24T14:29:25Z</time>
      </trkpt>
      <trkpt lat="44.31775" lon="3.6079">
        <ele>573.364</ele>
        <time>2012-05-24T14:29:30Z</time>
      </trkpt>
      <trkpt lat="44.31785" lon="3.60814">
        <ele>575.702</ele>
        <time>2012-05-24T14:29:51Z</time>
      </trkpt>
      <trkpt lat="44.31788" lon="3.60823">
        <ele>576.344</ele>
        <time>2012-05-24T14:29:58Z</time>
      </trkpt>
      <trkpt lat="44.31791" lon="3.60836">
        <ele>577.142</ele>
        <time>2012-05-24T14:30:07Z</time>
      </trkpt>
      <trkpt lat="44.31792" lon="3.60873">
        <ele>578.664</ele>
        <time>2012-05-24T14:30:31Z</time>
      </trkpt>
      <trkpt lat="44.31791" lon="3.60903">
        <ele>580.358</ele>
        <time>2012-05-24T14:30:50Z</time>
      </trkpt>
      <trkpt lat="44.31789" lon="3.60911">
        <ele>580.471</ele>
        <time>2012-05-24T14:30:55Z</time>
      </trkpt>
      <trkpt lat="44.31773" lon="3.60943">
        <ele>582.916</ele>
        <time>2012-05-24T14:31:20Z</time>
      </trkpt>
      <trkpt lat="44.31759" lon="3.60967">
        <ele>583.889</ele>
        <time>2012-05-24T14:31:38Z</time>
      </trkpt>
      <trkpt lat="44.31742" lon="3.60991">
        <ele>585.788</ele>
        <time>2012-05-24T14:31:58Z</time>
      </trkpt>
      <trkpt lat="44.31729" lon="3.61018">
        <ele>586.825</ele>
        <time>2012-05-24T14:32:16Z</time>
      </trkpt>
      <trkpt lat="44.31708" lon="3.61048">
        <ele>588.787</ele>
        <time>2012-05-24T14:32:40Z</time>
      </trkpt>
      <trkpt lat="44.31694" lon="3.6107">
        <ele>590.972</ele>
        <time>2012-05-24T14:32:58Z</time>
      </trkpt>
      <trkpt lat="44.31679" lon="3.61094">
        <ele>592.995</ele>
        <time>2012-05-24T14:33:17Z</time>
      </trkpt>
      <trkpt lat="44.31665" lon="3.6111">
        <ele>595.529</ele>
        <time>2012-05-24T14:33:32Z</time>
      </trkpt>
      <trkpt lat="44.31648" lon="3.61117">
        <ele>596.523</ele>
        <time>2012-05-24T14:33:47Z</time>
      </trkpt>
      <trkpt lat="44.31635" lon="3.61123">
        <ele>597.065</ele>
        <time>2012-05-24T14:33:59Z</time>
      </trkpt>
      <trkpt lat="44.31632" lon="3.61125">
        <ele>597.23</ele>
        <time>2012-05-24T14:34:01Z</time>
      </trkpt>
      <trkpt lat="44.31628" lon="3.61126">
        <ele>598.01</ele>
        <time>2012-05-24T14:34:04Z</time>
      </trkpt>
      <trkpt lat="44.31623" lon="3.61127">
        <ele>598.519</ele>
        <time>2012-05-24T14:34:08Z</time>
      </trkpt>
      <trkpt lat="44.31614" lon="3.6113">
        <ele>599.058</ele>
        <time>2012-05-24T14:34:14Z</time>
      </trkpt>
      <trkpt lat="44.31608" lon="3.61132">
        <ele>599.104</ele>
        <time>2012-05-24T14:34:19Z</time>
      </trkpt>
      <trkpt lat="44.31605" lon="3.61135">
        <ele>599.874</ele>
        <time>2012-05-24T14:34:23Z</time>
      </trkpt>
      <trkpt lat="44.31597" lon="3.61132">
        <ele>599.984</ele>
        <time>2012-05-24T14:34:29Z</time>
      </trkpt>
      <trkpt lat="44.31589" lon="3.61133">
        <ele>600.279</ele>
        <time>2012-05-24T14:34:35Z</time>
      </trkpt>
      <trkpt lat="44.31581" lon="3.61136">
        <ele>601.41</ele>
        <time>2012-05-24T14:34:41Z</time>
      </trkpt>
      <trkpt lat="44.31568" lon="3.61136">
        <ele>602.533</ele>
        <time>2012-05-24T14:34:51Z</time>
      </trkpt>
      <trkpt lat="44.31559" lon="3.61143">
        <ele>603.226</ele>
        <time>2012-05-24T14:34:58Z</time>
      </trkpt>
      <trkpt lat="44.31549" lon="3.61143">
        <ele>603.504</ele>
        <time>2012-05-24T14:35:06Z</time>
      </trkpt>
      <trkpt lat="44.31541" lon="3.61146">
        <ele>604.155</ele>
        <time>2012-05-24T14:35:13Z</time>
      </trkpt>
      <trkpt lat="44.31534" lon="3.61147">
        <ele>604.129</ele>
        <time>2012-05-24T14:35:19Z</time>
      </trkpt>
      <trkpt lat="44.31527" lon="3.61149">
        <ele>604.824</ele>
        <time>2012-05-24T14:35:26Z</time>
      </trkpt>
      <trkpt lat="44.31512" lon="3.61156">
        <ele>606.97</ele>
        <time>2012-05-24T14:35:42Z</time>
      </trkpt>
      <trkpt lat="44.31505" lon="3.61161">
        <ele>607.457</ele>
        <time>2012-05-24T14:35:52Z</time>
      </trkpt>
      <trkpt lat="44.315" lon="3.61163">
        <ele>608.951</ele>
        <time>2012-05-24T14:39:44Z</time>
      </trkpt>
      <trkpt lat="44.31497" lon="3.6116">
        <ele>609.54</ele>
        <time>2012-05-24T14:40:38Z</time>
      </trkpt>
      <trkpt lat="44.31489" lon="3.61164">
        <ele>609.507</ele>
        <time>2012-05-24T14:40:51Z</time>
      </trkpt>
      <trkpt lat="44.31478" lon="3.61168">
        <ele>610.343</ele>
        <time>2012-05-24T14:41:03Z</time>
      </trkpt>
      <trkpt lat="44.31462" lon="3.61172">
        <ele>612.006</ele>
        <time>2012-05-24T14:41:23Z</time>
      </trkpt>
      <trkpt lat="44.31449" lon="3.61178">
        <ele>613.002</ele>
        <time>2012-05-24T14:41:39Z</time>
      </trkpt>
      <trkpt lat="44.31439" lon="3.61185">
        <ele>614.78</ele>
        <time>2012-05-24T14:41:51Z</time>
      </trkpt>
      <trkpt lat="44.31424" lon="3.61197">
        <ele>615.538</ele>
        <time>2012-05-24T14:42:08Z</time>
      </trkpt>
      <trkpt lat="44.3142" lon="3.612">
        <ele>616.125</ele>
        <time>2012-05-24T14:42:13Z</time>
      </trkpt>
      <trkpt lat="44.31408" lon="3.61212">
        <ele>616.9</ele>
        <time>2012-05-24T14:42:28Z</time>
      </trkpt>
      <trkpt lat="44.31392" lon="3.61228">
        <ele>617.031</ele>
        <time>2012-05-24T14:42:45Z</time>
      </trkpt>
      <trkpt lat="44.31382" lon="3.61242">
        <ele>617.614</ele>
        <time>2012-05-24T14:43:00Z</time>
      </trkpt>
      <trkpt lat="44.3138" lon="3.61246">
        <ele>617.562</ele>
        <time>2012-05-24T14:43:04Z</time>
      </trkpt>
      <trkpt lat="44.31373" lon="3.61252">
        <ele>617.261</ele>
        <time>2012-05-24T14:43:10Z</time>
      </trkpt>
      <trkpt lat="44.31365" lon="3.61266">
        <ele>616.687</ele>
        <time>2012-05-24T14:43:24Z</time>
      </trkpt>
      <trkpt lat="44.31362" lon="3.61277">
        <ele>615.783</ele>
        <time>2012-05-24T14:43:34Z</time>
      </trkpt>
      <trkpt lat="44.31356" lon="3.61292">
        <ele>615.023</ele>
        <time>2012-05-24T14:43:44Z</time>
      </trkpt>
      <trkpt lat="44.31355" lon="3.613">
        <ele>614.828</ele>
        <time>2012-05-24T14:43:49Z</time>
      </trkpt>
      <trkpt lat="44.31353" lon="3.61304">
        <ele>614.391</ele>
        <time>2012-05-24T14:43:52Z</time>
      </trkpt>
      <trkpt lat="44.31348" lon="3.61321">
        <ele>614.172</ele>
        <time>2012-05-24T14:44:02Z</time>
      </trkpt>
      <trkpt lat="44.31343" lon="3.61341">
        <ele>612.658</ele>
        <time>2012-05-24T14:44:17Z</time>
      </trkpt>
      <trkpt lat="44.31337" lon="3.61352">
        <ele>612.122</ele>
        <time>2012-05-24T14:44:25Z</time>
      </trkpt>
      <trkpt lat="44.31333" lon="3.61361">
        <ele>611.274</ele>
        <time>2012-05-24T14:44:31Z</time>
      </trkpt>
      <trkpt lat="44.31327" lon="3.61373">
        <ele>610.11</ele>
        <time>2012-05-24T14:44:41Z</time>
      </trkpt>
      <trkpt lat="44.31325" lon="3.6138">
        <ele>609.972</ele>
        <time>2012-05-24T14:44:46Z</time>
      </trkpt>
      <trkpt lat="44.31321" lon="3.61401">
        <ele>608.883</ele>
        <time>2012-05-24T14:44:58Z</time>
      </trkpt>
      <trkpt lat="44.31318" lon="3.61427">
        <ele>608.862</ele>
        <time>2012-05-24T14:45:12Z</time>
      </trkpt>
      <trkpt lat="44.31317" lon="3.61433">
        <ele>608.9</ele>
        <time>2012-05-24T14:45:16Z</time>
      </trkpt>
      <trkpt lat="44.31317" lon="3.61436">
        <ele>608.588</ele>
        <time>2012-05-24T14:45:18Z</time>
      </trkpt>
      <trkpt lat="44.31315" lon="3.61447">
        <ele>609.103</ele>
        <time>2012-05-24T14:45:25Z</time>
      </trkpt>
      <trkpt lat="44.31314" lon="3.61454">
        <ele>609.348</ele>
        <time>2012-05-24T14:45:29Z</time>
      </trkpt>
      <trkpt lat="44.31312" lon="3.61472">
        <ele>608.757</ele>
        <time>2012-05-24T14:45:40Z</time>
      </trkpt>
      <trkpt lat="44.31311" lon="3.61482">
        <ele>608.394</ele>
        <time>2012-05-24T14:45:47Z</time>
      </trkpt>
      <trkpt lat="44.31311" lon="3.6149">
        <ele>608.982</ele>
        <time>2012-05-24T14:45:53Z</time>
      </trkpt>
      <trkpt lat="44.3131" lon="3.61498">
        <ele>608.405</ele>
        <time>2012-05-24T14:45:58Z</time>
      </trkpt>
      <trkpt lat="44.31309" lon="3.61512">
        <ele>608.17</ele>
        <time>2012-05-24T14:46:07Z</time>
      </trkpt>
      <trkpt lat="44.31306" lon="3.61517">
        <ele>608.119</ele>
        <time>2012-05-24T14:46:10Z</time>
      </trkpt>
      <trkpt lat="44.313" lon="3.61547">
        <ele>607.264</ele>
        <time>2012-05-24T14:46:26Z</time>
      </trkpt>
      <trkpt lat="44.31298" lon="3.61562">
        <ele>606.689</ele>
        <time>2012-05-24T14:46:34Z</time>
      </trkpt>
      <trkpt lat="44.31299" lon="3.61568">
        <ele>606.697</ele>
        <time>2012-05-24T14:46:38Z</time>
      </trkpt>
      <trkpt lat="44.31294" lon="3.6159">
        <ele>606.312</ele>
        <time>2012-05-24T14:46:51Z</time>
      </trkpt>
      <trkpt lat="44.31288" lon="3.61613">
        <ele>605.704</ele>
        <time>2012-05-24T14:47:04Z</time>
      </trkpt>
      <trkpt lat="44.31289" lon="3.61619">
        <ele>604.702</ele>
        <time>2012-05-24T14:47:07Z</time>
      </trkpt>
      <trkpt lat="44.31287" lon="3.61625">
        <ele>605.06</ele>
        <time>2012-05-24T14:47:11Z</time>
      </trkpt>
      <trkpt lat="44.31286" lon="3.61632">
        <ele>604.651</ele>
        <time>2012-05-24T14:47:15Z</time>
      </trkpt>
      <trkpt lat="44.31284" lon="3.61636">
        <ele>604.95</ele>
        <time>2012-05-24T14:47:18Z</time>
      </trkpt>
      <trkpt lat="44.31284" lon="3.61644">
        <ele>604.925</ele>
        <time>2012-05-24T14:47:24Z</time>
      </trkpt>
      <trkpt lat="44.3128" lon="3.61659">
        <ele>604.821</ele>
        <time>2012-05-24T14:47:33Z</time>
      </trkpt>
      <trkpt lat="44.3128" lon="3.61664">
        <ele>604.823</ele>
        <time>2012-05-24T14:47:35Z</time>
      </trkpt>
      <trkpt lat="44.31279" lon="3.61683">
        <ele>604.41</ele>
        <time>2012-05-24T14:47:45Z</time>
      </trkpt>
      <trkpt lat="44.31278" lon="3.61702">
        <ele>604.954</ele>
        <time>2012-05-24T14:47:56Z</time>
      </trkpt>
      <trkpt lat="44.31273" lon="3.61717">
        <ele>604.527</ele>
        <time>2012-05-24T14:48:05Z</time>
      </trkpt>
      <trkpt lat="44.31265" lon="3.61738">
        <ele>602.896</ele>
        <time>2012-05-24T14:48:18Z</time>
      </trkpt>
      <trkpt lat="44.31259" lon="3.6175">
        <ele>602.706</ele>
        <time>2012-05-24T14:48:30Z</time>
      </trkpt>
      <trkpt lat="44.31247" lon="3.61759">
        <ele>601.912</ele>
        <time>2012-05-24T14:48:40Z</time>
      </trkpt>
      <trkpt lat="44.31245" lon="3.61762">
        <ele>602.069</ele>
        <time>2012-05-24T14:48:42Z</time>
      </trkpt>
      <trkpt lat="44.31237" lon="3.61768">
        <ele>601.131</ele>
        <time>2012-05-24T14:48:58Z</time>
      </trkpt>
      <trkpt lat="44.31228" lon="3.61774">
        <ele>600.814</ele>
        <time>2012-05-24T14:49:06Z</time>
      </trkpt>
      <trkpt lat="44.31206" lon="3.61799">
        <ele>600.073</ele>
        <time>2012-05-24T14:49:27Z</time>
      </trkpt>
      <trkpt lat="44.31197" lon="3.61807">
        <ele>599.883</ele>
        <time>2012-05-24T14:49:35Z</time>
      </trkpt>
      <trkpt lat="44.31172" lon="3.61827">
        <ele>598.974</ele>
        <time>2012-05-24T14:49:54Z</time>
      </trkpt>
      <trkpt lat="44.31158" lon="3.61838">
        <ele>597.845</ele>
        <time>2012-05-24T14:50:09Z</time>
      </trkpt>
      <trkpt lat="44.31152" lon="3.61841">
        <ele>597.69</ele>
        <time>2012-05-24T14:50:13Z</time>
      </trkpt>
      <trkpt lat="44.3115" lon="3.61843">
        <ele>598.057</ele>
        <time>2012-05-24T14:50:15Z</time>
      </trkpt>
      <trkpt lat="44.31142" lon="3.61848">
        <ele>597.603</ele>
        <time>2012-05-24T14:50:22Z</time>
      </trkpt>
      <trkpt lat="44.31141" lon="3.61858">
        <ele>597.7</ele>
        <time>2012-05-24T14:50:27Z</time>
      </trkpt>
      <trkpt lat="44.31156" lon="3.61876">
        <ele>597.831</ele>
        <time>2012-05-24T14:50:42Z</time>
      </trkpt>
      <trkpt lat="44.31161" lon="3.61878">
        <ele>597.672</ele>
        <time>2012-05-24T14:50:47Z</time>
      </trkpt>
      <trkpt lat="44.3117" lon="3.61884">
        <ele>597.748</ele>
        <time>2012-05-24T14:50:55Z</time>
      </trkpt>
      <trkpt lat="44.31184" lon="3.61893">
        <ele>597.678</ele>
        <time>2012-05-24T14:51:08Z</time>
      </trkpt>
      <trkpt lat="44.31188" lon="3.61896">
        <ele>597.622</ele>
        <time>2012-05-24T14:51:11Z</time>
      </trkpt>
      <trkpt lat="44.31193" lon="3.61896">
        <ele>597.54</ele>
        <time>2012-05-24T14:51:16Z</time>
      </trkpt>
      <trkpt lat="44.31196" lon="3.61897">
        <ele>597.355</ele>
        <time>2012-05-24T14:51:18Z</time>
      </trkpt>
      <trkpt lat="44.31224" lon="3.61886">
        <ele>598.613</ele>
        <time>2012-05-24T14:51:40Z</time>
      </trkpt>
      <trkpt lat="44.3124" lon="3.61882">
        <ele>599.494</ele>
        <time>2012-05-24T14:51:54Z</time>
      </trkpt>
      <trkpt lat="44.31244" lon="3.6188">
        <ele>599.648</ele>
        <time>2012-05-24T14:51:57Z</time>
      </trkpt>
      <trkpt lat="44.31247" lon="3.61881">
        <ele>599.733</ele>
        <time>2012-05-24T14:51:59Z</time>
      </trkpt>
      <trkpt lat="44.31271" lon="3.61882">
        <ele>600.8</ele>
        <time>2012-05-24T14:52:19Z</time>
      </trkpt>
      <trkpt lat="44.31293" lon="3.61887">
        <ele>602.266</ele>
        <time>2012-05-24T14:52:38Z</time>
      </trkpt>
      <trkpt lat="44.31302" lon="3.61896">
        <ele>602.915</ele>
        <time>2012-05-24T14:52:48Z</time>
      </trkpt>
      <trkpt lat="44.31289" lon="3.6192">
        <ele>603.712</ele>
        <time>2012-05-24T14:53:09Z</time>
      </trkpt>
      <trkpt lat="44.31268" lon="3.61937">
        <ele>605.203</ele>
        <time>2012-05-24T14:53:28Z</time>
      </trkpt>
      <trkpt lat="44.31265" lon="3.6194">
        <ele>605.493</ele>
        <time>2012-05-24T14:53:33Z</time>
      </trkpt>
      <trkpt lat="44.31258" lon="3.61945">
        <ele>605.237</ele>
        <time>2012-05-24T14:53:44Z</time>
      </trkpt>
      <trkpt lat="44.31253" lon="3.61951">
        <ele>605.912</ele>
        <time>2012-05-24T14:53:51Z</time>
      </trkpt>
      <trkpt lat="44.3125" lon="3.61961">
        <ele>605.968</ele>
        <time>2012-05-24T14:53:57Z</time>
      </trkpt>
      <trkpt lat="44.31247" lon="3.61966">
        <ele>605.957</ele>
        <time>2012-05-24T14:54:00Z</time>
      </trkpt>
      <trkpt lat="44.31246" lon="3.6197">
        <ele>606.158</ele>
        <time>2012-05-24T14:54:03Z</time>
      </trkpt>
      <trkpt lat="44.31249" lon="3.62">
        <ele>606.969</ele>
        <time>2012-05-24T14:54:22Z</time>
      </trkpt>
      <trkpt lat="44.31252" lon="3.62015">
        <ele>607.257</ele>
        <time>2012-05-24T14:54:31Z</time>
      </trkpt>
      <trkpt lat="44.3125" lon="3.6203">
        <ele>608.631</ele>
        <time>2012-05-24T14:54:43Z</time>
      </trkpt>
      <trkpt lat="44.31247" lon="3.62034">
        <ele>609.081</ele>
        <time>2012-05-24T14:54:47Z</time>
      </trkpt>
      <trkpt lat="44.31246" lon="3.62036">
        <ele>609.359</ele>
        <time>2012-05-24T14:54:49Z</time>
      </trkpt>
      <trkpt lat="44.31246" lon="3.62041">
        <ele>609.916</ele>
        <time>2012-05-24T14:54:53Z</time>
      </trkpt>
      <trkpt lat="44.31244" lon="3.62049">
        <ele>611.121</ele>
        <time>2012-05-24T14:54:59Z</time>
      </trkpt>
      <trkpt lat="44.31246" lon="3.6206">
        <ele>612.235</ele>
        <time>2012-05-24T14:55:06Z</time>
      </trkpt>
      <trkpt lat="44.31247" lon="3.62073">
        <ele>614.743</ele>
        <time>2012-05-24T14:55:16Z</time>
      </trkpt>
      <trkpt lat="44.31249" lon="3.62082">
        <ele>614.755</ele>
        <time>2012-05-24T14:55:22Z</time>
      </trkpt>
      <trkpt lat="44.31249" lon="3.62086">
        <ele>614.724</ele>
        <time>2012-05-24T14:55:25Z</time>
      </trkpt>
      <trkpt lat="44.31251" lon="3.621">
        <ele>616.024</ele>
        <time>2012-05-24T14:55:36Z</time>
      </trkpt>
      <trkpt lat="44.31253" lon="3.62106">
        <ele>616.596</ele>
        <time>2012-05-24T14:55:40Z</time>
      </trkpt>
      <trkpt lat="44.31257" lon="3.62121">
        <ele>617.437</ele>
        <time>2012-05-24T14:55:51Z</time>
      </trkpt>
      <trkpt lat="44.31259" lon="3.62126">
        <ele>618.227</ele>
        <time>2012-05-24T14:55:55Z</time>
      </trkpt>
      <trkpt lat="44.31261" lon="3.6213">
        <ele>618.294</ele>
        <time>2012-05-24T14:55:58Z</time>
      </trkpt>
      <trkpt lat="44.31263" lon="3.62132">
        <ele>618.665</ele>
        <time>2012-05-24T14:56:00Z</time>
      </trkpt>
      <trkpt lat="44.31276" lon="3.62149">
        <ele>620.723</ele>
        <time>2012-05-24T14:56:16Z</time>
      </trkpt>
      <trkpt lat="44.31279" lon="3.62158">
        <ele>621.672</ele>
        <time>2012-05-24T14:56:22Z</time>
      </trkpt>
      <trkpt lat="44.31281" lon="3.62166">
        <ele>621.819</ele>
        <time>2012-05-24T14:56:28Z</time>
      </trkpt>
      <trkpt lat="44.31288" lon="3.62185">
        <ele>623.34</ele>
        <time>2012-05-24T14:56:42Z</time>
      </trkpt>
      <trkpt lat="44.31296" lon="3.62201">
        <ele>625.162</ele>
        <time>2012-05-24T14:56:54Z</time>
      </trkpt>
      <trkpt lat="44.313" lon="3.62208">
        <ele>625.492</ele>
        <time>2012-05-24T14:56:59Z</time>
      </trkpt>
      <trkpt lat="44.31305" lon="3.62211">
        <ele>626.158</ele>
        <time>2012-05-24T14:57:05Z</time>
      </trkpt>
      <trkpt lat="44.31307" lon="3.6223">
        <ele>627.687</ele>
        <time>2012-05-24T14:57:15Z</time>
      </trkpt>
      <trkpt lat="44.31313" lon="3.62248">
        <ele>628.656</ele>
        <time>2012-05-24T14:57:27Z</time>
      </trkpt>
      <trkpt lat="44.31321" lon="3.62263">
        <ele>629.525</ele>
        <time>2012-05-24T14:57:38Z</time>
      </trkpt>
      <trkpt lat="44.31327" lon="3.62277">
        <ele>630.851</ele>
        <time>2012-05-24T14:57:51Z</time>
      </trkpt>
      <trkpt lat="44.31331" lon="3.6228">
        <ele>630.909</ele>
        <time>2012-05-24T14:57:54Z</time>
      </trkpt>
      <trkpt lat="44.31336" lon="3.62286">
        <ele>631.625</ele>
        <time>2012-05-24T14:57:59Z</time>
      </trkpt>
      <trkpt lat="44.31347" lon="3.62304">
        <ele>633.408</ele>
        <time>2012-05-24T14:58:13Z</time>
      </trkpt>
      <trkpt lat="44.31352" lon="3.62311">
        <ele>633.913</ele>
        <time>2012-05-24T14:58:18Z</time>
      </trkpt>
      <trkpt lat="44.31359" lon="3.62328">
        <ele>635.489</ele>
        <time>2012-05-24T14:58:31Z</time>
      </trkpt>
      <trkpt lat="44.31368" lon="3.62347">
        <ele>637.849</ele>
        <time>2012-05-24T14:58:47Z</time>
      </trkpt>
      <trkpt lat="44.31369" lon="3.62349">
        <ele>637.934</ele>
        <time>2012-05-24T14:58:49Z</time>
      </trkpt>
      <trkpt lat="44.31375" lon="3.62362">
        <ele>639.708</ele>
        <time>2012-05-24T14:58:59Z</time>
      </trkpt>
      <trkpt lat="44.31384" lon="3.62381">
        <ele>641.512</ele>
        <time>2012-05-24T14:59:14Z</time>
      </trkpt>
      <trkpt lat="44.31395" lon="3.62405">
        <ele>645.688</ele>
        <time>2012-05-24T14:59:34Z</time>
      </trkpt>
      <trkpt lat="44.31405" lon="3.62428">
        <ele>648.703</ele>
        <time>2012-05-24T14:59:53Z</time>
      </trkpt>
      <trkpt lat="44.31417" lon="3.6245">
        <ele>651.387</ele>
        <time>2012-05-24T15:00:13Z</time>
      </trkpt>
      <trkpt lat="44.31428" lon="3.62477">
        <ele>654.924</ele>
        <time>2012-05-24T15:00:34Z</time>
      </trkpt>
      <trkpt lat="44.31436" lon="3.62506">
        <ele>658.289</ele>
        <time>2012-05-24T15:00:55Z</time>
      </trkpt>
      <trkpt lat="44.31435" lon="3.62529">
        <ele>658.992</ele>
        <time>2012-05-24T15:01:10Z</time>
      </trkpt>
      <trkpt lat="44.31422" lon="3.62546">
        <ele>660.369</ele>
        <time>2012-05-24T15:01:24Z</time>
      </trkpt>
      <trkpt lat="44.31408" lon="3.62563">
        <ele>661.486</ele>
        <time>2012-05-24T15:01:40Z</time>
      </trkpt>
      <trkpt lat="44.31388" lon="3.62573">
        <ele>663.558</ele>
        <time>2012-05-24T15:01:58Z</time>
      </trkpt>
      <trkpt lat="44.31375" lon="3.62581">
        <ele>664.072</ele>
        <time>2012-05-24T15:02:11Z</time>
      </trkpt>
      <trkpt lat="44.31368" lon="3.6259">
        <ele>664.56</ele>
        <time>2012-05-24T15:02:21Z</time>
      </trkpt>
      <trkpt lat="44.31366" lon="3.62592">
        <ele>664.2</ele>
        <time>2012-05-24T15:02:23Z</time>
      </trkpt>
      <trkpt lat="44.31359" lon="3.62601">
        <ele>665.55</ele>
        <time>2012-05-24T15:02:32Z</time>
      </trkpt>
      <trkpt lat="44.31354" lon="3.62612">
        <ele>666.66</ele>
        <time>2012-05-24T15:02:42Z</time>
      </trkpt>
      <trkpt lat="44.3135" lon="3.62618">
        <ele>667.438</ele>
        <time>2012-05-24T15:02:48Z</time>
      </trkpt>
      <trkpt lat="44.31339" lon="3.6263">
        <ele>669.242</ele>
        <time>2012-05-24T15:03:00Z</time>
      </trkpt>
      <trkpt lat="44.31326" lon="3.62638">
        <ele>670.639</ele>
        <time>2012-05-24T15:03:14Z</time>
      </trkpt>
      <trkpt lat="44.31314" lon="3.62645">
        <ele>672.911</ele>
        <time>2012-05-24T15:03:27Z</time>
      </trkpt>
      <trkpt lat="44.31311" lon="3.62645">
        <ele>671.92</ele>
        <time>2012-05-24T15:03:58Z</time>
      </trkpt>
      <trkpt lat="44.31299" lon="3.62648">
        <ele>674.144</ele>
        <time>2012-05-24T15:04:13Z</time>
      </trkpt>
      <trkpt lat="44.31291" lon="3.62653">
        <ele>676.09</ele>
        <time>2012-05-24T15:04:30Z</time>
      </trkpt>
      <trkpt lat="44.31283" lon="3.62663">
        <ele>677.856</ele>
        <time>2012-05-24T15:04:43Z</time>
      </trkpt>
      <trkpt lat="44.31277" lon="3.62673">
        <ele>678.931</ele>
        <time>2012-05-24T15:04:52Z</time>
      </trkpt>
      <trkpt lat="44.3127" lon="3.62681">
        <ele>680.768</ele>
        <time>2012-05-24T15:05:01Z</time>
      </trkpt>
      <trkpt lat="44.31264" lon="3.6269">
        <ele>681.735</ele>
        <time>2012-05-24T15:05:09Z</time>
      </trkpt>
      <trkpt lat="44.3126" lon="3.62698">
        <ele>683.402</ele>
        <time>2012-05-24T15:05:19Z</time>
      </trkpt>
      <trkpt lat="44.31255" lon="3.62708">
        <ele>684.504</ele>
        <time>2012-05-24T15:05:27Z</time>
      </trkpt>
      <trkpt lat="44.31242" lon="3.62726">
        <ele>687.196</ele>
        <time>2012-05-24T15:05:45Z</time>
      </trkpt>
      <trkpt lat="44.31238" lon="3.6273">
        <ele>687.949</ele>
        <time>2012-05-24T15:05:49Z</time>
      </trkpt>
      <trkpt lat="44.31233" lon="3.62735">
        <ele>688.198</ele>
        <time>2012-05-24T15:05:53Z</time>
      </trkpt>
      <trkpt lat="44.31227" lon="3.62737">
        <ele>688.771</ele>
        <time>2012-05-24T15:05:57Z</time>
      </trkpt>
      <trkpt lat="44.31209" lon="3.62746">
        <ele>691.773</ele>
        <time>2012-05-24T15:06:12Z</time>
      </trkpt>
      <trkpt lat="44.31193" lon="3.6275">
        <ele>693.307</ele>
        <time>2012-05-24T15:06:24Z</time>
      </trkpt>
      <trkpt lat="44.31183" lon="3.6276">
        <ele>694.514</ele>
        <time>2012-05-24T15:06:36Z</time>
      </trkpt>
      <trkpt lat="44.31182" lon="3.62761">
        <ele>695.111</ele>
        <time>2012-05-24T15:06:38Z</time>
      </trkpt>
      <trkpt lat="44.31176" lon="3.62769">
        <ele>695.942</ele>
        <time>2012-05-24T15:06:45Z</time>
      </trkpt>
      <trkpt lat="44.3117" lon="3.62772">
        <ele>695.9</ele>
        <time>2012-05-24T15:06:49Z</time>
      </trkpt>
      <trkpt lat="44.31163" lon="3.62779">
        <ele>696.851</ele>
        <time>2012-05-24T15:06:56Z</time>
      </trkpt>
      <trkpt lat="44.31164" lon="3.62787">
        <ele>697.444</ele>
        <time>2012-05-24T15:07:01Z</time>
      </trkpt>
      <trkpt lat="44.31159" lon="3.62793">
        <ele>698.219</ele>
        <time>2012-05-24T15:07:06Z</time>
      </trkpt>
      <trkpt lat="44.31147" lon="3.62814">
        <ele>700.945</ele>
        <time>2012-05-24T15:07:22Z</time>
      </trkpt>
      <trkpt lat="44.31141" lon="3.62822">
        <ele>702.001</ele>
        <time>2012-05-24T15:07:29Z</time>
      </trkpt>
      <trkpt lat="44.31138" lon="3.62831">
        <ele>703.045</ele>
        <time>2012-05-24T15:07:36Z</time>
      </trkpt>
      <trkpt lat="44.31134" lon="3.62835">
        <ele>703.504</ele>
        <time>2012-05-24T15:07:40Z</time>
      </trkpt>
      <trkpt lat="44.31123" lon="3.62855">
        <ele>706.148</ele>
        <time>2012-05-24T15:07:57Z</time>
      </trkpt>
      <trkpt lat="44.31122" lon="3.62857">
        <ele>706.478</ele>
        <time>2012-05-24T15:07:59Z</time>
      </trkpt>
      <trkpt lat="44.31119" lon="3.62864">
        <ele>706.999</ele>
        <time>2012-05-24T15:08:06Z</time>
      </trkpt>
      <trkpt lat="44.31117" lon="3.62867">
        <ele>707.321</ele>
        <time>2012-05-24T15:08:10Z</time>
      </trkpt>
      <trkpt lat="44.31115" lon="3.6287">
        <ele>707.788</ele>
        <time>2012-05-24T15:08:13Z</time>
      </trkpt>
      <trkpt lat="44.31107" lon="3.62882">
        <ele>709.509</ele>
        <time>2012-05-24T15:08:27Z</time>
      </trkpt>
      <trkpt lat="44.31101" lon="3.62892">
        <ele>711.032</ele>
        <time>2012-05-24T15:08:37Z</time>
      </trkpt>
      <trkpt lat="44.31097" lon="3.62898">
        <ele>711.424</ele>
        <time>2012-05-24T15:08:42Z</time>
      </trkpt>
      <trkpt lat="44.31092" lon="3.62907">
        <ele>712.182</ele>
        <time>2012-05-24T15:08:49Z</time>
      </trkpt>
      <trkpt lat="44.3109" lon="3.6292">
        <ele>713.436</ele>
        <time>2012-05-24T15:08:56Z</time>
      </trkpt>
      <trkpt lat="44.31082" lon="3.62932">
        <ele>715.165</ele>
        <time>2012-05-24T15:09:08Z</time>
      </trkpt>
      <trkpt lat="44.3108" lon="3.62936">
        <ele>716.042</ele>
        <time>2012-05-24T15:09:11Z</time>
      </trkpt>
      <trkpt lat="44.31076" lon="3.62945">
        <ele>716.571</ele>
        <time>2012-05-24T15:09:17Z</time>
      </trkpt>
      <trkpt lat="44.31073" lon="3.62959">
        <ele>717.787</ele>
        <time>2012-05-24T15:09:25Z</time>
      </trkpt>
      <trkpt lat="44.31069" lon="3.62968">
        <ele>718.563</ele>
        <time>2012-05-24T15:09:32Z</time>
      </trkpt>
      <trkpt lat="44.31067" lon="3.62975">
        <ele>719.276</ele>
        <time>2012-05-24T15:09:37Z</time>
      </trkpt>
      <trkpt lat="44.31056" lon="3.62991">
        <ele>721.732</ele>
        <time>2012-05-24T15:09:50Z</time>
      </trkpt>
      <trkpt lat="44.3104" lon="3.63002">
        <ele>723.899</ele>
        <time>2012-05-24T15:10:04Z</time>
      </trkpt>
      <trkpt lat="44.31025" lon="3.63011">
        <ele>725.557</ele>
        <time>2012-05-24T15:10:15Z</time>
      </trkpt>
      <trkpt lat="44.31005" lon="3.63012">
        <ele>727.885</ele>
        <time>2012-05-24T15:10:32Z</time>
      </trkpt>
      <trkpt lat="44.30986" lon="3.62996">
        <ele>729.827</ele>
        <time>2012-05-24T15:10:51Z</time>
      </trkpt>
      <trkpt lat="44.30973" lon="3.62988">
        <ele>731.507</ele>
        <time>2012-05-24T15:11:05Z</time>
      </trkpt>
      <trkpt lat="44.30964" lon="3.62979">
        <ele>732.632</ele>
        <time>2012-05-24T15:11:15Z</time>
      </trkpt>
      <trkpt lat="44.30957" lon="3.62973">
        <ele>733.592</ele>
        <time>2012-05-24T15:11:21Z</time>
      </trkpt>
      <trkpt lat="44.30955" lon="3.62971">
        <ele>733.991</ele>
        <time>2012-05-24T15:11:24Z</time>
      </trkpt>
      <trkpt lat="44.30952" lon="3.62969">
        <ele>733.955</ele>
        <time>2012-05-24T15:11:27Z</time>
      </trkpt>
      <trkpt lat="44.30945" lon="3.62962">
        <ele>734.895</ele>
        <time>2012-05-24T15:11:33Z</time>
      </trkpt>
      <trkpt lat="44.30942" lon="3.62957">
        <ele>735.351</ele>
        <time>2012-05-24T15:11:37Z</time>
      </trkpt>
      <trkpt lat="44.30935" lon="3.62951">
        <ele>736.68</ele>
        <time>2012-05-24T15:11:46Z</time>
      </trkpt>
      <trkpt lat="44.30931" lon="3.6295">
        <ele>737.14</ele>
        <time>2012-05-24T15:11:52Z</time>
      </trkpt>
      <trkpt lat="44.30929" lon="3.62948">
        <ele>737.695</ele>
        <time>2012-05-24T15:11:55Z</time>
      </trkpt>
      <trkpt lat="44.30919" lon="3.62933">
        <ele>738.767</ele>
        <time>2012-05-24T15:12:06Z</time>
      </trkpt>
      <trkpt lat="44.30903" lon="3.62925">
        <ele>740.117</ele>
        <time>2012-05-24T15:12:18Z</time>
      </trkpt>
      <trkpt lat="44.30892" lon="3.62919">
        <ele>741.268</ele>
        <time>2012-05-24T15:12:28Z</time>
      </trkpt>
      <trkpt lat="44.30879" lon="3.62914">
        <ele>742.66</ele>
        <time>2012-05-24T15:12:38Z</time>
      </trkpt>
      <trkpt lat="44.30866" lon="3.62907">
        <ele>744.562</ele>
        <time>2012-05-24T15:12:51Z</time>
      </trkpt>
      <trkpt lat="44.30844" lon="3.62889">
        <ele>746.917</ele>
        <time>2012-05-24T15:13:20Z</time>
      </trkpt>
      <trkpt lat="44.3084" lon="3.62887">
        <ele>746.841</ele>
        <time>2012-05-24T15:13:24Z</time>
      </trkpt>
      <trkpt lat="44.30819" lon="3.62868">
        <ele>748.853</ele>
        <time>2012-05-24T15:13:45Z</time>
      </trkpt>
      <trkpt lat="44.308" lon="3.62853">
        <ele>750.377</ele>
        <time>2012-05-24T15:14:01Z</time>
      </trkpt>
      <trkpt lat="44.30784" lon="3.62847">
        <ele>751.629</ele>
        <time>2012-05-24T15:14:16Z</time>
      </trkpt>
      <trkpt lat="44.30771" lon="3.62835">
        <ele>752.788</ele>
        <time>2012-05-24T15:14:29Z</time>
      </trkpt>
      <trkpt lat="44.30751" lon="3.6282">
        <ele>754.832</ele>
        <time>2012-05-24T15:14:47Z</time>
      </trkpt>
      <trkpt lat="44.30734" lon="3.62801">
        <ele>758.106</ele>
        <time>2012-05-24T15:15:07Z</time>
      </trkpt>
      <trkpt lat="44.30714" lon="3.62782">
        <ele>761.126</ele>
        <time>2012-05-24T15:15:28Z</time>
      </trkpt>
      <trkpt lat="44.30696" lon="3.62763">
        <ele>764.437</ele>
        <time>2012-05-24T15:15:49Z</time>
      </trkpt>
      <trkpt lat="44.30698" lon="3.62759">
        <ele>765.17</ele>
        <time>2012-05-24T15:15:54Z</time>
      </trkpt>
      <trkpt lat="44.30715" lon="3.6276">
        <ele>767.896</ele>
        <time>2012-05-24T15:16:12Z</time>
      </trkpt>
      <trkpt lat="44.30729" lon="3.62758">
        <ele>770.19</ele>
        <time>2012-05-24T15:16:27Z</time>
      </trkpt>
      <trkpt lat="44.30749" lon="3.62756">
        <ele>772.724</ele>
        <time>2012-05-24T15:16:45Z</time>
      </trkpt>
      <trkpt lat="44.30772" lon="3.62761">
        <ele>774.73</ele>
        <time>2012-05-24T15:17:06Z</time>
      </trkpt>
      <trkpt lat="44.30786" lon="3.62763">
        <ele>775.944</ele>
        <time>2012-05-24T15:17:18Z</time>
      </trkpt>
      <trkpt lat="44.30788" lon="3.62759">
        <ele>776.823</ele>
        <time>2012-05-24T15:17:25Z</time>
      </trkpt>
      <trkpt lat="44.30781" lon="3.62749">
        <ele>778.539</ele>
        <time>2012-05-24T15:17:36Z</time>
      </trkpt>
      <trkpt lat="44.30778" lon="3.62748">
        <ele>779.239</ele>
        <time>2012-05-24T15:17:39Z</time>
      </trkpt>
      <trkpt lat="44.30759" lon="3.62733">
        <ele>782.757</ele>
        <time>2012-05-24T15:18:01Z</time>
      </trkpt>
      <trkpt lat="44.30757" lon="3.62731">
        <ele>782.847</ele>
        <time>2012-05-24T15:18:04Z</time>
      </trkpt>
      <trkpt lat="44.30753" lon="3.62727">
        <ele>783.854</ele>
        <time>2012-05-24T15:18:08Z</time>
      </trkpt>
      <trkpt lat="44.30735" lon="3.62717">
        <ele>786.895</ele>
        <time>2012-05-24T15:18:29Z</time>
      </trkpt>
      <trkpt lat="44.3072" lon="3.6271">
        <ele>788.395</ele>
        <time>2012-05-24T15:18:46Z</time>
      </trkpt>
      <trkpt lat="44.30716" lon="3.62707">
        <ele>789.879</ele>
        <time>2012-05-24T15:20:39Z</time>
      </trkpt>
      <trkpt lat="44.30715" lon="3.62709">
        <ele>788.755</ele>
        <time>2012-05-24T15:21:13Z</time>
      </trkpt>
      <trkpt lat="44.30714" lon="3.62711">
        <ele>788.751</ele>
        <time>2012-05-24T15:22:00Z</time>
      </trkpt>
    </trkseg>
  </trk>
</gpx>